<?xml version='1.0' encoding='UTF-8'?><gpx version="1.1" creator="JPX - https://github.com/jenetics/jpx" xmlns="http://www.topografix.com/GPX/1/1"><trk><trkseg><trkpt lat="45.7483229" lon="11.6604611"><ele>103.0</ele><time>2026-04-12T07:56:31.983Z</time></trkpt><trkpt lat="45.7482724" lon="11.6605267"><ele>103.0</ele><time>2026-04-12T07:56:39.011Z</time></trkpt><trkpt lat="45.7481862" lon="11.6605549"><ele>103.0</ele><time>2026-04-12T07:56:46.991Z</time></trkpt><trkpt lat="45.748095" lon="11.660586"><ele>103.0</ele><time>2026-04-12T07:56:48.995Z</time></trkpt><trkpt lat="45.7479673" lon="11.6606297"><ele>103.0</ele><time>2026-04-12T07:56:51.003Z</time></trkpt><trkpt lat="45.7478934" lon="11.6606471"><ele>103.00000000000001</ele><time>2026-04-12T07:56:52.009Z</time></trkpt><trkpt lat="45.7478258" lon="11.6606607"><ele>103.0</ele><time>2026-04-12T07:56:52.909Z</time></trkpt><trkpt lat="45.7477086" lon="11.6606923"><ele>103.0</ele><time>2026-04-12T07:56:54.715Z</time></trkpt><trkpt lat="45.747617" lon="11.6607028"><ele>103.0</ele><time>2026-04-12T07:56:56.508Z</time></trkpt><trkpt lat="45.7475415" lon="11.6607288"><ele>103.00000000000001</ele><time>2026-04-12T07:56:58.308Z</time></trkpt><trkpt lat="45.7474793" lon="11.6607434"><ele>103.0</ele><time>2026-04-12T07:57:01.29Z</time></trkpt><trkpt lat="45.7474512" lon="11.6606528"><ele>103.0</ele><time>2026-04-12T07:57:03.287Z</time></trkpt><trkpt lat="45.7474608" lon="11.6604788"><ele>103.0</ele><time>2026-04-12T07:57:05.301Z</time></trkpt><trkpt lat="45.7474615" lon="11.6603806"><ele>103.0</ele><time>2026-04-12T07:57:06.301Z</time></trkpt><trkpt lat="45.7474605" lon="11.6602857"><ele>103.0</ele><time>2026-04-12T07:57:07.304Z</time></trkpt><trkpt lat="45.7474566" lon="11.6601299"><ele>103.0</ele><time>2026-04-12T07:57:09.302Z</time></trkpt><trkpt lat="45.7474496" lon="11.6599649"><ele>103.00000000000001</ele><time>2026-04-12T07:57:11.316Z</time></trkpt><trkpt lat="45.7474444" lon="11.6598681"><ele>103.0</ele><time>2026-04-12T07:57:12.303Z</time></trkpt><trkpt lat="45.7474395" lon="11.6597562"><ele>103.0</ele><time>2026-04-12T07:57:13.316Z</time></trkpt><trkpt lat="45.7474298" lon="11.6596364"><ele>103.0</ele><time>2026-04-12T07:57:14.304Z</time></trkpt><trkpt lat="45.7474212" lon="11.6595106"><ele>103.00000000000001</ele><time>2026-04-12T07:57:15.309Z</time></trkpt><trkpt lat="45.7474126" lon="11.6593769"><ele>103.0</ele><time>2026-04-12T07:57:16.307Z</time></trkpt><trkpt lat="45.7474036" lon="11.659239"><ele>103.0</ele><time>2026-04-12T07:57:17.31Z</time></trkpt><trkpt lat="45.7473974" lon="11.6590927"><ele>103.0</ele><time>2026-04-12T07:57:18.313Z</time></trkpt><trkpt lat="45.7473936" lon="11.6589404"><ele>103.0</ele><time>2026-04-12T07:57:19.312Z</time></trkpt><trkpt lat="45.7473859" lon="11.6587928"><ele>103.0</ele><time>2026-04-12T07:57:20.311Z</time></trkpt><trkpt lat="45.7473801" lon="11.6586493"><ele>103.0</ele><time>2026-04-12T07:57:21.304Z</time></trkpt><trkpt lat="45.7473734" lon="11.6585081"><ele>102.83333333333334</ele><time>2026-04-12T07:57:22.312Z</time></trkpt><trkpt lat="45.7473677" lon="11.6583659"><ele>102.66666666666667</ele><time>2026-04-12T07:57:23.298Z</time></trkpt><trkpt lat="45.7473596" lon="11.6582294"><ele>102.5</ele><time>2026-04-12T07:57:24.303Z</time></trkpt><trkpt lat="45.7473501" lon="11.6581043"><ele>102.33333333333334</ele><time>2026-04-12T07:57:25.303Z</time></trkpt><trkpt lat="45.7473354" lon="11.657993"><ele>102.16666666666667</ele><time>2026-04-12T07:57:26.298Z</time></trkpt><trkpt lat="45.7473255" lon="11.6578927"><ele>102.0</ele><time>2026-04-12T07:57:27.299Z</time></trkpt><trkpt lat="45.747318" lon="11.6577265"><ele>102.0</ele><time>2026-04-12T07:57:29.298Z</time></trkpt><trkpt lat="45.7472807" lon="11.6576234"><ele>102.0</ele><time>2026-04-12T07:57:31.321Z</time></trkpt><trkpt lat="45.7471516" lon="11.657665"><ele>102.0</ele><time>2026-04-12T07:57:33.297Z</time></trkpt><trkpt lat="45.7470691" lon="11.6577262"><ele>102.0</ele><time>2026-04-12T07:57:34.302Z</time></trkpt><trkpt lat="45.746984" lon="11.6577868"><ele>102.0</ele><time>2026-04-12T07:57:35.293Z</time></trkpt><trkpt lat="45.7469047" lon="11.6578467"><ele>102.0</ele><time>2026-04-12T07:57:36.302Z</time></trkpt><trkpt lat="45.7468218" lon="11.6579139"><ele>102.0</ele><time>2026-04-12T07:57:37.295Z</time></trkpt><trkpt lat="45.7467438" lon="11.6579793"><ele>102.0</ele><time>2026-04-12T07:57:38.299Z</time></trkpt><trkpt lat="45.7466587" lon="11.6580379"><ele>102.0</ele><time>2026-04-12T07:57:39.29Z</time></trkpt><trkpt lat="45.7465737" lon="11.6581047"><ele>102.0</ele><time>2026-04-12T07:57:40.303Z</time></trkpt><trkpt lat="45.7464841" lon="11.6581668"><ele>102.0</ele><time>2026-04-12T07:57:41.303Z</time></trkpt><trkpt lat="45.7463968" lon="11.6582266"><ele>102.0</ele><time>2026-04-12T07:57:42.306Z</time></trkpt><trkpt lat="45.7463102" lon="11.6582778"><ele>102.0</ele><time>2026-04-12T07:57:43.3Z</time></trkpt><trkpt lat="45.7462286" lon="11.6583215"><ele>102.0</ele><time>2026-04-12T07:57:44.305Z</time></trkpt><trkpt lat="45.7461548" lon="11.6583623"><ele>102.0</ele><time>2026-04-12T07:57:45.297Z</time></trkpt><trkpt lat="45.7460854" lon="11.6583891"><ele>102.0</ele><time>2026-04-12T07:57:46.298Z</time></trkpt><trkpt lat="45.7459872" lon="11.6583992"><ele>101.83333333333333</ele><time>2026-04-12T07:57:48.309Z</time></trkpt><trkpt lat="45.7459282" lon="11.6583454"><ele>101.66666666666666</ele><time>2026-04-12T07:57:55.301Z</time></trkpt><trkpt lat="45.7459185" lon="11.6584644"><ele>101.5</ele><time>2026-04-12T07:58:06.315Z</time></trkpt><trkpt lat="45.7459168" lon="11.6585642"><ele>101.33333333333333</ele><time>2026-04-12T07:58:15.327Z</time></trkpt><trkpt lat="45.7458269" lon="11.6587012"><ele>101.16666666666666</ele><time>2026-04-12T07:58:17.301Z</time></trkpt><trkpt lat="45.7457402" lon="11.6587242"><ele>101.0</ele><time>2026-04-12T07:58:18.307Z</time></trkpt><trkpt lat="45.7456403" lon="11.6586921"><ele>100.99999999999999</ele><time>2026-04-12T07:58:19.297Z</time></trkpt><trkpt lat="45.7455585" lon="11.6586514"><ele>101.0</ele><time>2026-04-12T07:58:20.298Z</time></trkpt><trkpt lat="45.7454742" lon="11.6586088"><ele>101.0</ele><time>2026-04-12T07:58:21.295Z</time></trkpt><trkpt lat="45.7453889" lon="11.658576"><ele>101.0</ele><time>2026-04-12T07:58:22.307Z</time></trkpt><trkpt lat="45.7453045" lon="11.6585358"><ele>100.99999999999999</ele><time>2026-04-12T07:58:23.295Z</time></trkpt><trkpt lat="45.7452168" lon="11.6584923"><ele>101.0</ele><time>2026-04-12T07:58:24.312Z</time></trkpt><trkpt lat="45.7451184" lon="11.6584506"><ele>100.8</ele><time>2026-04-12T07:58:25.307Z</time></trkpt><trkpt lat="45.7450177" lon="11.6584187"><ele>100.6</ele><time>2026-04-12T07:58:26.316Z</time></trkpt><trkpt lat="45.7449159" lon="11.6583966"><ele>100.4</ele><time>2026-04-12T07:58:27.308Z</time></trkpt><trkpt lat="45.7448108" lon="11.6583678"><ele>100.2</ele><time>2026-04-12T07:58:28.308Z</time></trkpt><trkpt lat="45.7447021" lon="11.6583486"><ele>100.0</ele><time>2026-04-12T07:58:29.301Z</time></trkpt><trkpt lat="45.7445956" lon="11.6583362"><ele>100.0</ele><time>2026-04-12T07:58:30.316Z</time></trkpt><trkpt lat="45.7444867" lon="11.6583261"><ele>100.0</ele><time>2026-04-12T07:58:31.309Z</time></trkpt><trkpt lat="45.7443827" lon="11.6583206"><ele>100.0</ele><time>2026-04-12T07:58:32.314Z</time></trkpt><trkpt lat="45.7442766" lon="11.6583236"><ele>100.0</ele><time>2026-04-12T07:58:33.32Z</time></trkpt><trkpt lat="45.7441654" lon="11.6583265"><ele>100.0</ele><time>2026-04-12T07:58:34.308Z</time></trkpt><trkpt lat="45.7440622" lon="11.6583317"><ele>100.0</ele><time>2026-04-12T07:58:35.314Z</time></trkpt><trkpt lat="45.7439649" lon="11.6583387"><ele>100.0</ele><time>2026-04-12T07:58:36.311Z</time></trkpt><trkpt lat="45.7438698" lon="11.6583531"><ele>100.0</ele><time>2026-04-12T07:58:37.306Z</time></trkpt><trkpt lat="45.7437822" lon="11.6583677"><ele>100.0</ele><time>2026-04-12T07:58:38.315Z</time></trkpt><trkpt lat="45.7436951" lon="11.6583671"><ele>100.0</ele><time>2026-04-12T07:58:39.302Z</time></trkpt><trkpt lat="45.7436026" lon="11.6583693"><ele>100.2</ele><time>2026-04-12T07:58:40.311Z</time></trkpt><trkpt lat="45.7435114" lon="11.6583811"><ele>100.4</ele><time>2026-04-12T07:58:41.314Z</time></trkpt><trkpt lat="45.7434185" lon="11.6583901"><ele>100.6</ele><time>2026-04-12T07:58:42.301Z</time></trkpt><trkpt lat="45.7433237" lon="11.6584001"><ele>100.8</ele><time>2026-04-12T07:58:43.312Z</time></trkpt><trkpt lat="45.7432305" lon="11.6584079"><ele>101.0</ele><time>2026-04-12T07:58:44.306Z</time></trkpt><trkpt lat="45.7431352" lon="11.658413"><ele>100.99999999999999</ele><time>2026-04-12T07:58:45.306Z</time></trkpt><trkpt lat="45.743045" lon="11.6584232"><ele>101.0</ele><time>2026-04-12T07:58:46.316Z</time></trkpt><trkpt lat="45.7429576" lon="11.6584291"><ele>101.0</ele><time>2026-04-12T07:58:47.306Z</time></trkpt><trkpt lat="45.7428736" lon="11.6584375"><ele>101.0</ele><time>2026-04-12T07:58:48.314Z</time></trkpt><trkpt lat="45.7427969" lon="11.6584416"><ele>100.99999999999999</ele><time>2026-04-12T07:58:49.316Z</time></trkpt><trkpt lat="45.7427219" lon="11.6584511"><ele>101.0</ele><time>2026-04-12T07:58:50.312Z</time></trkpt><trkpt lat="45.7426454" lon="11.6584572"><ele>100.49999999999999</ele><time>2026-04-12T07:58:51.308Z</time></trkpt><trkpt lat="45.7425712" lon="11.6584645"><ele>100.0</ele><time>2026-04-12T07:58:52.313Z</time></trkpt><trkpt lat="45.7424914" lon="11.6584671"><ele>99.5</ele><time>2026-04-12T07:58:53.31Z</time></trkpt><trkpt lat="45.742412" lon="11.6584682"><ele>99.0</ele><time>2026-04-12T07:58:54.312Z</time></trkpt><trkpt lat="45.7423328" lon="11.6584805"><ele>98.49999999999999</ele><time>2026-04-12T07:58:55.308Z</time></trkpt><trkpt lat="45.7422521" lon="11.6584774"><ele>98.0</ele><time>2026-04-12T07:58:56.317Z</time></trkpt><trkpt lat="45.7421783" lon="11.6584817"><ele>97.99999999999999</ele><time>2026-04-12T07:58:57.307Z</time></trkpt><trkpt lat="45.7420694" lon="11.6584944"><ele>98.0</ele><time>2026-04-12T07:58:59.303Z</time></trkpt><trkpt lat="45.7420062" lon="11.658507"><ele>98.0</ele><time>2026-04-12T07:59:05.307Z</time></trkpt><trkpt lat="45.741914" lon="11.6585305"><ele>98.0</ele><time>2026-04-12T07:59:08.313Z</time></trkpt><trkpt lat="45.7418203" lon="11.6585579"><ele>97.99999999999999</ele><time>2026-04-12T07:59:10.311Z</time></trkpt><trkpt lat="45.7417368" lon="11.6585893"><ele>98.0</ele><time>2026-04-12T07:59:12.314Z</time></trkpt><trkpt lat="45.7416491" lon="11.6586266"><ele>97.99999999999999</ele><time>2026-04-12T07:59:14.308Z</time></trkpt><trkpt lat="45.741574" lon="11.65867"><ele>98.0</ele><time>2026-04-12T07:59:16.311Z</time></trkpt><trkpt lat="45.7414894" lon="11.6586947"><ele>98.0</ele><time>2026-04-12T07:59:18.31Z</time></trkpt><trkpt lat="45.741388" lon="11.6586906"><ele>98.0</ele><time>2026-04-12T07:59:20.305Z</time></trkpt><trkpt lat="45.7413243" lon="11.6586527"><ele>97.99999999999999</ele><time>2026-04-12T07:59:21.314Z</time></trkpt><trkpt lat="45.7412515" lon="11.6586231"><ele>98.0</ele><time>2026-04-12T07:59:22.309Z</time></trkpt><trkpt lat="45.741178" lon="11.6586231"><ele>97.99999999999999</ele><time>2026-04-12T07:59:23.308Z</time></trkpt><trkpt lat="45.7411137" lon="11.658669"><ele>98.0</ele><time>2026-04-12T07:59:24.305Z</time></trkpt><trkpt lat="45.741059" lon="11.6587564"><ele>98.0</ele><time>2026-04-12T07:59:25.317Z</time></trkpt><trkpt lat="45.7410359" lon="11.6588782"><ele>98.0</ele><time>2026-04-12T07:59:26.294Z</time></trkpt><trkpt lat="45.741009" lon="11.659005"><ele>97.99999999999999</ele><time>2026-04-12T07:59:27.315Z</time></trkpt><trkpt lat="45.7409651" lon="11.6591283"><ele>98.0</ele><time>2026-04-12T07:59:28.297Z</time></trkpt><trkpt lat="45.7409084" lon="11.6592286"><ele>98.0</ele><time>2026-04-12T07:59:29.314Z</time></trkpt><trkpt lat="45.7408252" lon="11.6592885"><ele>98.0</ele><time>2026-04-12T07:59:30.312Z</time></trkpt><trkpt lat="45.7407354" lon="11.659323"><ele>98.0</ele><time>2026-04-12T07:59:31.301Z</time></trkpt><trkpt lat="45.740637" lon="11.6593345"><ele>98.0</ele><time>2026-04-12T07:59:32.299Z</time></trkpt><trkpt lat="45.740547" lon="11.6593421"><ele>98.0</ele><time>2026-04-12T07:59:33.306Z</time></trkpt><trkpt lat="45.7404637" lon="11.6593524"><ele>97.99999999999999</ele><time>2026-04-12T07:59:34.31Z</time></trkpt><trkpt lat="45.7403792" lon="11.65937"><ele>98.0</ele><time>2026-04-12T07:59:35.326Z</time></trkpt><trkpt lat="45.7402938" lon="11.6593871"><ele>98.0</ele><time>2026-04-12T07:59:36.306Z</time></trkpt><trkpt lat="45.7402059" lon="11.6594056"><ele>98.0</ele><time>2026-04-12T07:59:37.318Z</time></trkpt><trkpt lat="45.7401206" lon="11.6594269"><ele>97.99999999999999</ele><time>2026-04-12T07:59:38.307Z</time></trkpt><trkpt lat="45.7400333" lon="11.6594453"><ele>98.0</ele><time>2026-04-12T07:59:39.313Z</time></trkpt><trkpt lat="45.7399466" lon="11.6594663"><ele>97.83333333333333</ele><time>2026-04-12T07:59:40.305Z</time></trkpt><trkpt lat="45.7398644" lon="11.6594879"><ele>97.66666666666666</ele><time>2026-04-12T07:59:41.314Z</time></trkpt><trkpt lat="45.7397821" lon="11.6595107"><ele>97.5</ele><time>2026-04-12T07:59:42.308Z</time></trkpt><trkpt lat="45.7396972" lon="11.6595349"><ele>97.33333333333334</ele><time>2026-04-12T07:59:43.313Z</time></trkpt><trkpt lat="45.7396051" lon="11.6595575"><ele>97.16666666666667</ele><time>2026-04-12T07:59:44.313Z</time></trkpt><trkpt lat="45.7395137" lon="11.6595791"><ele>97.0</ele><time>2026-04-12T07:59:45.307Z</time></trkpt><trkpt lat="45.7394185" lon="11.6596057"><ele>96.39999999999999</ele><time>2026-04-12T07:59:46.313Z</time></trkpt><trkpt lat="45.7393201" lon="11.6596306"><ele>95.8</ele><time>2026-04-12T07:59:47.31Z</time></trkpt><trkpt lat="45.7392189" lon="11.6596551"><ele>95.2</ele><time>2026-04-12T07:59:48.316Z</time></trkpt><trkpt lat="45.7391118" lon="11.6596849"><ele>94.6</ele><time>2026-04-12T07:59:49.314Z</time></trkpt><trkpt lat="45.7390023" lon="11.6597171"><ele>94.0</ele><time>2026-04-12T07:59:50.314Z</time></trkpt><trkpt lat="45.738891" lon="11.6597488"><ele>94.0</ele><time>2026-04-12T07:59:51.308Z</time></trkpt><trkpt lat="45.7387811" lon="11.6597719"><ele>94.0</ele><time>2026-04-12T07:59:52.314Z</time></trkpt><trkpt lat="45.7386684" lon="11.6597966"><ele>94.0</ele><time>2026-04-12T07:59:53.307Z</time></trkpt><trkpt lat="45.7385523" lon="11.659827"><ele>94.0</ele><time>2026-04-12T07:59:54.319Z</time></trkpt><trkpt lat="45.7384368" lon="11.6598548"><ele>93.80000000000001</ele><time>2026-04-12T07:59:55.307Z</time></trkpt><trkpt lat="45.7383275" lon="11.6598848"><ele>93.60000000000001</ele><time>2026-04-12T07:59:56.314Z</time></trkpt><trkpt lat="45.7382203" lon="11.6599092"><ele>93.4</ele><time>2026-04-12T07:59:57.311Z</time></trkpt><trkpt lat="45.7381165" lon="11.6599385"><ele>93.2</ele><time>2026-04-12T07:59:58.311Z</time></trkpt><trkpt lat="45.7380156" lon="11.6599592"><ele>93.0</ele><time>2026-04-12T07:59:59.311Z</time></trkpt><trkpt lat="45.7379142" lon="11.6599812"><ele>93.0</ele><time>2026-04-12T08:00:00.328Z</time></trkpt><trkpt lat="45.7378127" lon="11.6600097"><ele>93.0</ele><time>2026-04-12T08:00:01.305Z</time></trkpt><trkpt lat="45.737707" lon="11.6600408"><ele>93.0</ele><time>2026-04-12T08:00:02.316Z</time></trkpt><trkpt lat="45.7376031" lon="11.6600689"><ele>93.0</ele><time>2026-04-12T08:00:03.316Z</time></trkpt><trkpt lat="45.737507" lon="11.6601007"><ele>93.0</ele><time>2026-04-12T08:00:04.311Z</time></trkpt><trkpt lat="45.7374129" lon="11.6601244"><ele>93.2</ele><time>2026-04-12T08:00:05.32Z</time></trkpt><trkpt lat="45.7373251" lon="11.6601479"><ele>93.4</ele><time>2026-04-12T08:00:06.326Z</time></trkpt><trkpt lat="45.7372363" lon="11.6601741"><ele>93.60000000000001</ele><time>2026-04-12T08:00:07.311Z</time></trkpt><trkpt lat="45.7371465" lon="11.6602017"><ele>93.80000000000001</ele><time>2026-04-12T08:00:08.317Z</time></trkpt><trkpt lat="45.7370503" lon="11.6602368"><ele>94.0</ele><time>2026-04-12T08:00:09.302Z</time></trkpt><trkpt lat="45.7369517" lon="11.660278"><ele>93.80000000000001</ele><time>2026-04-12T08:00:10.327Z</time></trkpt><trkpt lat="45.7368532" lon="11.6603185"><ele>93.60000000000001</ele><time>2026-04-12T08:00:11.311Z</time></trkpt><trkpt lat="45.7367584" lon="11.6603673"><ele>93.4</ele><time>2026-04-12T08:00:12.312Z</time></trkpt><trkpt lat="45.7366646" lon="11.6604122"><ele>93.2</ele><time>2026-04-12T08:00:13.302Z</time></trkpt><trkpt lat="45.7365712" lon="11.6604559"><ele>93.0</ele><time>2026-04-12T08:00:14.31Z</time></trkpt><trkpt lat="45.7364775" lon="11.6605131"><ele>93.0</ele><time>2026-04-12T08:00:15.302Z</time></trkpt><trkpt lat="45.7363822" lon="11.6605703"><ele>93.0</ele><time>2026-04-12T08:00:16.32Z</time></trkpt><trkpt lat="45.7362902" lon="11.6606286"><ele>93.0</ele><time>2026-04-12T08:00:17.307Z</time></trkpt><trkpt lat="45.7361956" lon="11.6606901"><ele>93.0</ele><time>2026-04-12T08:00:18.32Z</time></trkpt><trkpt lat="45.7361006" lon="11.6607516"><ele>93.0</ele><time>2026-04-12T08:00:19.311Z</time></trkpt><trkpt lat="45.7360091" lon="11.6608122"><ele>92.80000000000001</ele><time>2026-04-12T08:00:20.32Z</time></trkpt><trkpt lat="45.7359132" lon="11.6608699"><ele>92.6</ele><time>2026-04-12T08:00:21.316Z</time></trkpt><trkpt lat="45.7358199" lon="11.6609244"><ele>92.4</ele><time>2026-04-12T08:00:22.314Z</time></trkpt><trkpt lat="45.7357199" lon="11.6609814"><ele>92.19999999999999</ele><time>2026-04-12T08:00:23.32Z</time></trkpt><trkpt lat="45.7356203" lon="11.661041"><ele>92.0</ele><time>2026-04-12T08:00:24.32Z</time></trkpt><trkpt lat="45.7355207" lon="11.6611019"><ele>92.0</ele><time>2026-04-12T08:00:25.323Z</time></trkpt><trkpt lat="45.7354216" lon="11.6611703"><ele>92.0</ele><time>2026-04-12T08:00:26.316Z</time></trkpt><trkpt lat="45.7353188" lon="11.6612314"><ele>92.0</ele><time>2026-04-12T08:00:27.325Z</time></trkpt><trkpt lat="45.7352158" lon="11.6612937"><ele>92.0</ele><time>2026-04-12T08:00:28.315Z</time></trkpt><trkpt lat="45.7351169" lon="11.6613544"><ele>92.0</ele><time>2026-04-12T08:00:29.327Z</time></trkpt><trkpt lat="45.7350206" lon="11.6614115"><ele>92.0</ele><time>2026-04-12T08:00:30.327Z</time></trkpt><trkpt lat="45.7349265" lon="11.6614726"><ele>92.0</ele><time>2026-04-12T08:00:31.326Z</time></trkpt><trkpt lat="45.7348297" lon="11.6615352"><ele>92.0</ele><time>2026-04-12T08:00:32.314Z</time></trkpt><trkpt lat="45.7347306" lon="11.6616039"><ele>92.0</ele><time>2026-04-12T08:00:33.32Z</time></trkpt><trkpt lat="45.7346266" lon="11.6616764"><ele>92.0</ele><time>2026-04-12T08:00:34.312Z</time></trkpt><trkpt lat="45.7345127" lon="11.661753"><ele>92.0</ele><time>2026-04-12T08:00:35.321Z</time></trkpt><trkpt lat="45.7343895" lon="11.6618338"><ele>92.0</ele><time>2026-04-12T08:00:36.322Z</time></trkpt><trkpt lat="45.7342654" lon="11.6619094"><ele>92.0</ele><time>2026-04-12T08:00:37.331Z</time></trkpt><trkpt lat="45.7341441" lon="11.6619836"><ele>92.0</ele><time>2026-04-12T08:00:38.319Z</time></trkpt><trkpt lat="45.7340166" lon="11.6620554"><ele>92.0</ele><time>2026-04-12T08:00:39.333Z</time></trkpt><trkpt lat="45.7338937" lon="11.6621242"><ele>92.0</ele><time>2026-04-12T08:00:40.318Z</time></trkpt><trkpt lat="45.7337661" lon="11.662195"><ele>92.0</ele><time>2026-04-12T08:00:41.324Z</time></trkpt><trkpt lat="45.7336456" lon="11.6622679"><ele>92.0</ele><time>2026-04-12T08:00:42.324Z</time></trkpt><trkpt lat="45.7335307" lon="11.6623365"><ele>91.75</ele><time>2026-04-12T08:00:43.327Z</time></trkpt><trkpt lat="45.7334214" lon="11.6624057"><ele>91.5</ele><time>2026-04-12T08:00:44.323Z</time></trkpt><trkpt lat="45.7333176" lon="11.6624736"><ele>91.25</ele><time>2026-04-12T08:00:45.325Z</time></trkpt><trkpt lat="45.7332129" lon="11.6625367"><ele>91.0</ele><time>2026-04-12T08:00:46.315Z</time></trkpt><trkpt lat="45.7331063" lon="11.6626034"><ele>91.0</ele><time>2026-04-12T08:00:47.327Z</time></trkpt><trkpt lat="45.7329965" lon="11.6626663"><ele>91.0</ele><time>2026-04-12T08:00:48.317Z</time></trkpt><trkpt lat="45.7328862" lon="11.6627305"><ele>91.0</ele><time>2026-04-12T08:00:49.325Z</time></trkpt><trkpt lat="45.7327759" lon="11.6627925"><ele>91.0</ele><time>2026-04-12T08:00:50.321Z</time></trkpt><trkpt lat="45.7326646" lon="11.6628525"><ele>90.25</ele><time>2026-04-12T08:00:51.324Z</time></trkpt><trkpt lat="45.7325559" lon="11.6629144"><ele>89.5</ele><time>2026-04-12T08:00:52.314Z</time></trkpt><trkpt lat="45.7324489" lon="11.6629853"><ele>88.75</ele><time>2026-04-12T08:00:53.326Z</time></trkpt><trkpt lat="45.7323451" lon="11.6630531"><ele>88.0</ele><time>2026-04-12T08:00:54.315Z</time></trkpt><trkpt lat="45.7322342" lon="11.6631181"><ele>88.0</ele><time>2026-04-12T08:00:55.325Z</time></trkpt><trkpt lat="45.7321213" lon="11.6631823"><ele>88.0</ele><time>2026-04-12T08:00:56.322Z</time></trkpt><trkpt lat="45.7320045" lon="11.6632419"><ele>88.0</ele><time>2026-04-12T08:00:57.313Z</time></trkpt><trkpt lat="45.7318888" lon="11.6633029"><ele>88.0</ele><time>2026-04-12T08:00:58.314Z</time></trkpt><trkpt lat="45.7317685" lon="11.6633653"><ele>87.5</ele><time>2026-04-12T08:00:59.317Z</time></trkpt><trkpt lat="45.7316482" lon="11.6634276"><ele>87.0</ele><time>2026-04-12T08:01:00.318Z</time></trkpt><trkpt lat="45.731531" lon="11.6634977"><ele>86.5</ele><time>2026-04-12T08:01:01.313Z</time></trkpt><trkpt lat="45.7314118" lon="11.6635674"><ele>86.0</ele><time>2026-04-12T08:01:02.321Z</time></trkpt><trkpt lat="45.7312949" lon="11.6636294"><ele>86.0</ele><time>2026-04-12T08:01:03.313Z</time></trkpt><trkpt lat="45.7311789" lon="11.6636895"><ele>86.0</ele><time>2026-04-12T08:01:04.319Z</time></trkpt><trkpt lat="45.7310618" lon="11.6637499"><ele>86.0</ele><time>2026-04-12T08:01:05.318Z</time></trkpt><trkpt lat="45.7309462" lon="11.6638128"><ele>86.0</ele><time>2026-04-12T08:01:06.323Z</time></trkpt><trkpt lat="45.7308313" lon="11.6638747"><ele>86.5</ele><time>2026-04-12T08:01:07.322Z</time></trkpt><trkpt lat="45.7307238" lon="11.6639356"><ele>87.0</ele><time>2026-04-12T08:01:08.336Z</time></trkpt><trkpt lat="45.7306137" lon="11.6639981"><ele>87.5</ele><time>2026-04-12T08:01:09.313Z</time></trkpt><trkpt lat="45.7305032" lon="11.664054"><ele>88.0</ele><time>2026-04-12T08:01:10.322Z</time></trkpt><trkpt lat="45.7303921" lon="11.6641155"><ele>88.0</ele><time>2026-04-12T08:01:11.315Z</time></trkpt><trkpt lat="45.7302834" lon="11.6641737"><ele>88.0</ele><time>2026-04-12T08:01:12.32Z</time></trkpt><trkpt lat="45.730181" lon="11.6642287"><ele>88.0</ele><time>2026-04-12T08:01:13.314Z</time></trkpt><trkpt lat="45.7300842" lon="11.6642796"><ele>88.0</ele><time>2026-04-12T08:01:14.326Z</time></trkpt><trkpt lat="45.7299956" lon="11.6643235"><ele>88.0</ele><time>2026-04-12T08:01:15.309Z</time></trkpt><trkpt lat="45.7299144" lon="11.6643661"><ele>88.0</ele><time>2026-04-12T08:01:16.319Z</time></trkpt><trkpt lat="45.7298437" lon="11.6644226"><ele>88.0</ele><time>2026-04-12T08:01:17.32Z</time></trkpt><trkpt lat="45.7297773" lon="11.6645028"><ele>88.0</ele><time>2026-04-12T08:01:18.322Z</time></trkpt><trkpt lat="45.7297231" lon="11.6646059"><ele>88.0</ele><time>2026-04-12T08:01:19.316Z</time></trkpt><trkpt lat="45.7296776" lon="11.664712"><ele>88.0</ele><time>2026-04-12T08:01:20.324Z</time></trkpt><trkpt lat="45.7296404" lon="11.6648133"><ele>88.0</ele><time>2026-04-12T08:01:21.316Z</time></trkpt><trkpt lat="45.7296059" lon="11.6649091"><ele>88.0</ele><time>2026-04-12T08:01:22.323Z</time></trkpt><trkpt lat="45.7295741" lon="11.6649871"><ele>88.0</ele><time>2026-04-12T08:01:23.319Z</time></trkpt><trkpt lat="45.729512" lon="11.6651152"><ele>88.0</ele><time>2026-04-12T08:01:25.327Z</time></trkpt><trkpt lat="45.7294616" lon="11.6652021"><ele>88.0</ele><time>2026-04-12T08:01:27.325Z</time></trkpt><trkpt lat="45.7294148" lon="11.6652952"><ele>88.0</ele><time>2026-04-12T08:01:30.331Z</time></trkpt><trkpt lat="45.729347" lon="11.6653767"><ele>88.0</ele><time>2026-04-12T08:01:34.326Z</time></trkpt><trkpt lat="45.729236" lon="11.6654465"><ele>87.60000000000001</ele><time>2026-04-12T08:01:36.316Z</time></trkpt><trkpt lat="45.7291695" lon="11.6654774"><ele>87.2</ele><time>2026-04-12T08:01:37.313Z</time></trkpt><trkpt lat="45.7290715" lon="11.6655827"><ele>86.8</ele><time>2026-04-12T08:01:39.331Z</time></trkpt><trkpt lat="45.7290144" lon="11.6657339"><ele>86.4</ele><time>2026-04-12T08:01:41.307Z</time></trkpt><trkpt lat="45.729005" lon="11.6658244"><ele>86.0</ele><time>2026-04-12T08:01:42.317Z</time></trkpt><trkpt lat="45.7290019" lon="11.6659294"><ele>86.0</ele><time>2026-04-12T08:01:43.316Z</time></trkpt><trkpt lat="45.7289935" lon="11.6660455"><ele>86.0</ele><time>2026-04-12T08:01:44.318Z</time></trkpt><trkpt lat="45.7289632" lon="11.6661736"><ele>86.0</ele><time>2026-04-12T08:01:45.328Z</time></trkpt><trkpt lat="45.7289108" lon="11.6663079"><ele>86.0</ele><time>2026-04-12T08:01:46.312Z</time></trkpt><trkpt lat="45.7288497" lon="11.666456"><ele>86.0</ele><time>2026-04-12T08:01:47.328Z</time></trkpt><trkpt lat="45.7287904" lon="11.6666266"><ele>86.0</ele><time>2026-04-12T08:01:48.322Z</time></trkpt><trkpt lat="45.7287292" lon="11.6668116"><ele>86.0</ele><time>2026-04-12T08:01:49.327Z</time></trkpt><trkpt lat="45.7286703" lon="11.6670099"><ele>86.0</ele><time>2026-04-12T08:01:50.319Z</time></trkpt><trkpt lat="45.7286128" lon="11.6672163"><ele>86.0</ele><time>2026-04-12T08:01:51.331Z</time></trkpt><trkpt lat="45.7285486" lon="11.6674124"><ele>86.0</ele><time>2026-04-12T08:01:52.32Z</time></trkpt><trkpt lat="45.728489" lon="11.6676216"><ele>86.0</ele><time>2026-04-12T08:01:53.328Z</time></trkpt><trkpt lat="45.7284288" lon="11.6678351"><ele>86.0</ele><time>2026-04-12T08:01:54.323Z</time></trkpt><trkpt lat="45.7283639" lon="11.6680555"><ele>86.0</ele><time>2026-04-12T08:01:55.322Z</time></trkpt><trkpt lat="45.7283078" lon="11.6682868"><ele>86.0</ele><time>2026-04-12T08:01:56.317Z</time></trkpt><trkpt lat="45.7282491" lon="11.6685198"><ele>86.0</ele><time>2026-04-12T08:01:57.32Z</time></trkpt><trkpt lat="45.7282089" lon="11.6687453"><ele>85.66666666666667</ele><time>2026-04-12T08:01:58.321Z</time></trkpt><trkpt lat="45.7281789" lon="11.6689924"><ele>85.33333333333333</ele><time>2026-04-12T08:01:59.32Z</time></trkpt><trkpt lat="45.7281523" lon="11.6692344"><ele>85.0</ele><time>2026-04-12T08:02:00.335Z</time></trkpt><trkpt lat="45.7281285" lon="11.6694819"><ele>84.66666666666666</ele><time>2026-04-12T08:02:01.309Z</time></trkpt><trkpt lat="45.7281166" lon="11.6697288"><ele>84.33333333333333</ele><time>2026-04-12T08:02:02.33Z</time></trkpt><trkpt lat="45.7280865" lon="11.6699556"><ele>84.0</ele><time>2026-04-12T08:02:03.316Z</time></trkpt><trkpt lat="45.7280638" lon="11.6701766"><ele>84.33333333333333</ele><time>2026-04-12T08:02:04.328Z</time></trkpt><trkpt lat="45.7280366" lon="11.6704081"><ele>84.66666666666666</ele><time>2026-04-12T08:02:05.316Z</time></trkpt><trkpt lat="45.7280092" lon="11.6706431"><ele>85.0</ele><time>2026-04-12T08:02:06.323Z</time></trkpt><trkpt lat="45.7279792" lon="11.670877"><ele>85.33333333333333</ele><time>2026-04-12T08:02:07.319Z</time></trkpt><trkpt lat="45.727959" lon="11.6711132"><ele>85.66666666666667</ele><time>2026-04-12T08:02:08.322Z</time></trkpt><trkpt lat="45.7279317" lon="11.6713495"><ele>86.0</ele><time>2026-04-12T08:02:09.314Z</time></trkpt><trkpt lat="45.7278957" lon="11.671589"><ele>86.0</ele><time>2026-04-12T08:02:10.335Z</time></trkpt><trkpt lat="45.7278519" lon="11.6718164"><ele>86.0</ele><time>2026-04-12T08:02:11.316Z</time></trkpt><trkpt lat="45.7277947" lon="11.6720299"><ele>86.0</ele><time>2026-04-12T08:02:12.324Z</time></trkpt><trkpt lat="45.7277014" lon="11.6722222"><ele>85.66666666666667</ele><time>2026-04-12T08:02:13.313Z</time></trkpt><trkpt lat="45.7275977" lon="11.6724113"><ele>85.33333333333333</ele><time>2026-04-12T08:02:14.312Z</time></trkpt><trkpt lat="45.7274816" lon="11.6725973"><ele>85.0</ele><time>2026-04-12T08:02:15.31Z</time></trkpt><trkpt lat="45.7273611" lon="11.67278"><ele>85.66666666666666</ele><time>2026-04-12T08:02:16.32Z</time></trkpt><trkpt lat="45.7272421" lon="11.6729654"><ele>86.33333333333333</ele><time>2026-04-12T08:02:17.312Z</time></trkpt><trkpt lat="45.7271187" lon="11.6731266"><ele>87.0</ele><time>2026-04-12T08:02:18.33Z</time></trkpt><trkpt lat="45.7269991" lon="11.6732943"><ele>87.0</ele><time>2026-04-12T08:02:19.329Z</time></trkpt><trkpt lat="45.7268822" lon="11.6734628"><ele>87.0</ele><time>2026-04-12T08:02:20.325Z</time></trkpt><trkpt lat="45.7267754" lon="11.6736302"><ele>87.0</ele><time>2026-04-12T08:02:21.321Z</time></trkpt><trkpt lat="45.7266742" lon="11.6738057"><ele>87.0</ele><time>2026-04-12T08:02:22.325Z</time></trkpt><trkpt lat="45.7265831" lon="11.6739625"><ele>87.0</ele><time>2026-04-12T08:02:23.314Z</time></trkpt><trkpt lat="45.7265014" lon="11.6740987"><ele>87.0</ele><time>2026-04-12T08:02:24.321Z</time></trkpt><trkpt lat="45.7264321" lon="11.6742351"><ele>87.0</ele><time>2026-04-12T08:02:25.322Z</time></trkpt><trkpt lat="45.7263722" lon="11.6743656"><ele>87.0</ele><time>2026-04-12T08:02:26.322Z</time></trkpt><trkpt lat="45.7263088" lon="11.674477"><ele>87.0</ele><time>2026-04-12T08:02:27.315Z</time></trkpt><trkpt lat="45.7262603" lon="11.6745979"><ele>87.0</ele><time>2026-04-12T08:02:28.327Z</time></trkpt><trkpt lat="45.726207" lon="11.6747261"><ele>87.0</ele><time>2026-04-12T08:02:29.308Z</time></trkpt><trkpt lat="45.7261441" lon="11.6748863"><ele>87.0</ele><time>2026-04-12T08:02:30.323Z</time></trkpt><trkpt lat="45.7260714" lon="11.6750771"><ele>86.0</ele><time>2026-04-12T08:02:31.318Z</time></trkpt><trkpt lat="45.7259946" lon="11.6753299"><ele>85.0</ele><time>2026-04-12T08:02:32.321Z</time></trkpt><trkpt lat="45.7259311" lon="11.6755869"><ele>84.0</ele><time>2026-04-12T08:02:33.308Z</time></trkpt><trkpt lat="45.725873" lon="11.6758392"><ele>84.0</ele><time>2026-04-12T08:02:34.321Z</time></trkpt><trkpt lat="45.7258281" lon="11.6760651"><ele>84.0</ele><time>2026-04-12T08:02:35.308Z</time></trkpt><trkpt lat="45.7258109" lon="11.6762765"><ele>84.0</ele><time>2026-04-12T08:02:36.313Z</time></trkpt><trkpt lat="45.7258061" lon="11.6764838"><ele>84.25</ele><time>2026-04-12T08:02:37.302Z</time></trkpt><trkpt lat="45.7258098" lon="11.6766824"><ele>84.5</ele><time>2026-04-12T08:02:38.307Z</time></trkpt><trkpt lat="45.7258168" lon="11.6768704"><ele>84.75</ele><time>2026-04-12T08:02:39.298Z</time></trkpt><trkpt lat="45.7258308" lon="11.6770523"><ele>85.0</ele><time>2026-04-12T08:02:40.313Z</time></trkpt><trkpt lat="45.7258394" lon="11.6772202"><ele>85.2</ele><time>2026-04-12T08:02:41.324Z</time></trkpt><trkpt lat="45.7258423" lon="11.6773769"><ele>85.4</ele><time>2026-04-12T08:02:42.311Z</time></trkpt><trkpt lat="45.7258432" lon="11.677529"><ele>85.6</ele><time>2026-04-12T08:02:43.32Z</time></trkpt><trkpt lat="45.7258453" lon="11.677669"><ele>85.8</ele><time>2026-04-12T08:02:44.315Z</time></trkpt><trkpt lat="45.7258473" lon="11.6778045"><ele>86.0</ele><time>2026-04-12T08:02:45.319Z</time></trkpt><trkpt lat="45.7258689" lon="11.6779346"><ele>86.0</ele><time>2026-04-12T08:02:46.311Z</time></trkpt><trkpt lat="45.7258714" lon="11.6780626"><ele>86.0</ele><time>2026-04-12T08:02:47.32Z</time></trkpt><trkpt lat="45.7258735" lon="11.6781869"><ele>86.0</ele><time>2026-04-12T08:02:48.316Z</time></trkpt><trkpt lat="45.7258778" lon="11.6783157"><ele>86.0</ele><time>2026-04-12T08:02:49.322Z</time></trkpt><trkpt lat="45.72588" lon="11.6784362"><ele>86.0</ele><time>2026-04-12T08:02:50.315Z</time></trkpt><trkpt lat="45.7258772" lon="11.6785454"><ele>86.0</ele><time>2026-04-12T08:02:51.326Z</time></trkpt><trkpt lat="45.7258754" lon="11.678647"><ele>85.5</ele><time>2026-04-12T08:02:52.314Z</time></trkpt><trkpt lat="45.7258766" lon="11.6787417"><ele>85.0</ele><time>2026-04-12T08:02:53.321Z</time></trkpt><trkpt lat="45.7258784" lon="11.6788344"><ele>84.5</ele><time>2026-04-12T08:02:54.316Z</time></trkpt><trkpt lat="45.7258801" lon="11.6789305"><ele>84.0</ele><time>2026-04-12T08:02:55.323Z</time></trkpt><trkpt lat="45.7258604" lon="11.6790965"><ele>83.5</ele><time>2026-04-12T08:02:57.32Z</time></trkpt><trkpt lat="45.72583" lon="11.6792241"><ele>83.0</ele><time>2026-04-12T08:02:59.319Z</time></trkpt><trkpt lat="45.7257836" lon="11.6792899"><ele>83.0</ele><time>2026-04-12T08:03:17.329Z</time></trkpt><trkpt lat="45.7257386" lon="11.6793743"><ele>83.0</ele><time>2026-04-12T08:03:20.321Z</time></trkpt><trkpt lat="45.7256743" lon="11.6794799"><ele>83.0</ele><time>2026-04-12T08:03:22.318Z</time></trkpt><trkpt lat="45.7256141" lon="11.6796127"><ele>83.0</ele><time>2026-04-12T08:03:24.308Z</time></trkpt><trkpt lat="45.7255395" lon="11.6797516"><ele>83.0</ele><time>2026-04-12T08:03:26.306Z</time></trkpt><trkpt lat="45.7254951" lon="11.679829"><ele>83.16666666666667</ele><time>2026-04-12T08:03:27.31Z</time></trkpt><trkpt lat="45.7254546" lon="11.6799177"><ele>83.33333333333334</ele><time>2026-04-12T08:03:28.314Z</time></trkpt><trkpt lat="45.7254196" lon="11.680006"><ele>83.5</ele><time>2026-04-12T08:03:29.313Z</time></trkpt><trkpt lat="45.7253969" lon="11.680115"><ele>83.66666666666667</ele><time>2026-04-12T08:03:30.319Z</time></trkpt><trkpt lat="45.7253784" lon="11.6802199"><ele>83.83333333333333</ele><time>2026-04-12T08:03:31.312Z</time></trkpt><trkpt lat="45.7253632" lon="11.680313"><ele>84.0</ele><time>2026-04-12T08:03:32.319Z</time></trkpt><trkpt lat="45.7253476" lon="11.6804784"><ele>83.83333333333333</ele><time>2026-04-12T08:03:34.307Z</time></trkpt><trkpt lat="45.7253259" lon="11.680642"><ele>83.66666666666667</ele><time>2026-04-12T08:03:36.309Z</time></trkpt><trkpt lat="45.7253146" lon="11.680738"><ele>83.5</ele><time>2026-04-12T08:03:37.304Z</time></trkpt><trkpt lat="45.7253093" lon="11.6808321"><ele>83.33333333333334</ele><time>2026-04-12T08:03:38.317Z</time></trkpt><trkpt lat="45.7252874" lon="11.6809212"><ele>83.16666666666667</ele><time>2026-04-12T08:03:39.299Z</time></trkpt><trkpt lat="45.7252576" lon="11.6810788"><ele>83.0</ele><time>2026-04-12T08:03:41.297Z</time></trkpt><trkpt lat="45.7252399" lon="11.6811692"><ele>83.0</ele><time>2026-04-12T08:03:42.303Z</time></trkpt><trkpt lat="45.7252183" lon="11.6812771"><ele>83.0</ele><time>2026-04-12T08:03:43.326Z</time></trkpt><trkpt lat="45.7251871" lon="11.6814362"><ele>83.0</ele><time>2026-04-12T08:03:44.307Z</time></trkpt><trkpt lat="45.7251416" lon="11.6816512"><ele>83.0</ele><time>2026-04-12T08:03:45.314Z</time></trkpt><trkpt lat="45.7251117" lon="11.6819052"><ele>83.0</ele><time>2026-04-12T08:03:46.301Z</time></trkpt><trkpt lat="45.7250792" lon="11.6821423"><ele>83.0</ele><time>2026-04-12T08:03:47.308Z</time></trkpt><trkpt lat="45.7250388" lon="11.6823671"><ele>83.0</ele><time>2026-04-12T08:03:48.308Z</time></trkpt><trkpt lat="45.72501" lon="11.6825913"><ele>83.66666666666667</ele><time>2026-04-12T08:03:49.31Z</time></trkpt><trkpt lat="45.7249721" lon="11.682808"><ele>84.33333333333333</ele><time>2026-04-12T08:03:50.312Z</time></trkpt><trkpt lat="45.7249416" lon="11.6830149"><ele>85.0</ele><time>2026-04-12T08:03:51.304Z</time></trkpt><trkpt lat="45.7249086" lon="11.6832294"><ele>85.0</ele><time>2026-04-12T08:03:52.313Z</time></trkpt><trkpt lat="45.7248765" lon="11.6834267"><ele>85.0</ele><time>2026-04-12T08:03:53.308Z</time></trkpt><trkpt lat="45.7248451" lon="11.6836155"><ele>85.0</ele><time>2026-04-12T08:03:54.313Z</time></trkpt><trkpt lat="45.7248206" lon="11.6838102"><ele>85.0</ele><time>2026-04-12T08:03:55.309Z</time></trkpt><trkpt lat="45.724782" lon="11.6839924"><ele>84.5</ele><time>2026-04-12T08:03:56.307Z</time></trkpt><trkpt lat="45.7247477" lon="11.6841662"><ele>84.0</ele><time>2026-04-12T08:03:57.303Z</time></trkpt><trkpt lat="45.7247154" lon="11.6843469"><ele>83.5</ele><time>2026-04-12T08:03:58.314Z</time></trkpt><trkpt lat="45.7246837" lon="11.6845315"><ele>83.0</ele><time>2026-04-12T08:03:59.305Z</time></trkpt><trkpt lat="45.7246557" lon="11.6847146"><ele>82.75</ele><time>2026-04-12T08:04:00.322Z</time></trkpt><trkpt lat="45.7246244" lon="11.684888"><ele>82.5</ele><time>2026-04-12T08:04:01.311Z</time></trkpt><trkpt lat="45.7246038" lon="11.685066"><ele>82.25</ele><time>2026-04-12T08:04:02.319Z</time></trkpt><trkpt lat="45.7245811" lon="11.6852462"><ele>82.0</ele><time>2026-04-12T08:04:03.308Z</time></trkpt><trkpt lat="45.7245591" lon="11.6854234"><ele>82.0</ele><time>2026-04-12T08:04:04.313Z</time></trkpt><trkpt lat="45.7245343" lon="11.6855962"><ele>82.0</ele><time>2026-04-12T08:04:05.317Z</time></trkpt><trkpt lat="45.7245046" lon="11.6857693"><ele>82.0</ele><time>2026-04-12T08:04:06.318Z</time></trkpt><trkpt lat="45.7244705" lon="11.6859472"><ele>82.0</ele><time>2026-04-12T08:04:07.32Z</time></trkpt><trkpt lat="45.7244294" lon="11.686127"><ele>81.75</ele><time>2026-04-12T08:04:08.318Z</time></trkpt><trkpt lat="45.7243811" lon="11.6863044"><ele>81.5</ele><time>2026-04-12T08:04:09.318Z</time></trkpt><trkpt lat="45.7243313" lon="11.6864839"><ele>81.25</ele><time>2026-04-12T08:04:10.32Z</time></trkpt><trkpt lat="45.7242794" lon="11.686661"><ele>81.0</ele><time>2026-04-12T08:04:11.321Z</time></trkpt><trkpt lat="45.7242233" lon="11.6868402"><ele>81.25</ele><time>2026-04-12T08:04:12.326Z</time></trkpt><trkpt lat="45.7241735" lon="11.6870229"><ele>81.5</ele><time>2026-04-12T08:04:13.323Z</time></trkpt><trkpt lat="45.7241217" lon="11.6872007"><ele>81.75</ele><time>2026-04-12T08:04:14.341Z</time></trkpt><trkpt lat="45.7240707" lon="11.6873783"><ele>82.0</ele><time>2026-04-12T08:04:15.32Z</time></trkpt><trkpt lat="45.724021" lon="11.6875491"><ele>82.0</ele><time>2026-04-12T08:04:16.327Z</time></trkpt><trkpt lat="45.7239717" lon="11.6877159"><ele>82.0</ele><time>2026-04-12T08:04:17.318Z</time></trkpt><trkpt lat="45.7239155" lon="11.6878854"><ele>82.0</ele><time>2026-04-12T08:04:18.331Z</time></trkpt><trkpt lat="45.7238637" lon="11.6880489"><ele>82.0</ele><time>2026-04-12T08:04:19.317Z</time></trkpt><trkpt lat="45.7238162" lon="11.6882159"><ele>82.0</ele><time>2026-04-12T08:04:20.323Z</time></trkpt><trkpt lat="45.7237673" lon="11.6883805"><ele>82.0</ele><time>2026-04-12T08:04:21.314Z</time></trkpt><trkpt lat="45.7237237" lon="11.6885387"><ele>82.0</ele><time>2026-04-12T08:04:22.314Z</time></trkpt><trkpt lat="45.7236821" lon="11.6886826"><ele>82.0</ele><time>2026-04-12T08:04:23.313Z</time></trkpt><trkpt lat="45.7236474" lon="11.6888144"><ele>82.16666666666666</ele><time>2026-04-12T08:04:24.321Z</time></trkpt><trkpt lat="45.7236189" lon="11.6889211"><ele>82.33333333333333</ele><time>2026-04-12T08:04:25.318Z</time></trkpt><trkpt lat="45.7235891" lon="11.6890122"><ele>82.5</ele><time>2026-04-12T08:04:26.326Z</time></trkpt><trkpt lat="45.7235388" lon="11.6891322"><ele>82.66666666666667</ele><time>2026-04-12T08:04:28.319Z</time></trkpt><trkpt lat="45.7234888" lon="11.689059"><ele>82.83333333333334</ele><time>2026-04-12T08:06:07.325Z</time></trkpt><trkpt lat="45.723444" lon="11.6889809"><ele>83.0</ele><time>2026-04-12T08:06:13.309Z</time></trkpt><trkpt lat="45.7233744" lon="11.6889689"><ele>83.2</ele><time>2026-04-12T08:06:15.304Z</time></trkpt><trkpt lat="45.7232797" lon="11.6889543"><ele>83.4</ele><time>2026-04-12T08:06:17.319Z</time></trkpt><trkpt lat="45.7231866" lon="11.6889427"><ele>83.60000000000001</ele><time>2026-04-12T08:06:19.309Z</time></trkpt><trkpt lat="45.7230953" lon="11.6889307"><ele>83.80000000000001</ele><time>2026-04-12T08:06:21.314Z</time></trkpt><trkpt lat="45.7230107" lon="11.6889003"><ele>84.0</ele><time>2026-04-12T08:06:23.313Z</time></trkpt><trkpt lat="45.7229251" lon="11.6888525"><ele>84.0</ele><time>2026-04-12T08:06:25.305Z</time></trkpt><trkpt lat="45.7228226" lon="11.6888053"><ele>84.0</ele><time>2026-04-12T08:06:27.31Z</time></trkpt><trkpt lat="45.7227216" lon="11.6887619"><ele>84.0</ele><time>2026-04-12T08:06:29.309Z</time></trkpt><trkpt lat="45.7226063" lon="11.6887085"><ele>84.0</ele><time>2026-04-12T08:06:31.304Z</time></trkpt><trkpt lat="45.7225437" lon="11.6886773"><ele>84.0</ele><time>2026-04-12T08:06:32.313Z</time></trkpt><trkpt lat="45.7224786" lon="11.688646"><ele>83.71428571428571</ele><time>2026-04-12T08:06:33.302Z</time></trkpt><trkpt lat="45.7224119" lon="11.6886091"><ele>83.42857142857143</ele><time>2026-04-12T08:06:34.308Z</time></trkpt><trkpt lat="45.7223494" lon="11.6885823"><ele>83.14285714285714</ele><time>2026-04-12T08:06:35.302Z</time></trkpt><trkpt lat="45.7222828" lon="11.6885606"><ele>82.85714285714286</ele><time>2026-04-12T08:06:36.308Z</time></trkpt><trkpt lat="45.7222136" lon="11.6885487"><ele>82.57142857142857</ele><time>2026-04-12T08:06:37.296Z</time></trkpt><trkpt lat="45.7221485" lon="11.6885263"><ele>82.28571428571428</ele><time>2026-04-12T08:06:38.307Z</time></trkpt><trkpt lat="45.7220816" lon="11.6885031"><ele>82.0</ele><time>2026-04-12T08:06:39.302Z</time></trkpt><trkpt lat="45.7220136" lon="11.6884802"><ele>81.99999999999999</ele><time>2026-04-12T08:06:40.312Z</time></trkpt><trkpt lat="45.7219444" lon="11.688458"><ele>82.0</ele><time>2026-04-12T08:06:41.307Z</time></trkpt><trkpt lat="45.7218714" lon="11.6884286"><ele>82.0</ele><time>2026-04-12T08:06:42.306Z</time></trkpt><trkpt lat="45.7217988" lon="11.6883958"><ele>82.0</ele><time>2026-04-12T08:06:43.308Z</time></trkpt><trkpt lat="45.7217276" lon="11.688369"><ele>82.0</ele><time>2026-04-12T08:06:44.309Z</time></trkpt><trkpt lat="45.7216572" lon="11.6883324"><ele>81.99999999999999</ele><time>2026-04-12T08:06:45.303Z</time></trkpt><trkpt lat="45.7215894" lon="11.6882867"><ele>82.0</ele><time>2026-04-12T08:06:46.309Z</time></trkpt><trkpt lat="45.7215268" lon="11.6882347"><ele>81.8</ele><time>2026-04-12T08:06:47.306Z</time></trkpt><trkpt lat="45.7214685" lon="11.6881801"><ele>81.6</ele><time>2026-04-12T08:06:48.326Z</time></trkpt><trkpt lat="45.7214134" lon="11.688124"><ele>81.39999999999999</ele><time>2026-04-12T08:06:49.311Z</time></trkpt><trkpt lat="45.7213242" lon="11.6880064"><ele>81.19999999999999</ele><time>2026-04-12T08:06:51.299Z</time></trkpt><trkpt lat="45.7212471" lon="11.6879033"><ele>81.0</ele><time>2026-04-12T08:06:53.306Z</time></trkpt><trkpt lat="45.7211567" lon="11.6879131"><ele>80.6</ele><time>2026-04-12T08:06:55.298Z</time></trkpt><trkpt lat="45.7210485" lon="11.6879496"><ele>80.19999999999999</ele><time>2026-04-12T08:06:57.3Z</time></trkpt><trkpt lat="45.7209554" lon="11.6879428"><ele>79.80000000000001</ele><time>2026-04-12T08:06:59.301Z</time></trkpt><trkpt lat="45.7208735" lon="11.6878785"><ele>79.4</ele><time>2026-04-12T08:07:01.304Z</time></trkpt><trkpt lat="45.7207953" lon="11.6878423"><ele>79.0</ele><time>2026-04-12T08:07:03.301Z</time></trkpt><trkpt lat="45.7207146" lon="11.687811"><ele>79.0</ele><time>2026-04-12T08:07:05.3Z</time></trkpt><trkpt lat="45.7206269" lon="11.6877919"><ele>79.0</ele><time>2026-04-12T08:07:07.301Z</time></trkpt><trkpt lat="45.7205066" lon="11.6877579"><ele>79.0</ele><time>2026-04-12T08:07:09.302Z</time></trkpt><trkpt lat="45.7204324" lon="11.6877399"><ele>79.0</ele><time>2026-04-12T08:07:10.305Z</time></trkpt><trkpt lat="45.7203608" lon="11.6877065"><ele>79.0</ele><time>2026-04-12T08:07:11.296Z</time></trkpt><trkpt lat="45.7202964" lon="11.6876662"><ele>79.0</ele><time>2026-04-12T08:07:12.303Z</time></trkpt><trkpt lat="45.7202346" lon="11.6876241"><ele>79.33333333333333</ele><time>2026-04-12T08:07:13.297Z</time></trkpt><trkpt lat="45.7201741" lon="11.6875945"><ele>79.66666666666666</ele><time>2026-04-12T08:07:14.308Z</time></trkpt><trkpt lat="45.7201123" lon="11.6875723"><ele>80.0</ele><time>2026-04-12T08:07:15.298Z</time></trkpt><trkpt lat="45.7200514" lon="11.6875494"><ele>80.33333333333333</ele><time>2026-04-12T08:07:16.305Z</time></trkpt><trkpt lat="45.7199358" lon="11.6875002"><ele>80.66666666666667</ele><time>2026-04-12T08:07:18.303Z</time></trkpt><trkpt lat="45.7198239" lon="11.6874674"><ele>81.0</ele><time>2026-04-12T08:07:20.3Z</time></trkpt><trkpt lat="45.7197209" lon="11.6874419"><ele>81.0</ele><time>2026-04-12T08:07:22.306Z</time></trkpt><trkpt lat="45.7196245" lon="11.6874234"><ele>81.0</ele><time>2026-04-12T08:07:24.305Z</time></trkpt><trkpt lat="45.7195314" lon="11.6873999"><ele>81.0</ele><time>2026-04-12T08:07:26.308Z</time></trkpt><trkpt lat="45.7194401" lon="11.6873723"><ele>81.0</ele><time>2026-04-12T08:07:28.311Z</time></trkpt><trkpt lat="45.7193394" lon="11.6873294"><ele>81.0</ele><time>2026-04-12T08:07:30.312Z</time></trkpt><trkpt lat="45.7192239" lon="11.6872999"><ele>80.66666666666667</ele><time>2026-04-12T08:07:32.312Z</time></trkpt><trkpt lat="45.7191028" lon="11.6872947"><ele>80.33333333333333</ele><time>2026-04-12T08:07:34.309Z</time></trkpt><trkpt lat="45.7190405" lon="11.6873089"><ele>80.0</ele><time>2026-04-12T08:07:35.302Z</time></trkpt><trkpt lat="45.7189735" lon="11.6873276"><ele>79.66666666666666</ele><time>2026-04-12T08:07:36.306Z</time></trkpt><trkpt lat="45.7189058" lon="11.6873431"><ele>79.33333333333333</ele><time>2026-04-12T08:07:37.3Z</time></trkpt><trkpt lat="45.7188274" lon="11.6873468"><ele>79.0</ele><time>2026-04-12T08:07:38.31Z</time></trkpt><trkpt lat="45.7187497" lon="11.6873461"><ele>79.0</ele><time>2026-04-12T08:07:39.301Z</time></trkpt><trkpt lat="45.7186699" lon="11.6873242"><ele>79.0</ele><time>2026-04-12T08:07:40.305Z</time></trkpt><trkpt lat="45.7185775" lon="11.6872866"><ele>79.0</ele><time>2026-04-12T08:07:41.301Z</time></trkpt><trkpt lat="45.7184805" lon="11.6872355"><ele>79.0</ele><time>2026-04-12T08:07:42.308Z</time></trkpt><trkpt lat="45.7183737" lon="11.687184"><ele>79.0</ele><time>2026-04-12T08:07:43.305Z</time></trkpt><trkpt lat="45.7182664" lon="11.6871334"><ele>78.8</ele><time>2026-04-12T08:07:44.305Z</time></trkpt><trkpt lat="45.7181579" lon="11.68708"><ele>78.60000000000001</ele><time>2026-04-12T08:07:45.312Z</time></trkpt><trkpt lat="45.7180506" lon="11.6870252"><ele>78.4</ele><time>2026-04-12T08:07:46.306Z</time></trkpt><trkpt lat="45.717953" lon="11.6869682"><ele>78.2</ele><time>2026-04-12T08:07:47.311Z</time></trkpt><trkpt lat="45.7178615" lon="11.6869093"><ele>78.0</ele><time>2026-04-12T08:07:48.303Z</time></trkpt><trkpt lat="45.7177787" lon="11.6868589"><ele>78.0</ele><time>2026-04-12T08:07:49.31Z</time></trkpt><trkpt lat="45.717706" lon="11.6868148"><ele>78.0</ele><time>2026-04-12T08:07:50.32Z</time></trkpt><trkpt lat="45.7176273" lon="11.6867556"><ele>78.0</ele><time>2026-04-12T08:07:51.302Z</time></trkpt><trkpt lat="45.7175506" lon="11.6866751"><ele>78.0</ele><time>2026-04-12T08:07:52.31Z</time></trkpt><trkpt lat="45.717473" lon="11.6865594"><ele>78.0</ele><time>2026-04-12T08:07:53.305Z</time></trkpt><trkpt lat="45.7173926" lon="11.6863913"><ele>78.0</ele><time>2026-04-12T08:07:54.31Z</time></trkpt><trkpt lat="45.7172915" lon="11.6861843"><ele>78.0</ele><time>2026-04-12T08:07:55.301Z</time></trkpt><trkpt lat="45.717169" lon="11.6859578"><ele>78.0</ele><time>2026-04-12T08:07:56.305Z</time></trkpt><trkpt lat="45.7170603" lon="11.6857545"><ele>78.0</ele><time>2026-04-12T08:07:57.297Z</time></trkpt><trkpt lat="45.7169597" lon="11.6855709"><ele>78.0</ele><time>2026-04-12T08:07:58.302Z</time></trkpt><trkpt lat="45.7168667" lon="11.6854061"><ele>78.0</ele><time>2026-04-12T08:07:59.303Z</time></trkpt><trkpt lat="45.7167896" lon="11.6852644"><ele>78.0</ele><time>2026-04-12T08:08:00.3Z</time></trkpt><trkpt lat="45.7166988" lon="11.6851495"><ele>77.75</ele><time>2026-04-12T08:08:01.298Z</time></trkpt><trkpt lat="45.7166028" lon="11.6850539"><ele>77.5</ele><time>2026-04-12T08:08:02.311Z</time></trkpt><trkpt lat="45.7165104" lon="11.6849551"><ele>77.25</ele><time>2026-04-12T08:08:03.304Z</time></trkpt><trkpt lat="45.7164084" lon="11.6848387"><ele>77.0</ele><time>2026-04-12T08:08:04.307Z</time></trkpt><trkpt lat="45.7162962" lon="11.6847217"><ele>77.0</ele><time>2026-04-12T08:08:05.304Z</time></trkpt><trkpt lat="45.7161706" lon="11.6846149"><ele>77.0</ele><time>2026-04-12T08:08:06.303Z</time></trkpt><trkpt lat="45.716032" lon="11.6845182"><ele>77.0</ele><time>2026-04-12T08:08:07.302Z</time></trkpt><trkpt lat="45.715863" lon="11.6844374"><ele>76.5</ele><time>2026-04-12T08:08:08.307Z</time></trkpt><trkpt lat="45.7157082" lon="11.6843599"><ele>76.0</ele><time>2026-04-12T08:08:09.298Z</time></trkpt><trkpt lat="45.7155727" lon="11.684285"><ele>75.5</ele><time>2026-04-12T08:08:10.307Z</time></trkpt><trkpt lat="45.7154617" lon="11.6842116"><ele>75.0</ele><time>2026-04-12T08:08:11.303Z</time></trkpt><trkpt lat="45.7153475" lon="11.6841206"><ele>75.2</ele><time>2026-04-12T08:08:12.301Z</time></trkpt><trkpt lat="45.7152341" lon="11.6840404"><ele>75.4</ele><time>2026-04-12T08:08:13.307Z</time></trkpt><trkpt lat="45.7151194" lon="11.6839783"><ele>75.6</ele><time>2026-04-12T08:08:14.301Z</time></trkpt><trkpt lat="45.7150384" lon="11.6839257"><ele>75.8</ele><time>2026-04-12T08:08:15.304Z</time></trkpt><trkpt lat="45.7149619" lon="11.6838764"><ele>76.0</ele><time>2026-04-12T08:08:16.304Z</time></trkpt><trkpt lat="45.7148865" lon="11.6838259"><ele>76.0</ele><time>2026-04-12T08:08:17.306Z</time></trkpt><trkpt lat="45.7148141" lon="11.6837759"><ele>76.0</ele><time>2026-04-12T08:08:18.307Z</time></trkpt><trkpt lat="45.7147525" lon="11.6837128"><ele>76.0</ele><time>2026-04-12T08:08:19.303Z</time></trkpt><trkpt lat="45.714703" lon="11.6836335"><ele>76.0</ele><time>2026-04-12T08:08:20.314Z</time></trkpt><trkpt lat="45.7146826" lon="11.6834684"><ele>76.0</ele><time>2026-04-12T08:08:22.306Z</time></trkpt><trkpt lat="45.7147123" lon="11.6833888"><ele>76.0</ele><time>2026-04-12T08:08:23.304Z</time></trkpt><trkpt lat="45.7147608" lon="11.6833242"><ele>76.6</ele><time>2026-04-12T08:08:24.297Z</time></trkpt><trkpt lat="45.7148174" lon="11.6832755"><ele>77.19999999999999</ele><time>2026-04-12T08:08:25.304Z</time></trkpt><trkpt lat="45.7149331" lon="11.6832645"><ele>77.80000000000001</ele><time>2026-04-12T08:08:27.299Z</time></trkpt><trkpt lat="45.7150152" lon="11.6832358"><ele>78.4</ele><time>2026-04-12T08:08:29.301Z</time></trkpt><trkpt lat="45.7150483" lon="11.6831186"><ele>79.0</ele><time>2026-04-12T08:25:48.313Z</time></trkpt><trkpt lat="45.7151404" lon="11.6830223"><ele>79.0</ele><time>2026-04-12T08:25:50.308Z</time></trkpt><trkpt lat="45.7152267" lon="11.6829905"><ele>79.0</ele><time>2026-04-12T08:25:51.313Z</time></trkpt><trkpt lat="45.7153189" lon="11.6829431"><ele>79.0</ele><time>2026-04-12T08:25:52.294Z</time></trkpt><trkpt lat="45.715401" lon="11.6829352"><ele>79.0</ele><time>2026-04-12T08:25:53.301Z</time></trkpt><trkpt lat="45.7154833" lon="11.6830023"><ele>79.0</ele><time>2026-04-12T08:25:54.301Z</time></trkpt><trkpt lat="45.7155509" lon="11.6831566"><ele>79.0</ele><time>2026-04-12T08:25:55.289Z</time></trkpt><trkpt lat="45.7155756" lon="11.6833429"><ele>79.0</ele><time>2026-04-12T08:25:56.294Z</time></trkpt><trkpt lat="45.7155378" lon="11.6834947"><ele>79.0</ele><time>2026-04-12T08:25:57.284Z</time></trkpt><trkpt lat="45.7154605" lon="11.683571"><ele>79.0</ele><time>2026-04-12T08:25:58.296Z</time></trkpt><trkpt lat="45.7153554" lon="11.6835702"><ele>79.0</ele><time>2026-04-12T08:25:59.298Z</time></trkpt><trkpt lat="45.7152337" lon="11.68351"><ele>79.0</ele><time>2026-04-12T08:26:00.297Z</time></trkpt><trkpt lat="45.7151149" lon="11.6834381"><ele>79.0</ele><time>2026-04-12T08:26:01.3Z</time></trkpt><trkpt lat="45.7150261" lon="11.6833851"><ele>79.0</ele><time>2026-04-12T08:26:02.297Z</time></trkpt><trkpt lat="45.7149687" lon="11.6833224"><ele>79.0</ele><time>2026-04-12T08:26:03.31Z</time></trkpt><trkpt lat="45.715018" lon="11.6831566"><ele>79.0</ele><time>2026-04-12T08:26:05.301Z</time></trkpt><trkpt lat="45.7150774" lon="11.6830862"><ele>79.0</ele><time>2026-04-12T08:26:06.301Z</time></trkpt><trkpt lat="45.7151444" lon="11.6830284"><ele>79.0</ele><time>2026-04-12T08:26:07.307Z</time></trkpt><trkpt lat="45.7152472" lon="11.6830001"><ele>79.0</ele><time>2026-04-12T08:26:08.295Z</time></trkpt><trkpt lat="45.7153529" lon="11.6829712"><ele>79.0</ele><time>2026-04-12T08:26:09.301Z</time></trkpt><trkpt lat="45.7154251" lon="11.6829603"><ele>79.0</ele><time>2026-04-12T08:26:10.298Z</time></trkpt><trkpt lat="45.7154936" lon="11.6829889"><ele>79.0</ele><time>2026-04-12T08:26:11.3Z</time></trkpt><trkpt lat="45.7155469" lon="11.6831054"><ele>78.0</ele><time>2026-04-12T08:26:12.301Z</time></trkpt><trkpt lat="45.7155837" lon="11.6832972"><ele>77.0</ele><time>2026-04-12T08:26:13.298Z</time></trkpt><trkpt lat="45.71557" lon="11.6834669"><ele>76.0</ele><time>2026-04-12T08:26:14.302Z</time></trkpt><trkpt lat="45.7155217" lon="11.6835756"><ele>75.0</ele><time>2026-04-12T08:26:15.291Z</time></trkpt><trkpt lat="45.7154196" lon="11.6836211"><ele>75.0</ele><time>2026-04-12T08:26:16.304Z</time></trkpt><trkpt lat="45.7152935" lon="11.6835884"><ele>75.0</ele><time>2026-04-12T08:26:17.294Z</time></trkpt><trkpt lat="45.7151638" lon="11.6834811"><ele>75.0</ele><time>2026-04-12T08:26:18.292Z</time></trkpt><trkpt lat="45.7150587" lon="11.6833893"><ele>75.0</ele><time>2026-04-12T08:26:19.292Z</time></trkpt><trkpt lat="45.7149825" lon="11.6833455"><ele>75.0</ele><time>2026-04-12T08:26:20.292Z</time></trkpt><trkpt lat="45.7149413" lon="11.68321"><ele>75.0</ele><time>2026-04-12T08:26:22.318Z</time></trkpt><trkpt lat="45.7149972" lon="11.6831374"><ele>75.0</ele><time>2026-04-12T08:26:23.301Z</time></trkpt><trkpt lat="45.7150675" lon="11.6830788"><ele>75.0</ele><time>2026-04-12T08:26:24.304Z</time></trkpt><trkpt lat="45.7151619" lon="11.6830391"><ele>75.0</ele><time>2026-04-12T08:26:25.295Z</time></trkpt><trkpt lat="45.7152536" lon="11.6830147"><ele>75.0</ele><time>2026-04-12T08:26:26.296Z</time></trkpt><trkpt lat="45.7153489" lon="11.6829843"><ele>75.0</ele><time>2026-04-12T08:26:27.298Z</time></trkpt><trkpt lat="45.7154294" lon="11.6829543"><ele>75.0</ele><time>2026-04-12T08:26:28.304Z</time></trkpt><trkpt lat="45.7154977" lon="11.6829608"><ele>75.0</ele><time>2026-04-12T08:26:29.297Z</time></trkpt><trkpt lat="45.7155489" lon="11.6830503"><ele>75.0</ele><time>2026-04-12T08:26:30.302Z</time></trkpt><trkpt lat="45.7155967" lon="11.6831978"><ele>75.0</ele><time>2026-04-12T08:26:31.287Z</time></trkpt><trkpt lat="45.7155978" lon="11.6833377"><ele>75.0</ele><time>2026-04-12T08:26:32.295Z</time></trkpt><trkpt lat="45.7155643" lon="11.6834847"><ele>75.0</ele><time>2026-04-12T08:26:33.295Z</time></trkpt><trkpt lat="45.7155085" lon="11.6835905"><ele>75.0</ele><time>2026-04-12T08:26:34.292Z</time></trkpt><trkpt lat="45.7154127" lon="11.683597"><ele>75.0</ele><time>2026-04-12T08:26:35.298Z</time></trkpt><trkpt lat="45.7152829" lon="11.6835654"><ele>75.0</ele><time>2026-04-12T08:26:36.301Z</time></trkpt><trkpt lat="45.7151538" lon="11.6834969"><ele>75.8</ele><time>2026-04-12T08:26:37.286Z</time></trkpt><trkpt lat="45.7150388" lon="11.6834329"><ele>76.6</ele><time>2026-04-12T08:26:38.316Z</time></trkpt><trkpt lat="45.7149672" lon="11.6833665"><ele>77.4</ele><time>2026-04-12T08:26:39.301Z</time></trkpt><trkpt lat="45.7149396" lon="11.6832741"><ele>78.2</ele><time>2026-04-12T08:26:40.316Z</time></trkpt><trkpt lat="45.7149954" lon="11.6831112"><ele>79.0</ele><time>2026-04-12T08:26:42.315Z</time></trkpt><trkpt lat="45.7150669" lon="11.6830718"><ele>79.0</ele><time>2026-04-12T08:26:43.308Z</time></trkpt><trkpt lat="45.7151531" lon="11.6830302"><ele>79.0</ele><time>2026-04-12T08:26:44.305Z</time></trkpt><trkpt lat="45.715243" lon="11.6829953"><ele>79.0</ele><time>2026-04-12T08:26:45.3Z</time></trkpt><trkpt lat="45.7153325" lon="11.6829683"><ele>79.0</ele><time>2026-04-12T08:26:46.307Z</time></trkpt><trkpt lat="45.7154045" lon="11.6829432"><ele>79.0</ele><time>2026-04-12T08:26:47.303Z</time></trkpt><trkpt lat="45.7155228" lon="11.6830073"><ele>78.2</ele><time>2026-04-12T08:26:49.299Z</time></trkpt><trkpt lat="45.7155536" lon="11.6831698"><ele>77.4</ele><time>2026-04-12T08:26:50.298Z</time></trkpt><trkpt lat="45.7155677" lon="11.6833205"><ele>76.6</ele><time>2026-04-12T08:26:51.297Z</time></trkpt><trkpt lat="45.7155589" lon="11.6834464"><ele>75.8</ele><time>2026-04-12T08:26:52.293Z</time></trkpt><trkpt lat="45.7155091" lon="11.6835317"><ele>75.0</ele><time>2026-04-12T08:26:53.308Z</time></trkpt><trkpt lat="45.7154196" lon="11.6835548"><ele>75.0</ele><time>2026-04-12T08:26:54.296Z</time></trkpt><trkpt lat="45.7153044" lon="11.6835194"><ele>75.0</ele><time>2026-04-12T08:26:55.303Z</time></trkpt><trkpt lat="45.7151682" lon="11.6834339"><ele>75.0</ele><time>2026-04-12T08:26:56.293Z</time></trkpt><trkpt lat="45.7150619" lon="11.6833806"><ele>75.0</ele><time>2026-04-12T08:26:57.3Z</time></trkpt><trkpt lat="45.7149788" lon="11.6833383"><ele>75.0</ele><time>2026-04-12T08:26:58.295Z</time></trkpt><trkpt lat="45.7149305" lon="11.6832744"><ele>75.0</ele><time>2026-04-12T08:26:59.309Z</time></trkpt><trkpt lat="45.7149917" lon="11.6831173"><ele>75.0</ele><time>2026-04-12T08:27:01.305Z</time></trkpt><trkpt lat="45.7150672" lon="11.6830737"><ele>75.0</ele><time>2026-04-12T08:27:02.304Z</time></trkpt><trkpt lat="45.7151577" lon="11.6830359"><ele>75.0</ele><time>2026-04-12T08:27:03.299Z</time></trkpt><trkpt lat="45.7152577" lon="11.6829929"><ele>75.0</ele><time>2026-04-12T08:27:04.298Z</time></trkpt><trkpt lat="45.715357" lon="11.6829573"><ele>75.0</ele><time>2026-04-12T08:27:05.307Z</time></trkpt><trkpt lat="45.7154322" lon="11.6829343"><ele>75.0</ele><time>2026-04-12T08:27:06.306Z</time></trkpt><trkpt lat="45.7155451" lon="11.6830188"><ele>75.0</ele><time>2026-04-12T08:27:08.302Z</time></trkpt><trkpt lat="45.7155644" lon="11.683176"><ele>75.0</ele><time>2026-04-12T08:27:09.298Z</time></trkpt><trkpt lat="45.7155661" lon="11.6833374"><ele>75.0</ele><time>2026-04-12T08:27:10.285Z</time></trkpt><trkpt lat="45.7155277" lon="11.6834653"><ele>75.0</ele><time>2026-04-12T08:27:11.298Z</time></trkpt><trkpt lat="45.7154403" lon="11.6835528"><ele>75.0</ele><time>2026-04-12T08:27:12.292Z</time></trkpt><trkpt lat="45.7153464" lon="11.683574"><ele>75.0</ele><time>2026-04-12T08:27:13.296Z</time></trkpt><trkpt lat="45.7152343" lon="11.6835289"><ele>75.0</ele><time>2026-04-12T08:27:14.303Z</time></trkpt><trkpt lat="45.7151174" lon="11.6834507"><ele>75.8</ele><time>2026-04-12T08:27:15.293Z</time></trkpt><trkpt lat="45.7150228" lon="11.6833864"><ele>76.6</ele><time>2026-04-12T08:27:16.301Z</time></trkpt><trkpt lat="45.7149466" lon="11.6833396"><ele>77.4</ele><time>2026-04-12T08:27:17.291Z</time></trkpt><trkpt lat="45.7148937" lon="11.6832404"><ele>78.2</ele><time>2026-04-12T08:27:19.304Z</time></trkpt><trkpt lat="45.715012" lon="11.6831295"><ele>79.0</ele><time>2026-04-12T08:27:21.298Z</time></trkpt><trkpt lat="45.7151082" lon="11.6830747"><ele>79.0</ele><time>2026-04-12T08:27:22.297Z</time></trkpt><trkpt lat="45.7152156" lon="11.68303"><ele>79.0</ele><time>2026-04-12T08:27:23.293Z</time></trkpt><trkpt lat="45.7153214" lon="11.6829867"><ele>79.0</ele><time>2026-04-12T08:27:24.311Z</time></trkpt><trkpt lat="45.7154104" lon="11.6829553"><ele>79.0</ele><time>2026-04-12T08:27:25.3Z</time></trkpt><trkpt lat="45.715477" lon="11.6829788"><ele>79.0</ele><time>2026-04-12T08:27:26.307Z</time></trkpt><trkpt lat="45.7155214" lon="11.6830845"><ele>78.2</ele><time>2026-04-12T08:27:27.298Z</time></trkpt><trkpt lat="45.7155454" lon="11.6832237"><ele>77.4</ele><time>2026-04-12T08:27:28.301Z</time></trkpt><trkpt lat="45.7155527" lon="11.6833571"><ele>76.6</ele><time>2026-04-12T08:27:29.292Z</time></trkpt><trkpt lat="45.7155126" lon="11.6834846"><ele>75.8</ele><time>2026-04-12T08:27:30.304Z</time></trkpt><trkpt lat="45.7154291" lon="11.6835664"><ele>75.0</ele><time>2026-04-12T08:27:31.287Z</time></trkpt><trkpt lat="45.7153237" lon="11.6835591"><ele>75.8</ele><time>2026-04-12T08:27:32.297Z</time></trkpt><trkpt lat="45.7152158" lon="11.6835308"><ele>76.6</ele><time>2026-04-12T08:27:33.294Z</time></trkpt><trkpt lat="45.7151137" lon="11.6834731"><ele>77.4</ele><time>2026-04-12T08:27:34.294Z</time></trkpt><trkpt lat="45.7150168" lon="11.683429"><ele>78.2</ele><time>2026-04-12T08:27:35.287Z</time></trkpt><trkpt lat="45.7149382" lon="11.683376"><ele>79.0</ele><time>2026-04-12T08:27:36.302Z</time></trkpt><trkpt lat="45.7149202" lon="11.6832217"><ele>79.0</ele><time>2026-04-12T08:27:38.304Z</time></trkpt><trkpt lat="45.7149891" lon="11.6831444"><ele>79.0</ele><time>2026-04-12T08:27:39.287Z</time></trkpt><trkpt lat="45.7150807" lon="11.6830796"><ele>79.0</ele><time>2026-04-12T08:27:40.299Z</time></trkpt><trkpt lat="45.7151871" lon="11.6830285"><ele>79.0</ele><time>2026-04-12T08:27:41.295Z</time></trkpt><trkpt lat="45.7152992" lon="11.6829945"><ele>79.0</ele><time>2026-04-12T08:27:42.299Z</time></trkpt><trkpt lat="45.7153941" lon="11.6829565"><ele>78.2</ele><time>2026-04-12T08:27:43.304Z</time></trkpt><trkpt lat="45.7154652" lon="11.6829506"><ele>77.4</ele><time>2026-04-12T08:27:44.299Z</time></trkpt><trkpt lat="45.7155286" lon="11.683009"><ele>76.6</ele><time>2026-04-12T08:27:45.311Z</time></trkpt><trkpt lat="45.7155717" lon="11.6831509"><ele>75.8</ele><time>2026-04-12T08:27:46.299Z</time></trkpt><trkpt lat="45.7155921" lon="11.6833199"><ele>75.0</ele><time>2026-04-12T08:27:47.302Z</time></trkpt><trkpt lat="45.7155837" lon="11.6834555"><ele>75.0</ele><time>2026-04-12T08:27:48.286Z</time></trkpt><trkpt lat="45.715537" lon="11.683562"><ele>75.0</ele><time>2026-04-12T08:27:49.279Z</time></trkpt><trkpt lat="45.7154728" lon="11.683628"><ele>75.0</ele><time>2026-04-12T08:27:50.3Z</time></trkpt><trkpt lat="45.7153879" lon="11.6836325"><ele>75.0</ele><time>2026-04-12T08:27:51.298Z</time></trkpt><trkpt lat="45.715265" lon="11.6835537"><ele>75.0</ele><time>2026-04-12T08:27:52.301Z</time></trkpt><trkpt lat="45.7151243" lon="11.6834724"><ele>75.66666666666667</ele><time>2026-04-12T08:27:53.299Z</time></trkpt><trkpt lat="45.7150153" lon="11.6834001"><ele>76.33333333333333</ele><time>2026-04-12T08:27:54.311Z</time></trkpt><trkpt lat="45.7149395" lon="11.6833486"><ele>77.0</ele><time>2026-04-12T08:27:55.314Z</time></trkpt><trkpt lat="45.7149154" lon="11.6832559"><ele>77.66666666666666</ele><time>2026-04-12T08:27:57.314Z</time></trkpt><trkpt lat="45.7149524" lon="11.6831654"><ele>78.33333333333333</ele><time>2026-04-12T08:28:01.323Z</time></trkpt><trkpt lat="45.7150199" lon="11.6831513"><ele>79.0</ele><time>2026-04-12T08:32:54.31Z</time></trkpt><trkpt lat="45.7151327" lon="11.6830999"><ele>78.33333333333333</ele><time>2026-04-12T08:32:56.305Z</time></trkpt><trkpt lat="45.7152439" lon="11.6830528"><ele>77.66666666666666</ele><time>2026-04-12T08:32:57.287Z</time></trkpt><trkpt lat="45.7153436" lon="11.6830203"><ele>77.0</ele><time>2026-04-12T08:32:58.287Z</time></trkpt><trkpt lat="45.7154183" lon="11.683002"><ele>76.33333333333333</ele><time>2026-04-12T08:32:59.299Z</time></trkpt><trkpt lat="45.7154895" lon="11.683017"><ele>75.66666666666667</ele><time>2026-04-12T08:33:00.3Z</time></trkpt><trkpt lat="45.7155467" lon="11.6830975"><ele>75.0</ele><time>2026-04-12T08:33:01.297Z</time></trkpt><trkpt lat="45.7155815" lon="11.6832466"><ele>75.0</ele><time>2026-04-12T08:33:02.295Z</time></trkpt><trkpt lat="45.7155624" lon="11.6834069"><ele>75.0</ele><time>2026-04-12T08:33:03.281Z</time></trkpt><trkpt lat="45.7155179" lon="11.6835291"><ele>75.0</ele><time>2026-04-12T08:33:04.317Z</time></trkpt><trkpt lat="45.7154324" lon="11.6836015"><ele>75.0</ele><time>2026-04-12T08:33:05.294Z</time></trkpt><trkpt lat="45.7153255" lon="11.6835897"><ele>75.0</ele><time>2026-04-12T08:33:06.304Z</time></trkpt><trkpt lat="45.7152032" lon="11.6835133"><ele>75.8</ele><time>2026-04-12T08:33:07.292Z</time></trkpt><trkpt lat="45.7150899" lon="11.6834363"><ele>76.6</ele><time>2026-04-12T08:33:08.298Z</time></trkpt><trkpt lat="45.7150041" lon="11.6833802"><ele>77.4</ele><time>2026-04-12T08:33:09.298Z</time></trkpt><trkpt lat="45.7149556" lon="11.6833163"><ele>78.2</ele><time>2026-04-12T08:33:10.308Z</time></trkpt><trkpt lat="45.7149914" lon="11.6831451"><ele>79.0</ele><time>2026-04-12T08:33:12.299Z</time></trkpt><trkpt lat="45.7150495" lon="11.6830743"><ele>79.0</ele><time>2026-04-12T08:33:13.298Z</time></trkpt><trkpt lat="45.7151415" lon="11.6830171"><ele>79.0</ele><time>2026-04-12T08:33:14.309Z</time></trkpt><trkpt lat="45.7152512" lon="11.6829868"><ele>79.0</ele><time>2026-04-12T08:33:15.301Z</time></trkpt><trkpt lat="45.7153574" lon="11.6829692"><ele>79.0</ele><time>2026-04-12T08:33:16.29Z</time></trkpt><trkpt lat="45.7154418" lon="11.6829531"><ele>79.0</ele><time>2026-04-12T08:33:17.295Z</time></trkpt><trkpt lat="45.7155192" lon="11.6829678"><ele>78.2</ele><time>2026-04-12T08:33:18.297Z</time></trkpt><trkpt lat="45.7155794" lon="11.6830374"><ele>77.4</ele><time>2026-04-12T08:33:19.295Z</time></trkpt><trkpt lat="45.7155994" lon="11.6831489"><ele>76.6</ele><time>2026-04-12T08:33:20.297Z</time></trkpt><trkpt lat="45.71558" lon="11.6833137"><ele>75.8</ele><time>2026-04-12T08:33:21.287Z</time></trkpt><trkpt lat="45.7155362" lon="11.6834818"><ele>75.0</ele><time>2026-04-12T08:33:22.299Z</time></trkpt><trkpt lat="45.7154733" lon="11.6835875"><ele>75.0</ele><time>2026-04-12T08:33:23.29Z</time></trkpt><trkpt lat="45.7153921" lon="11.6836174"><ele>75.0</ele><time>2026-04-12T08:33:24.301Z</time></trkpt><trkpt lat="45.7152797" lon="11.6835781"><ele>75.0</ele><time>2026-04-12T08:33:25.299Z</time></trkpt><trkpt lat="45.7151531" lon="11.6835038"><ele>75.0</ele><time>2026-04-12T08:33:26.3Z</time></trkpt><trkpt lat="45.7150536" lon="11.683421"><ele>75.66666666666667</ele><time>2026-04-12T08:33:27.282Z</time></trkpt><trkpt lat="45.7149666" lon="11.683344"><ele>76.33333333333333</ele><time>2026-04-12T08:33:28.298Z</time></trkpt><trkpt lat="45.7149039" lon="11.6833093"><ele>77.0</ele><time>2026-04-12T08:33:29.295Z</time></trkpt><trkpt lat="45.7148165" lon="11.6832956"><ele>77.66666666666666</ele><time>2026-04-12T08:33:31.299Z</time></trkpt><trkpt lat="45.7148202" lon="11.6833857"><ele>78.33333333333333</ele><time>2026-04-12T08:33:34.308Z</time></trkpt><trkpt lat="45.714918" lon="11.6834483"><ele>79.0</ele><time>2026-04-12T08:33:36.3Z</time></trkpt><trkpt lat="45.7149964" lon="11.6834749"><ele>79.0</ele><time>2026-04-12T08:33:38.294Z</time></trkpt><trkpt lat="45.7150826" lon="11.6834795"><ele>79.0</ele><time>2026-04-12T08:33:41.299Z</time></trkpt><trkpt lat="45.715153" lon="11.6835031"><ele>79.0</ele><time>2026-04-12T08:33:45.302Z</time></trkpt><trkpt lat="45.715197" lon="11.6835721"><ele>79.0</ele><time>2026-04-12T08:33:49.302Z</time></trkpt><trkpt lat="45.7151794" lon="11.6836809"><ele>79.0</ele><time>2026-04-12T08:33:51.298Z</time></trkpt><trkpt lat="45.7151253" lon="11.6837891"><ele>79.0</ele><time>2026-04-12T08:33:53.299Z</time></trkpt><trkpt lat="45.7150093" lon="11.68381"><ele>79.0</ele><time>2026-04-12T08:33:55.302Z</time></trkpt><trkpt lat="45.7149412" lon="11.6837963"><ele>79.0</ele><time>2026-04-12T08:33:56.305Z</time></trkpt><trkpt lat="45.7148781" lon="11.6837626"><ele>79.0</ele><time>2026-04-12T08:33:57.3Z</time></trkpt><trkpt lat="45.7148185" lon="11.6837107"><ele>79.0</ele><time>2026-04-12T08:33:58.31Z</time></trkpt><trkpt lat="45.7147684" lon="11.6836431"><ele>79.0</ele><time>2026-04-12T08:33:59.301Z</time></trkpt><trkpt lat="45.7147394" lon="11.6834792"><ele>79.0</ele><time>2026-04-12T08:34:01.303Z</time></trkpt><trkpt lat="45.7147829" lon="11.6833383"><ele>79.0</ele><time>2026-04-12T08:34:03.299Z</time></trkpt><trkpt lat="45.7148647" lon="11.683264"><ele>79.0</ele><time>2026-04-12T08:34:05.318Z</time></trkpt><trkpt lat="45.7149392" lon="11.6832751"><ele>79.0</ele><time>2026-04-12T08:34:07.314Z</time></trkpt><trkpt lat="45.7150125" lon="11.6832837"><ele>79.0</ele><time>2026-04-12T08:34:30.315Z</time></trkpt><trkpt lat="45.7151048" lon="11.683281"><ele>79.0</ele><time>2026-04-12T08:34:32.308Z</time></trkpt><trkpt lat="45.7151367" lon="11.6834068"><ele>79.0</ele><time>2026-04-12T08:34:34.3Z</time></trkpt><trkpt lat="45.7151244" lon="11.6835038"><ele>78.5</ele><time>2026-04-12T08:34:35.301Z</time></trkpt><trkpt lat="45.7151123" lon="11.6836324"><ele>78.0</ele><time>2026-04-12T08:34:37.296Z</time></trkpt><trkpt lat="45.7150775" lon="11.683734"><ele>77.5</ele><time>2026-04-12T08:34:39.296Z</time></trkpt><trkpt lat="45.7150051" lon="11.6838212"><ele>77.0</ele><time>2026-04-12T08:34:41.293Z</time></trkpt><trkpt lat="45.7148992" lon="11.6838016"><ele>76.5</ele><time>2026-04-12T08:34:43.294Z</time></trkpt><trkpt lat="45.7148404" lon="11.6837382"><ele>76.0</ele><time>2026-04-12T08:34:44.306Z</time></trkpt><trkpt lat="45.7147937" lon="11.6836625"><ele>76.6</ele><time>2026-04-12T08:34:45.296Z</time></trkpt><trkpt lat="45.714764" lon="11.6835789"><ele>77.19999999999999</ele><time>2026-04-12T08:34:46.303Z</time></trkpt><trkpt lat="45.7147546" lon="11.683407"><ele>77.80000000000001</ele><time>2026-04-12T08:34:48.309Z</time></trkpt><trkpt lat="45.7148084" lon="11.6832563"><ele>78.4</ele><time>2026-04-12T08:34:50.307Z</time></trkpt><trkpt lat="45.7149119" lon="11.6832068"><ele>79.0</ele><time>2026-04-12T08:34:52.307Z</time></trkpt><trkpt lat="45.7150065" lon="11.6831807"><ele>79.0</ele><time>2026-04-12T08:34:54.31Z</time></trkpt><trkpt lat="45.7150849" lon="11.6831635"><ele>79.0</ele><time>2026-04-12T08:34:56.309Z</time></trkpt><trkpt lat="45.7151617" lon="11.6832273"><ele>79.0</ele><time>2026-04-12T08:34:58.302Z</time></trkpt><trkpt lat="45.7151819" lon="11.6834173"><ele>79.0</ele><time>2026-04-12T08:35:00.308Z</time></trkpt><trkpt lat="45.7151571" lon="11.6835303"><ele>79.0</ele><time>2026-04-12T08:35:01.301Z</time></trkpt><trkpt lat="45.7151255" lon="11.6836175"><ele>79.0</ele><time>2026-04-12T08:35:02.314Z</time></trkpt><trkpt lat="45.7150693" lon="11.6837685"><ele>79.0</ele><time>2026-04-12T08:35:04.311Z</time></trkpt><trkpt lat="45.7150111" lon="11.6838055"><ele>79.0</ele><time>2026-04-12T08:35:05.306Z</time></trkpt><trkpt lat="45.7149418" lon="11.6837956"><ele>79.0</ele><time>2026-04-12T08:35:06.307Z</time></trkpt><trkpt lat="45.7148806" lon="11.6837477"><ele>79.0</ele><time>2026-04-12T08:35:07.319Z</time></trkpt><trkpt lat="45.714828" lon="11.6836751"><ele>79.0</ele><time>2026-04-12T08:35:08.295Z</time></trkpt><trkpt lat="45.7147858" lon="11.683585"><ele>79.0</ele><time>2026-04-12T08:35:09.299Z</time></trkpt><trkpt lat="45.7147593" lon="11.6834901"><ele>79.0</ele><time>2026-04-12T08:35:10.297Z</time></trkpt><trkpt lat="45.7147619" lon="11.6833938"><ele>79.0</ele><time>2026-04-12T08:35:11.306Z</time></trkpt><trkpt lat="45.7148296" lon="11.6832552"><ele>79.0</ele><time>2026-04-12T08:35:13.309Z</time></trkpt><trkpt lat="45.7149269" lon="11.6832074"><ele>79.0</ele><time>2026-04-12T08:35:15.304Z</time></trkpt><trkpt lat="45.7150062" lon="11.6832014"><ele>79.0</ele><time>2026-04-12T08:35:17.303Z</time></trkpt><trkpt lat="45.7150836" lon="11.6831921"><ele>79.0</ele><time>2026-04-12T08:35:19.3Z</time></trkpt><trkpt lat="45.7151613" lon="11.6832477"><ele>79.0</ele><time>2026-04-12T08:35:21.304Z</time></trkpt><trkpt lat="45.715157" lon="11.6834147"><ele>79.0</ele><time>2026-04-12T08:35:23.299Z</time></trkpt><trkpt lat="45.715123" lon="11.6835235"><ele>79.0</ele><time>2026-04-12T08:35:24.302Z</time></trkpt><trkpt lat="45.7150869" lon="11.6836194"><ele>79.0</ele><time>2026-04-12T08:35:25.295Z</time></trkpt><trkpt lat="45.7150556" lon="11.6837179"><ele>79.0</ele><time>2026-04-12T08:35:26.293Z</time></trkpt><trkpt lat="45.7150094" lon="11.6837819"><ele>79.0</ele><time>2026-04-12T08:35:27.296Z</time></trkpt><trkpt lat="45.7148926" lon="11.6837356"><ele>79.0</ele><time>2026-04-12T08:35:29.306Z</time></trkpt><trkpt lat="45.7148359" lon="11.6836584"><ele>79.0</ele><time>2026-04-12T08:35:30.292Z</time></trkpt><trkpt lat="45.7147942" lon="11.6835713"><ele>79.0</ele><time>2026-04-12T08:35:31.299Z</time></trkpt><trkpt lat="45.7147731" lon="11.6834799"><ele>79.0</ele><time>2026-04-12T08:35:32.302Z</time></trkpt><trkpt lat="45.7147771" lon="11.6833029"><ele>79.0</ele><time>2026-04-12T08:35:34.304Z</time></trkpt><trkpt lat="45.7148692" lon="11.6831986"><ele>79.0</ele><time>2026-04-12T08:35:36.299Z</time></trkpt><trkpt lat="45.714961" lon="11.6831786"><ele>79.0</ele><time>2026-04-12T08:35:38.315Z</time></trkpt><trkpt lat="45.7150436" lon="11.6831848"><ele>79.0</ele><time>2026-04-12T08:35:40.31Z</time></trkpt><trkpt lat="45.7151255" lon="11.6832229"><ele>79.0</ele><time>2026-04-12T08:35:42.302Z</time></trkpt><trkpt lat="45.7151907" lon="11.6833574"><ele>79.00000000000001</ele><time>2026-04-12T08:35:44.301Z</time></trkpt><trkpt lat="45.7151897" lon="11.6834635"><ele>79.0</ele><time>2026-04-12T08:35:45.311Z</time></trkpt><trkpt lat="45.7151508" lon="11.6835639"><ele>79.0</ele><time>2026-04-12T08:35:46.307Z</time></trkpt><trkpt lat="45.7151175" lon="11.6836528"><ele>79.0</ele><time>2026-04-12T08:35:47.298Z</time></trkpt><trkpt lat="45.715091" lon="11.6837383"><ele>79.0</ele><time>2026-04-12T08:35:48.298Z</time></trkpt><trkpt lat="45.7150433" lon="11.6838078"><ele>79.00000000000001</ele><time>2026-04-12T08:35:49.3Z</time></trkpt><trkpt lat="45.7149714" lon="11.6838166"><ele>79.0</ele><time>2026-04-12T08:35:50.296Z</time></trkpt><trkpt lat="45.714907" lon="11.6837674"><ele>79.0</ele><time>2026-04-12T08:35:51.29Z</time></trkpt><trkpt lat="45.7148554" lon="11.683704"><ele>79.0</ele><time>2026-04-12T08:35:52.294Z</time></trkpt><trkpt lat="45.7147867" lon="11.6835674"><ele>79.0</ele><time>2026-04-12T08:35:54.296Z</time></trkpt><trkpt lat="45.714777" lon="11.6834149"><ele>79.0</ele><time>2026-04-12T08:35:56.302Z</time></trkpt><trkpt lat="45.7148233" lon="11.683297"><ele>79.0</ele><time>2026-04-12T08:35:58.293Z</time></trkpt><trkpt lat="45.7149053" lon="11.6832696"><ele>79.0</ele><time>2026-04-12T08:36:00.303Z</time></trkpt><trkpt lat="45.7149806" lon="11.6832914"><ele>79.0</ele><time>2026-04-12T08:36:02.309Z</time></trkpt><trkpt lat="45.7150113" lon="11.6832017"><ele>79.0</ele><time>2026-04-12T08:36:12.302Z</time></trkpt><trkpt lat="45.715062" lon="11.6831055"><ele>79.0</ele><time>2026-04-12T08:36:14.294Z</time></trkpt><trkpt lat="45.7151367" lon="11.6830608"><ele>79.0</ele><time>2026-04-12T08:36:16.287Z</time></trkpt><trkpt lat="45.7152381" lon="11.6830277"><ele>79.0</ele><time>2026-04-12T08:36:18.3Z</time></trkpt><trkpt lat="45.7153354" lon="11.6830009"><ele>79.0</ele><time>2026-04-12T08:36:20.297Z</time></trkpt><trkpt lat="45.7154178" lon="11.6829632"><ele>79.0</ele><time>2026-04-12T08:36:22.302Z</time></trkpt><trkpt lat="45.7154646" lon="11.6830323"><ele>79.0</ele><time>2026-04-12T08:36:28.291Z</time></trkpt><trkpt lat="45.7154029" lon="11.6831044"><ele>79.0</ele><time>2026-04-12T08:36:53.297Z</time></trkpt><trkpt lat="45.715318" lon="11.6831698"><ele>79.0</ele><time>2026-04-12T08:36:55.298Z</time></trkpt><trkpt lat="45.7152172" lon="11.6832324"><ele>79.0</ele><time>2026-04-12T08:36:57.298Z</time></trkpt><trkpt lat="45.7151103" lon="11.6832807"><ele>79.0</ele><time>2026-04-12T08:36:59.307Z</time></trkpt><trkpt lat="45.7150343" lon="11.6833049"><ele>79.0</ele><time>2026-04-12T08:37:01.304Z</time></trkpt><trkpt lat="45.7149673" lon="11.6832466"><ele>79.0</ele><time>2026-04-12T08:37:03.308Z</time></trkpt><trkpt lat="45.7150037" lon="11.6831671"><ele>79.0</ele><time>2026-04-12T08:37:06.303Z</time></trkpt><trkpt lat="45.7150882" lon="11.6831171"><ele>79.0</ele><time>2026-04-12T08:37:17.308Z</time></trkpt><trkpt lat="45.7152018" lon="11.6830449"><ele>79.0</ele><time>2026-04-12T08:37:19.306Z</time></trkpt><trkpt lat="45.7152651" lon="11.683017"><ele>78.33333333333333</ele><time>2026-04-12T08:37:20.311Z</time></trkpt><trkpt lat="45.7153277" lon="11.6829882"><ele>77.66666666666666</ele><time>2026-04-12T08:37:21.293Z</time></trkpt><trkpt lat="45.7154301" lon="11.6829658"><ele>77.0</ele><time>2026-04-12T08:37:23.301Z</time></trkpt><trkpt lat="45.7154928" lon="11.6830231"><ele>76.33333333333333</ele><time>2026-04-12T08:37:25.302Z</time></trkpt><trkpt lat="45.7154162" lon="11.6830745"><ele>75.66666666666667</ele><time>2026-04-12T08:37:28.289Z</time></trkpt><trkpt lat="45.7153214" lon="11.6831355"><ele>75.0</ele><time>2026-04-12T08:37:30.291Z</time></trkpt><trkpt lat="45.7152571" lon="11.6831698"><ele>75.66666666666667</ele><time>2026-04-12T08:37:31.294Z</time></trkpt><trkpt lat="45.715189" lon="11.6832167"><ele>76.33333333333333</ele><time>2026-04-12T08:37:32.289Z</time></trkpt><trkpt lat="45.7151188" lon="11.6832589"><ele>77.0</ele><time>2026-04-12T08:37:33.306Z</time></trkpt><trkpt lat="45.7150565" lon="11.6832886"><ele>77.66666666666666</ele><time>2026-04-12T08:37:34.299Z</time></trkpt><trkpt lat="45.714971" lon="11.683329"><ele>78.33333333333333</ele><time>2026-04-12T08:37:36.305Z</time></trkpt><trkpt lat="45.7149652" lon="11.6832072"><ele>79.0</ele><time>2026-04-12T08:37:39.304Z</time></trkpt><trkpt lat="45.7150439" lon="11.6831321"><ele>79.0</ele><time>2026-04-12T08:37:43.301Z</time></trkpt><trkpt lat="45.7151225" lon="11.6830439"><ele>79.0</ele><time>2026-04-12T08:37:45.297Z</time></trkpt><trkpt lat="45.7151839" lon="11.6830102"><ele>79.0</ele><time>2026-04-12T08:37:46.301Z</time></trkpt><trkpt lat="45.715259" lon="11.6829951"><ele>79.0</ele><time>2026-04-12T08:37:47.297Z</time></trkpt><trkpt lat="45.715331" lon="11.6829742"><ele>79.0</ele><time>2026-04-12T08:37:48.295Z</time></trkpt><trkpt lat="45.7154205" lon="11.682937"><ele>79.0</ele><time>2026-04-12T08:37:50.295Z</time></trkpt><trkpt lat="45.7154872" lon="11.6830002"><ele>79.0</ele><time>2026-04-12T08:37:52.293Z</time></trkpt><trkpt lat="45.7154601" lon="11.683083"><ele>79.0</ele><time>2026-04-12T08:37:55.286Z</time></trkpt><trkpt lat="45.7153578" lon="11.6831355"><ele>79.0</ele><time>2026-04-12T08:38:01.293Z</time></trkpt><trkpt lat="45.7152917" lon="11.6831724"><ele>79.0</ele><time>2026-04-12T08:38:02.291Z</time></trkpt><trkpt lat="45.7152264" lon="11.6832075"><ele>79.0</ele><time>2026-04-12T08:38:03.291Z</time></trkpt><trkpt lat="45.7151434" lon="11.683256"><ele>79.0</ele><time>2026-04-12T08:38:04.294Z</time></trkpt><trkpt lat="45.7150694" lon="11.6832864"><ele>79.0</ele><time>2026-04-12T08:38:05.292Z</time></trkpt><trkpt lat="45.7149874" lon="11.683276"><ele>79.0</ele><time>2026-04-12T08:38:07.297Z</time></trkpt><trkpt lat="45.7150138" lon="11.6831677"><ele>79.0</ele><time>2026-04-12T08:38:09.292Z</time></trkpt><trkpt lat="45.7150903" lon="11.6830918"><ele>79.0</ele><time>2026-04-12T08:38:11.287Z</time></trkpt><trkpt lat="45.7151832" lon="11.6830305"><ele>79.0</ele><time>2026-04-12T08:38:13.33Z</time></trkpt><trkpt lat="45.7152926" lon="11.6830009"><ele>79.0</ele><time>2026-04-12T08:38:15.298Z</time></trkpt><trkpt lat="45.7153542" lon="11.6829747"><ele>79.0</ele><time>2026-04-12T08:38:16.299Z</time></trkpt><trkpt lat="45.7154465" lon="11.6829515"><ele>79.0</ele><time>2026-04-12T08:38:18.302Z</time></trkpt><trkpt lat="45.7154575" lon="11.68306"><ele>79.0</ele><time>2026-04-12T08:38:23.304Z</time></trkpt><trkpt lat="45.7153833" lon="11.6831052"><ele>79.0</ele><time>2026-04-12T08:38:27.302Z</time></trkpt><trkpt lat="45.7152756" lon="11.6831672"><ele>79.0</ele><time>2026-04-12T08:38:29.301Z</time></trkpt><trkpt lat="45.7152039" lon="11.6832202"><ele>79.0</ele><time>2026-04-12T08:38:30.299Z</time></trkpt><trkpt lat="45.7151305" lon="11.6832635"><ele>79.0</ele><time>2026-04-12T08:38:31.306Z</time></trkpt><trkpt lat="45.7150651" lon="11.6832988"><ele>79.0</ele><time>2026-04-12T08:38:32.297Z</time></trkpt><trkpt lat="45.7149665" lon="11.6832946"><ele>79.0</ele><time>2026-04-12T08:38:34.3Z</time></trkpt><trkpt lat="45.7150093" lon="11.6831774"><ele>79.0</ele><time>2026-04-12T08:38:38.304Z</time></trkpt><trkpt lat="45.715124" lon="11.6830858"><ele>79.0</ele><time>2026-04-12T08:38:40.304Z</time></trkpt><trkpt lat="45.7152329" lon="11.6830315"><ele>79.0</ele><time>2026-04-12T08:38:41.297Z</time></trkpt><trkpt lat="45.7153236" lon="11.6829906"><ele>79.0</ele><time>2026-04-12T08:38:42.294Z</time></trkpt><trkpt lat="45.7153964" lon="11.6829597"><ele>79.0</ele><time>2026-04-12T08:38:43.303Z</time></trkpt><trkpt lat="45.7155054" lon="11.6829804"><ele>79.0</ele><time>2026-04-12T08:38:45.295Z</time></trkpt><trkpt lat="45.7154763" lon="11.6830985"><ele>79.0</ele><time>2026-04-12T08:38:47.299Z</time></trkpt><trkpt lat="45.7153998" lon="11.6831287"><ele>79.0</ele><time>2026-04-12T08:38:48.294Z</time></trkpt><trkpt lat="45.7153178" lon="11.6831564"><ele>79.0</ele><time>2026-04-12T08:38:49.291Z</time></trkpt><trkpt lat="45.7152361" lon="11.683207"><ele>79.0</ele><time>2026-04-12T08:38:50.288Z</time></trkpt><trkpt lat="45.7151625" lon="11.6832589"><ele>79.0</ele><time>2026-04-12T08:38:51.294Z</time></trkpt><trkpt lat="45.7150854" lon="11.6832965"><ele>79.0</ele><time>2026-04-12T08:38:52.294Z</time></trkpt><trkpt lat="45.7150239" lon="11.6833246"><ele>79.0</ele><time>2026-04-12T08:38:53.292Z</time></trkpt><trkpt lat="45.7149153" lon="11.6833181"><ele>79.0</ele><time>2026-04-12T08:38:55.299Z</time></trkpt><trkpt lat="45.7149318" lon="11.6832123"><ele>79.0</ele><time>2026-04-12T08:38:57.298Z</time></trkpt><trkpt lat="45.7149953" lon="11.6831476"><ele>79.0</ele><time>2026-04-12T08:38:58.29Z</time></trkpt><trkpt lat="45.7150748" lon="11.6830829"><ele>79.0</ele><time>2026-04-12T08:38:59.298Z</time></trkpt><trkpt lat="45.7151575" lon="11.6830305"><ele>79.0</ele><time>2026-04-12T08:39:00.297Z</time></trkpt><trkpt lat="45.7152489" lon="11.6829914"><ele>78.2</ele><time>2026-04-12T08:39:01.298Z</time></trkpt><trkpt lat="45.7153407" lon="11.6829594"><ele>77.4</ele><time>2026-04-12T08:39:02.293Z</time></trkpt><trkpt lat="45.7154168" lon="11.6829299"><ele>76.6</ele><time>2026-04-12T08:39:03.299Z</time></trkpt><trkpt lat="45.7155067" lon="11.6829782"><ele>75.8</ele><time>2026-04-12T08:39:05.299Z</time></trkpt><trkpt lat="45.7154472" lon="11.683088"><ele>75.0</ele><time>2026-04-12T08:39:07.295Z</time></trkpt><trkpt lat="45.7153622" lon="11.68312"><ele>75.0</ele><time>2026-04-12T08:39:08.28Z</time></trkpt><trkpt lat="45.7152779" lon="11.683165"><ele>75.0</ele><time>2026-04-12T08:39:09.29Z</time></trkpt><trkpt lat="45.7151889" lon="11.6832188"><ele>75.0</ele><time>2026-04-12T08:39:10.288Z</time></trkpt><trkpt lat="45.715098" lon="11.6832629"><ele>75.0</ele><time>2026-04-12T08:39:11.283Z</time></trkpt><trkpt lat="45.7150286" lon="11.6833084"><ele>75.0</ele><time>2026-04-12T08:39:12.293Z</time></trkpt><trkpt lat="45.7149521" lon="11.6834059"><ele>75.0</ele><time>2026-04-12T08:39:14.316Z</time></trkpt><trkpt lat="45.7149503" lon="11.6832668"><ele>75.0</ele><time>2026-04-12T08:47:05.284Z</time></trkpt><trkpt lat="45.7150048" lon="11.6831515"><ele>75.0</ele><time>2026-04-12T08:47:07.282Z</time></trkpt><trkpt lat="45.7150627" lon="11.6831159"><ele>75.0</ele><time>2026-04-12T08:47:08.291Z</time></trkpt><trkpt lat="45.7151398" lon="11.6830637"><ele>75.0</ele><time>2026-04-12T08:47:09.283Z</time></trkpt><trkpt lat="45.7152081" lon="11.6830331"><ele>75.0</ele><time>2026-04-12T08:47:10.301Z</time></trkpt><trkpt lat="45.715278" lon="11.6830117"><ele>75.0</ele><time>2026-04-12T08:47:11.281Z</time></trkpt><trkpt lat="45.7153495" lon="11.6829852"><ele>75.0</ele><time>2026-04-12T08:47:12.287Z</time></trkpt><trkpt lat="45.7154307" lon="11.6829607"><ele>75.0</ele><time>2026-04-12T08:47:13.297Z</time></trkpt><trkpt lat="45.715555" lon="11.6829641"><ele>75.0</ele><time>2026-04-12T08:47:15.291Z</time></trkpt><trkpt lat="45.7156468" lon="11.6831004"><ele>75.0</ele><time>2026-04-12T08:47:17.284Z</time></trkpt><trkpt lat="45.7156244" lon="11.6832429"><ele>75.0</ele><time>2026-04-12T08:47:18.279Z</time></trkpt><trkpt lat="45.7155904" lon="11.6834053"><ele>75.0</ele><time>2026-04-12T08:47:19.282Z</time></trkpt><trkpt lat="45.7155669" lon="11.6835565"><ele>75.0</ele><time>2026-04-12T08:47:20.275Z</time></trkpt><trkpt lat="45.7155353" lon="11.6836968"><ele>75.0</ele><time>2026-04-12T08:47:21.294Z</time></trkpt><trkpt lat="45.7154944" lon="11.6837999"><ele>75.0</ele><time>2026-04-12T08:47:22.287Z</time></trkpt><trkpt lat="45.7154335" lon="11.6838648"><ele>75.0</ele><time>2026-04-12T08:47:23.287Z</time></trkpt><trkpt lat="45.7153549" lon="11.6840105"><ele>75.0</ele><time>2026-04-12T08:47:25.278Z</time></trkpt><trkpt lat="45.7152654" lon="11.6840154"><ele>75.0</ele><time>2026-04-12T08:47:27.29Z</time></trkpt><trkpt lat="45.7151976" lon="11.6839716"><ele>75.0</ele><time>2026-04-12T08:47:28.302Z</time></trkpt><trkpt lat="45.715111" lon="11.6839214"><ele>75.0</ele><time>2026-04-12T08:47:29.326Z</time></trkpt><trkpt lat="45.7150125" lon="11.6838588"><ele>75.2</ele><time>2026-04-12T08:47:30.302Z</time></trkpt><trkpt lat="45.7149138" lon="11.6837856"><ele>75.4</ele><time>2026-04-12T08:47:31.299Z</time></trkpt><trkpt lat="45.7148367" lon="11.6837021"><ele>75.6</ele><time>2026-04-12T08:47:32.295Z</time></trkpt><trkpt lat="45.7147758" lon="11.6836098"><ele>75.8</ele><time>2026-04-12T08:47:33.301Z</time></trkpt><trkpt lat="45.7147496" lon="11.6834916"><ele>76.0</ele><time>2026-04-12T08:47:34.299Z</time></trkpt><trkpt lat="45.7147575" lon="11.6833725"><ele>76.5</ele><time>2026-04-12T08:47:35.293Z</time></trkpt><trkpt lat="45.7147958" lon="11.6832801"><ele>77.0</ele><time>2026-04-12T08:47:36.298Z</time></trkpt><trkpt lat="45.7149029" lon="11.6832002"><ele>77.5</ele><time>2026-04-12T08:47:38.294Z</time></trkpt><trkpt lat="45.714989" lon="11.6831682"><ele>78.0</ele><time>2026-04-12T08:47:40.29Z</time></trkpt><trkpt lat="45.7150518" lon="11.6831153"><ele>78.5</ele><time>2026-04-12T08:47:41.275Z</time></trkpt><trkpt lat="45.7151331" lon="11.6830626"><ele>79.0</ele><time>2026-04-12T08:47:42.29Z</time></trkpt><trkpt lat="45.7152235" lon="11.6830107"><ele>78.33333333333333</ele><time>2026-04-12T08:47:43.291Z</time></trkpt><trkpt lat="45.7153121" lon="11.6829763"><ele>77.66666666666666</ele><time>2026-04-12T08:47:44.291Z</time></trkpt><trkpt lat="45.7153855" lon="11.6829496"><ele>77.0</ele><time>2026-04-12T08:47:45.282Z</time></trkpt><trkpt lat="45.7154535" lon="11.6829477"><ele>76.33333333333333</ele><time>2026-04-12T08:47:46.296Z</time></trkpt><trkpt lat="45.7155184" lon="11.6830099"><ele>75.66666666666667</ele><time>2026-04-12T08:47:47.289Z</time></trkpt><trkpt lat="45.7155565" lon="11.6831631"><ele>75.0</ele><time>2026-04-12T08:47:48.298Z</time></trkpt><trkpt lat="45.7155644" lon="11.683347"><ele>75.0</ele><time>2026-04-12T08:47:49.277Z</time></trkpt><trkpt lat="45.7155487" lon="11.683519"><ele>75.0</ele><time>2026-04-12T08:47:50.287Z</time></trkpt><trkpt lat="45.7155131" lon="11.6836757"><ele>75.0</ele><time>2026-04-12T08:47:51.283Z</time></trkpt><trkpt lat="45.7154785" lon="11.6837935"><ele>75.0</ele><time>2026-04-12T08:47:52.294Z</time></trkpt><trkpt lat="45.7154325" lon="11.6838887"><ele>75.0</ele><time>2026-04-12T08:47:53.271Z</time></trkpt><trkpt lat="45.7153964" lon="11.683997"><ele>75.0</ele><time>2026-04-12T08:47:54.285Z</time></trkpt><trkpt lat="45.7153417" lon="11.6840814"><ele>75.0</ele><time>2026-04-12T08:47:55.287Z</time></trkpt><trkpt lat="45.7152713" lon="11.6841013"><ele>75.0</ele><time>2026-04-12T08:47:56.286Z</time></trkpt><trkpt lat="45.7151901" lon="11.6840671"><ele>75.0</ele><time>2026-04-12T08:47:57.287Z</time></trkpt><trkpt lat="45.715098" lon="11.6840066"><ele>75.0</ele><time>2026-04-12T08:47:58.287Z</time></trkpt><trkpt lat="45.715001" lon="11.6839361"><ele>75.0</ele><time>2026-04-12T08:47:59.293Z</time></trkpt><trkpt lat="45.7148997" lon="11.6838623"><ele>75.16666666666667</ele><time>2026-04-12T08:48:00.289Z</time></trkpt><trkpt lat="45.7148179" lon="11.6837818"><ele>75.33333333333333</ele><time>2026-04-12T08:48:01.288Z</time></trkpt><trkpt lat="45.7147576" lon="11.6836936"><ele>75.5</ele><time>2026-04-12T08:48:02.295Z</time></trkpt><trkpt lat="45.7147369" lon="11.6835883"><ele>75.66666666666666</ele><time>2026-04-12T08:48:03.288Z</time></trkpt><trkpt lat="45.7147401" lon="11.683477"><ele>75.83333333333333</ele><time>2026-04-12T08:48:04.293Z</time></trkpt><trkpt lat="45.7147722" lon="11.6833747"><ele>76.0</ele><time>2026-04-12T08:48:05.291Z</time></trkpt><trkpt lat="45.7148327" lon="11.6832712"><ele>75.8</ele><time>2026-04-12T08:48:06.296Z</time></trkpt><trkpt lat="45.7149064" lon="11.6832027"><ele>75.6</ele><time>2026-04-12T08:48:07.281Z</time></trkpt><trkpt lat="45.7149889" lon="11.6831402"><ele>75.4</ele><time>2026-04-12T08:48:08.293Z</time></trkpt><trkpt lat="45.7150821" lon="11.6830812"><ele>75.2</ele><time>2026-04-12T08:48:09.29Z</time></trkpt><trkpt lat="45.7151687" lon="11.6830273"><ele>75.0</ele><time>2026-04-12T08:48:10.291Z</time></trkpt><trkpt lat="45.7152592" lon="11.6829888"><ele>75.0</ele><time>2026-04-12T08:48:11.285Z</time></trkpt><trkpt lat="45.7153489" lon="11.6829541"><ele>75.0</ele><time>2026-04-12T08:48:12.294Z</time></trkpt><trkpt lat="45.7154249" lon="11.6829281"><ele>75.0</ele><time>2026-04-12T08:48:13.29Z</time></trkpt><trkpt lat="45.7155292" lon="11.6829997"><ele>75.0</ele><time>2026-04-12T08:48:15.289Z</time></trkpt><trkpt lat="45.7155533" lon="11.6831217"><ele>75.0</ele><time>2026-04-12T08:48:16.283Z</time></trkpt><trkpt lat="45.715569" lon="11.6832706"><ele>75.0</ele><time>2026-04-12T08:48:17.267Z</time></trkpt><trkpt lat="45.7155592" lon="11.6834331"><ele>75.0</ele><time>2026-04-12T08:48:18.285Z</time></trkpt><trkpt lat="45.7155203" lon="11.6835911"><ele>75.0</ele><time>2026-04-12T08:48:19.277Z</time></trkpt><trkpt lat="45.7154804" lon="11.6837231"><ele>75.0</ele><time>2026-04-12T08:48:20.284Z</time></trkpt><trkpt lat="45.7154461" lon="11.6838079"><ele>75.0</ele><time>2026-04-12T08:48:21.284Z</time></trkpt><trkpt lat="45.715375" lon="11.683957"><ele>75.0</ele><time>2026-04-12T08:48:23.28Z</time></trkpt><trkpt lat="45.7153185" lon="11.6840246"><ele>75.0</ele><time>2026-04-12T08:48:24.29Z</time></trkpt><trkpt lat="45.7152327" lon="11.6840466"><ele>75.0</ele><time>2026-04-12T08:48:25.288Z</time></trkpt><trkpt lat="45.7151207" lon="11.6839993"><ele>75.0</ele><time>2026-04-12T08:48:26.291Z</time></trkpt><trkpt lat="45.7150016" lon="11.6839152"><ele>75.0</ele><time>2026-04-12T08:48:27.287Z</time></trkpt><trkpt lat="45.7148937" lon="11.683824"><ele>75.2</ele><time>2026-04-12T08:48:28.289Z</time></trkpt><trkpt lat="45.7148061" lon="11.6837223"><ele>75.4</ele><time>2026-04-12T08:48:29.284Z</time></trkpt><trkpt lat="45.7147479" lon="11.6836191"><ele>75.6</ele><time>2026-04-12T08:48:30.309Z</time></trkpt><trkpt lat="45.7147269" lon="11.6835004"><ele>75.8</ele><time>2026-04-12T08:48:31.287Z</time></trkpt><trkpt lat="45.7147381" lon="11.6833791"><ele>76.0</ele><time>2026-04-12T08:48:32.294Z</time></trkpt><trkpt lat="45.7147766" lon="11.6832811"><ele>75.83333333333333</ele><time>2026-04-12T08:48:33.291Z</time></trkpt><trkpt lat="45.7148449" lon="11.6832215"><ele>75.66666666666666</ele><time>2026-04-12T08:48:34.292Z</time></trkpt><trkpt lat="45.7149203" lon="11.6831846"><ele>75.5</ele><time>2026-04-12T08:48:35.286Z</time></trkpt><trkpt lat="45.7150057" lon="11.6831442"><ele>75.33333333333333</ele><time>2026-04-12T08:48:36.291Z</time></trkpt><trkpt lat="45.7150901" lon="11.6830924"><ele>75.16666666666667</ele><time>2026-04-12T08:48:37.287Z</time></trkpt><trkpt lat="45.715164" lon="11.6830429"><ele>75.0</ele><time>2026-04-12T08:48:38.294Z</time></trkpt><trkpt lat="45.7152459" lon="11.6830041"><ele>75.0</ele><time>2026-04-12T08:48:39.289Z</time></trkpt><trkpt lat="45.7153329" lon="11.6829697"><ele>75.0</ele><time>2026-04-12T08:48:40.294Z</time></trkpt><trkpt lat="45.7154115" lon="11.6829415"><ele>75.0</ele><time>2026-04-12T08:48:41.283Z</time></trkpt><trkpt lat="45.7154757" lon="11.6829329"><ele>75.0</ele><time>2026-04-12T08:48:42.298Z</time></trkpt><trkpt lat="45.7155326" lon="11.6829804"><ele>75.0</ele><time>2026-04-12T08:48:43.288Z</time></trkpt><trkpt lat="45.7155743" lon="11.6831073"><ele>75.0</ele><time>2026-04-12T08:48:44.289Z</time></trkpt><trkpt lat="45.7155928" lon="11.6832726"><ele>75.0</ele><time>2026-04-12T08:48:45.278Z</time></trkpt><trkpt lat="45.7155964" lon="11.6834308"><ele>75.0</ele><time>2026-04-12T08:48:46.29Z</time></trkpt><trkpt lat="45.7155692" lon="11.6835958"><ele>75.0</ele><time>2026-04-12T08:48:47.275Z</time></trkpt><trkpt lat="45.7155446" lon="11.6837338"><ele>75.0</ele><time>2026-04-12T08:48:48.294Z</time></trkpt><trkpt lat="45.715513" lon="11.6838385"><ele>75.0</ele><time>2026-04-12T08:48:49.287Z</time></trkpt><trkpt lat="45.7154594" lon="11.6839193"><ele>75.0</ele><time>2026-04-12T08:48:50.296Z</time></trkpt><trkpt lat="45.7153993" lon="11.6840009"><ele>75.0</ele><time>2026-04-12T08:48:51.28Z</time></trkpt><trkpt lat="45.7153291" lon="11.6840397"><ele>75.0</ele><time>2026-04-12T08:48:52.289Z</time></trkpt><trkpt lat="45.7152629" lon="11.6840308"><ele>75.0</ele><time>2026-04-12T08:48:53.281Z</time></trkpt><trkpt lat="45.7151632" lon="11.6839831"><ele>75.0</ele><time>2026-04-12T08:48:55.284Z</time></trkpt><trkpt lat="45.7151538" lon="11.6838858"><ele>75.0</ele><time>2026-04-12T08:48:56.29Z</time></trkpt><trkpt lat="45.715158" lon="11.683771"><ele>75.0</ele><time>2026-04-12T08:48:57.281Z</time></trkpt><trkpt lat="45.7151859" lon="11.6836482"><ele>75.0</ele><time>2026-04-12T08:48:58.286Z</time></trkpt><trkpt lat="45.7152339" lon="11.6835646"><ele>75.0</ele><time>2026-04-12T08:48:59.29Z</time></trkpt><trkpt lat="45.7153399" lon="11.6835996"><ele>75.0</ele><time>2026-04-12T08:49:02.284Z</time></trkpt><trkpt lat="45.7154492" lon="11.6836372"><ele>75.0</ele><time>2026-04-12T08:49:04.284Z</time></trkpt><trkpt lat="45.715526" lon="11.6836668"><ele>75.0</ele><time>2026-04-12T08:49:06.282Z</time></trkpt><trkpt lat="45.7156294" lon="11.6837202"><ele>75.0</ele><time>2026-04-12T08:51:35.289Z</time></trkpt><trkpt lat="45.7157135" lon="11.6837228"><ele>75.0</ele><time>2026-04-12T08:51:37.296Z</time></trkpt><trkpt lat="45.7157291" lon="11.6836211"><ele>75.0</ele><time>2026-04-12T08:51:41.274Z</time></trkpt><trkpt lat="45.7156475" lon="11.6835327"><ele>75.0</ele><time>2026-04-12T08:51:44.279Z</time></trkpt><trkpt lat="45.7155724" lon="11.6834401"><ele>75.0</ele><time>2026-04-12T08:51:46.285Z</time></trkpt><trkpt lat="45.7154975" lon="11.6833645"><ele>75.0</ele><time>2026-04-12T08:51:48.275Z</time></trkpt><trkpt lat="45.7155216" lon="11.6834679"><ele>75.0</ele><time>2026-04-12T08:51:54.264Z</time></trkpt><trkpt lat="45.7154809" lon="11.6835384"><ele>75.0</ele><time>2026-04-12T08:51:55.27Z</time></trkpt><trkpt lat="45.7153502" lon="11.6835422"><ele>75.0</ele><time>2026-04-12T08:51:57.273Z</time></trkpt><trkpt lat="45.7152838" lon="11.6835245"><ele>75.0</ele><time>2026-04-12T08:51:58.279Z</time></trkpt><trkpt lat="45.7152184" lon="11.6835024"><ele>75.66666666666667</ele><time>2026-04-12T08:51:59.283Z</time></trkpt><trkpt lat="45.7151147" lon="11.6834384"><ele>76.33333333333333</ele><time>2026-04-12T08:52:01.283Z</time></trkpt><trkpt lat="45.7150324" lon="11.6834038"><ele>77.0</ele><time>2026-04-12T08:52:03.285Z</time></trkpt><trkpt lat="45.7149611" lon="11.6833677"><ele>77.66666666666666</ele><time>2026-04-12T08:52:06.279Z</time></trkpt><trkpt lat="45.7148909" lon="11.6833547"><ele>78.33333333333333</ele><time>2026-04-12T09:05:20.281Z</time></trkpt><trkpt lat="45.7148101" lon="11.6833615"><ele>79.0</ele><time>2026-04-12T09:05:22.28Z</time></trkpt><trkpt lat="45.7147329" lon="11.6833969"><ele>79.0</ele><time>2026-04-12T09:05:24.28Z</time></trkpt><trkpt lat="45.7146338" lon="11.683435"><ele>79.0</ele><time>2026-04-12T09:05:26.281Z</time></trkpt><trkpt lat="45.714521" lon="11.6834501"><ele>79.0</ele><time>2026-04-12T09:05:28.277Z</time></trkpt><trkpt lat="45.7144344" lon="11.68344"><ele>79.0</ele><time>2026-04-12T09:05:30.28Z</time></trkpt><trkpt lat="45.7143655" lon="11.6833837"><ele>79.0</ele><time>2026-04-12T09:05:33.269Z</time></trkpt><trkpt lat="45.7142935" lon="11.6833297"><ele>78.4</ele><time>2026-04-12T09:05:39.27Z</time></trkpt><trkpt lat="45.714219" lon="11.6832874"><ele>77.80000000000001</ele><time>2026-04-12T09:05:42.267Z</time></trkpt><trkpt lat="45.7141739" lon="11.6831812"><ele>77.19999999999999</ele><time>2026-04-12T09:05:46.267Z</time></trkpt><trkpt lat="45.7141263" lon="11.6830619"><ele>76.6</ele><time>2026-04-12T09:05:49.272Z</time></trkpt><trkpt lat="45.7140476" lon="11.6829906"><ele>76.0</ele><time>2026-04-12T09:05:51.272Z</time></trkpt><trkpt lat="45.7139636" lon="11.6829041"><ele>76.0</ele><time>2026-04-12T09:05:53.273Z</time></trkpt><trkpt lat="45.7138647" lon="11.6828205"><ele>76.0</ele><time>2026-04-12T09:05:55.271Z</time></trkpt><trkpt lat="45.7137625" lon="11.6827768"><ele>76.0</ele><time>2026-04-12T09:05:57.272Z</time></trkpt><trkpt lat="45.7136694" lon="11.6827271"><ele>76.0</ele><time>2026-04-12T09:05:59.28Z</time></trkpt><trkpt lat="45.71363" lon="11.6826481"><ele>76.0</ele><time>2026-04-12T09:06:01.294Z</time></trkpt><trkpt lat="45.7136495" lon="11.6825423"><ele>75.8</ele><time>2026-04-12T09:06:03.28Z</time></trkpt><trkpt lat="45.7136955" lon="11.6824226"><ele>75.6</ele><time>2026-04-12T09:06:05.275Z</time></trkpt><trkpt lat="45.7137223" lon="11.6822974"><ele>75.4</ele><time>2026-04-12T09:06:07.274Z</time></trkpt><trkpt lat="45.7137081" lon="11.6821675"><ele>75.2</ele><time>2026-04-12T09:06:09.271Z</time></trkpt><trkpt lat="45.7137086" lon="11.6819957"><ele>75.0</ele><time>2026-04-12T09:06:11.275Z</time></trkpt><trkpt lat="45.7136989" lon="11.6818369"><ele>75.0</ele><time>2026-04-12T09:06:13.279Z</time></trkpt><trkpt lat="45.713668" lon="11.6817572"><ele>75.0</ele><time>2026-04-12T09:06:14.279Z</time></trkpt><trkpt lat="45.7136244" lon="11.6816443"><ele>75.0</ele><time>2026-04-12T09:06:16.279Z</time></trkpt><trkpt lat="45.7135727" lon="11.6815341"><ele>75.0</ele><time>2026-04-12T09:06:17.287Z</time></trkpt><trkpt lat="45.7135222" lon="11.6813772"><ele>75.0</ele><time>2026-04-12T09:06:18.282Z</time></trkpt><trkpt lat="45.713482" lon="11.681226"><ele>75.0</ele><time>2026-04-12T09:06:19.277Z</time></trkpt><trkpt lat="45.7134356" lon="11.6810863"><ele>75.0</ele><time>2026-04-12T09:06:20.274Z</time></trkpt><trkpt lat="45.7133781" lon="11.6809627"><ele>75.0</ele><time>2026-04-12T09:06:21.272Z</time></trkpt><trkpt lat="45.7133256" lon="11.680864"><ele>75.0</ele><time>2026-04-12T09:06:22.279Z</time></trkpt><trkpt lat="45.7132873" lon="11.6807897"><ele>75.0</ele><time>2026-04-12T09:06:23.272Z</time></trkpt><trkpt lat="45.7132265" lon="11.6807157"><ele>75.0</ele><time>2026-04-12T09:06:24.276Z</time></trkpt><trkpt lat="45.7131692" lon="11.6806133"><ele>75.0</ele><time>2026-04-12T09:06:25.276Z</time></trkpt><trkpt lat="45.7131138" lon="11.6805056"><ele>75.0</ele><time>2026-04-12T09:06:26.282Z</time></trkpt><trkpt lat="45.7130558" lon="11.6804086"><ele>75.0</ele><time>2026-04-12T09:06:27.275Z</time></trkpt><trkpt lat="45.7129998" lon="11.680317"><ele>75.0</ele><time>2026-04-12T09:06:28.284Z</time></trkpt><trkpt lat="45.7129403" lon="11.6802275"><ele>75.0</ele><time>2026-04-12T09:06:29.278Z</time></trkpt><trkpt lat="45.7128767" lon="11.6801382"><ele>75.0</ele><time>2026-04-12T09:06:30.287Z</time></trkpt><trkpt lat="45.7128167" lon="11.680048"><ele>74.83333333333333</ele><time>2026-04-12T09:06:31.29Z</time></trkpt><trkpt lat="45.7127569" lon="11.6799578"><ele>74.66666666666667</ele><time>2026-04-12T09:06:32.277Z</time></trkpt><trkpt lat="45.7126922" lon="11.6798732"><ele>74.5</ele><time>2026-04-12T09:06:33.276Z</time></trkpt><trkpt lat="45.7126317" lon="11.6797929"><ele>74.33333333333334</ele><time>2026-04-12T09:06:34.282Z</time></trkpt><trkpt lat="45.7125707" lon="11.6797061"><ele>74.16666666666667</ele><time>2026-04-12T09:06:35.285Z</time></trkpt><trkpt lat="45.7125169" lon="11.6796555"><ele>74.0</ele><time>2026-04-12T09:06:36.288Z</time></trkpt><trkpt lat="45.7124515" lon="11.679604"><ele>74.0</ele><time>2026-04-12T09:06:39.274Z</time></trkpt><trkpt lat="45.7123657" lon="11.6795835"><ele>74.0</ele><time>2026-04-12T09:06:42.279Z</time></trkpt><trkpt lat="45.7123019" lon="11.6795649"><ele>74.0</ele><time>2026-04-12T09:06:44.28Z</time></trkpt><trkpt lat="45.7122384" lon="11.6795441"><ele>74.0</ele><time>2026-04-12T09:06:46.281Z</time></trkpt><trkpt lat="45.7121552" lon="11.6794992"><ele>74.0</ele><time>2026-04-12T09:06:48.279Z</time></trkpt><trkpt lat="45.7120697" lon="11.6794645"><ele>74.0</ele><time>2026-04-12T09:06:50.28Z</time></trkpt><trkpt lat="45.7119759" lon="11.6793867"><ele>74.16666666666667</ele><time>2026-04-12T09:06:52.28Z</time></trkpt><trkpt lat="45.7119184" lon="11.6793354"><ele>74.33333333333334</ele><time>2026-04-12T09:06:53.286Z</time></trkpt><trkpt lat="45.7118556" lon="11.6792975"><ele>74.5</ele><time>2026-04-12T09:06:54.305Z</time></trkpt><trkpt lat="45.711785" lon="11.6792565"><ele>74.66666666666667</ele><time>2026-04-12T09:06:55.282Z</time></trkpt><trkpt lat="45.7117113" lon="11.6792374"><ele>74.83333333333333</ele><time>2026-04-12T09:06:56.29Z</time></trkpt><trkpt lat="45.7116292" lon="11.6792588"><ele>75.0</ele><time>2026-04-12T09:06:57.285Z</time></trkpt><trkpt lat="45.7115516" lon="11.6792928"><ele>75.16666666666667</ele><time>2026-04-12T09:06:58.285Z</time></trkpt><trkpt lat="45.7114783" lon="11.6793409"><ele>75.33333333333333</ele><time>2026-04-12T09:06:59.281Z</time></trkpt><trkpt lat="45.7114065" lon="11.6793955"><ele>75.5</ele><time>2026-04-12T09:07:00.282Z</time></trkpt><trkpt lat="45.7113349" lon="11.6794514"><ele>75.66666666666666</ele><time>2026-04-12T09:07:01.286Z</time></trkpt><trkpt lat="45.7112571" lon="11.6795105"><ele>75.83333333333333</ele><time>2026-04-12T09:07:02.292Z</time></trkpt><trkpt lat="45.7111853" lon="11.6795704"><ele>76.0</ele><time>2026-04-12T09:07:03.279Z</time></trkpt><trkpt lat="45.7111166" lon="11.6796254"><ele>75.71428571428571</ele><time>2026-04-12T09:07:04.285Z</time></trkpt><trkpt lat="45.7110491" lon="11.6796672"><ele>75.42857142857143</ele><time>2026-04-12T09:07:05.282Z</time></trkpt><trkpt lat="45.7109839" lon="11.6797203"><ele>75.14285714285714</ele><time>2026-04-12T09:07:06.284Z</time></trkpt><trkpt lat="45.7109248" lon="11.6797833"><ele>74.85714285714286</ele><time>2026-04-12T09:07:07.284Z</time></trkpt><trkpt lat="45.7108748" lon="11.67986"><ele>74.57142857142857</ele><time>2026-04-12T09:07:08.282Z</time></trkpt><trkpt lat="45.7108329" lon="11.6799525"><ele>74.28571428571429</ele><time>2026-04-12T09:07:09.28Z</time></trkpt><trkpt lat="45.7107973" lon="11.6800499"><ele>74.0</ele><time>2026-04-12T09:07:10.286Z</time></trkpt><trkpt lat="45.7107642" lon="11.6801544"><ele>74.0</ele><time>2026-04-12T09:07:11.287Z</time></trkpt><trkpt lat="45.7107337" lon="11.6802558"><ele>74.0</ele><time>2026-04-12T09:07:12.285Z</time></trkpt><trkpt lat="45.7107078" lon="11.6803552"><ele>74.0</ele><time>2026-04-12T09:07:13.284Z</time></trkpt><trkpt lat="45.7106844" lon="11.680456"><ele>74.0</ele><time>2026-04-12T09:07:14.283Z</time></trkpt><trkpt lat="45.7106472" lon="11.6805456"><ele>74.0</ele><time>2026-04-12T09:07:15.284Z</time></trkpt><trkpt lat="45.7105937" lon="11.6806268"><ele>74.0</ele><time>2026-04-12T09:07:16.291Z</time></trkpt><trkpt lat="45.7105339" lon="11.6807022"><ele>74.0</ele><time>2026-04-12T09:07:17.282Z</time></trkpt><trkpt lat="45.7104697" lon="11.6807871"><ele>74.0</ele><time>2026-04-12T09:07:18.288Z</time></trkpt><trkpt lat="45.710409" lon="11.6808639"><ele>74.0</ele><time>2026-04-12T09:07:19.277Z</time></trkpt><trkpt lat="45.710354" lon="11.6809422"><ele>74.0</ele><time>2026-04-12T09:07:20.287Z</time></trkpt><trkpt lat="45.7103068" lon="11.6810277"><ele>74.0</ele><time>2026-04-12T09:07:21.272Z</time></trkpt><trkpt lat="45.7102555" lon="11.6811158"><ele>74.0</ele><time>2026-04-12T09:07:22.285Z</time></trkpt><trkpt lat="45.7101996" lon="11.6811804"><ele>73.83333333333334</ele><time>2026-04-12T09:07:23.282Z</time></trkpt><trkpt lat="45.7101385" lon="11.6812203"><ele>73.66666666666667</ele><time>2026-04-12T09:07:24.275Z</time></trkpt><trkpt lat="45.7100308" lon="11.6813143"><ele>73.5</ele><time>2026-04-12T09:07:26.281Z</time></trkpt><trkpt lat="45.7099812" lon="11.6813727"><ele>73.33333333333333</ele><time>2026-04-12T09:07:27.273Z</time></trkpt><trkpt lat="45.709888" lon="11.681466"><ele>73.16666666666666</ele><time>2026-04-12T09:07:29.278Z</time></trkpt><trkpt lat="45.7098197" lon="11.6815063"><ele>73.0</ele><time>2026-04-12T09:07:31.276Z</time></trkpt><trkpt lat="45.7097683" lon="11.6815613"><ele>73.0</ele><time>2026-04-12T09:07:47.294Z</time></trkpt><trkpt lat="45.7098113" lon="11.6816454"><ele>73.0</ele><time>2026-04-12T09:07:50.281Z</time></trkpt><trkpt lat="45.7099041" lon="11.6817394"><ele>73.0</ele><time>2026-04-12T09:07:52.285Z</time></trkpt><trkpt lat="45.7099775" lon="11.6817675"><ele>73.0</ele><time>2026-04-12T09:07:53.281Z</time></trkpt><trkpt lat="45.7100588" lon="11.6817851"><ele>73.0</ele><time>2026-04-12T09:07:54.284Z</time></trkpt><trkpt lat="45.7101378" lon="11.6818096"><ele>73.0</ele><time>2026-04-12T09:07:55.282Z</time></trkpt><trkpt lat="45.7102162" lon="11.6818316"><ele>73.0</ele><time>2026-04-12T09:07:56.289Z</time></trkpt><trkpt lat="45.710285" lon="11.6818512"><ele>73.0</ele><time>2026-04-12T09:07:57.279Z</time></trkpt><trkpt lat="45.7103507" lon="11.6818731"><ele>73.0</ele><time>2026-04-12T09:07:58.286Z</time></trkpt><trkpt lat="45.7104159" lon="11.6818949"><ele>73.0</ele><time>2026-04-12T09:07:59.278Z</time></trkpt><trkpt lat="45.7104793" lon="11.6819184"><ele>73.0</ele><time>2026-04-12T09:08:00.285Z</time></trkpt><trkpt lat="45.7105443" lon="11.6819396"><ele>73.0</ele><time>2026-04-12T09:08:01.28Z</time></trkpt><trkpt lat="45.7106108" lon="11.6819483"><ele>73.0</ele><time>2026-04-12T09:08:02.287Z</time></trkpt><trkpt lat="45.710725" lon="11.6819721"><ele>73.0</ele><time>2026-04-12T09:08:04.294Z</time></trkpt><trkpt lat="45.7108058" lon="11.6820008"><ele>73.0</ele><time>2026-04-12T09:08:06.293Z</time></trkpt><trkpt lat="45.7108865" lon="11.6819959"><ele>73.0</ele><time>2026-04-12T09:08:08.292Z</time></trkpt><trkpt lat="45.7109843" lon="11.6819832"><ele>73.0</ele><time>2026-04-12T09:08:10.291Z</time></trkpt><trkpt lat="45.7110952" lon="11.6819514"><ele>73.0</ele><time>2026-04-12T09:08:12.284Z</time></trkpt><trkpt lat="45.7111849" lon="11.6818739"><ele>73.5</ele><time>2026-04-12T09:08:14.283Z</time></trkpt><trkpt lat="45.7112274" lon="11.6817132"><ele>74.0</ele><time>2026-04-12T09:08:16.29Z</time></trkpt><trkpt lat="45.7112458" lon="11.6816234"><ele>74.5</ele><time>2026-04-12T09:08:17.281Z</time></trkpt><trkpt lat="45.711263" lon="11.681532"><ele>75.0</ele><time>2026-04-12T09:08:18.292Z</time></trkpt><trkpt lat="45.7112947" lon="11.6813866"><ele>75.5</ele><time>2026-04-12T09:08:20.288Z</time></trkpt><trkpt lat="45.7113433" lon="11.6812775"><ele>76.0</ele><time>2026-04-12T09:08:22.289Z</time></trkpt><trkpt lat="45.7114099" lon="11.681226"><ele>76.0</ele><time>2026-04-12T09:08:24.291Z</time></trkpt><trkpt lat="45.7114948" lon="11.6811614"><ele>76.0</ele><time>2026-04-12T09:08:27.284Z</time></trkpt><trkpt lat="45.7115605" lon="11.6811417"><ele>76.0</ele><time>2026-04-12T09:08:29.284Z</time></trkpt><trkpt lat="45.7116329" lon="11.6811466"><ele>76.0</ele><time>2026-04-12T09:08:31.287Z</time></trkpt><trkpt lat="45.7117264" lon="11.6811342"><ele>76.0</ele><time>2026-04-12T09:08:33.287Z</time></trkpt><trkpt lat="45.7118343" lon="11.6811318"><ele>76.0</ele><time>2026-04-12T09:08:35.291Z</time></trkpt><trkpt lat="45.7119542" lon="11.6811748"><ele>76.0</ele><time>2026-04-12T09:08:37.285Z</time></trkpt><trkpt lat="45.7120582" lon="11.6812496"><ele>76.0</ele><time>2026-04-12T09:08:39.287Z</time></trkpt><trkpt lat="45.7121546" lon="11.6813368"><ele>76.0</ele><time>2026-04-12T09:08:41.286Z</time></trkpt><trkpt lat="45.7122752" lon="11.6813818"><ele>76.0</ele><time>2026-04-12T09:08:43.278Z</time></trkpt><trkpt lat="45.7123295" lon="11.6814282"><ele>76.0</ele><time>2026-04-12T09:08:44.285Z</time></trkpt><trkpt lat="45.7123847" lon="11.6815489"><ele>76.0</ele><time>2026-04-12T09:08:46.283Z</time></trkpt><trkpt lat="45.7124389" lon="11.6816728"><ele>76.0</ele><time>2026-04-12T09:08:48.284Z</time></trkpt><trkpt lat="45.7125317" lon="11.6817115"><ele>76.0</ele><time>2026-04-12T09:08:50.286Z</time></trkpt><trkpt lat="45.7126384" lon="11.6816709"><ele>76.0</ele><time>2026-04-12T09:08:52.283Z</time></trkpt><trkpt lat="45.7127324" lon="11.6816456"><ele>76.0</ele><time>2026-04-12T09:08:54.288Z</time></trkpt><trkpt lat="45.7128367" lon="11.6816944"><ele>75.71428571428571</ele><time>2026-04-12T09:08:56.291Z</time></trkpt><trkpt lat="45.7128893" lon="11.6817562"><ele>75.42857142857143</ele><time>2026-04-12T09:08:57.28Z</time></trkpt><trkpt lat="45.7129302" lon="11.6818327"><ele>75.14285714285714</ele><time>2026-04-12T09:08:58.289Z</time></trkpt><trkpt lat="45.712974" lon="11.6819243"><ele>74.85714285714286</ele><time>2026-04-12T09:08:59.292Z</time></trkpt><trkpt lat="45.7130155" lon="11.6820117"><ele>74.57142857142857</ele><time>2026-04-12T09:09:00.291Z</time></trkpt><trkpt lat="45.7130521" lon="11.6820923"><ele>74.28571428571429</ele><time>2026-04-12T09:09:01.29Z</time></trkpt><trkpt lat="45.7130955" lon="11.6821655"><ele>74.0</ele><time>2026-04-12T09:09:02.289Z</time></trkpt><trkpt lat="45.713142" lon="11.6822349"><ele>73.85714285714286</ele><time>2026-04-12T09:09:03.294Z</time></trkpt><trkpt lat="45.7131936" lon="11.6822985"><ele>73.71428571428571</ele><time>2026-04-12T09:09:04.286Z</time></trkpt><trkpt lat="45.7132458" lon="11.6823584"><ele>73.57142857142857</ele><time>2026-04-12T09:09:05.288Z</time></trkpt><trkpt lat="45.7133031" lon="11.6824211"><ele>73.42857142857143</ele><time>2026-04-12T09:09:06.297Z</time></trkpt><trkpt lat="45.7133609" lon="11.6824789"><ele>73.28571428571429</ele><time>2026-04-12T09:09:07.285Z</time></trkpt><trkpt lat="45.71342" lon="11.6825265"><ele>73.14285714285714</ele><time>2026-04-12T09:09:08.292Z</time></trkpt><trkpt lat="45.7134812" lon="11.6825766"><ele>73.0</ele><time>2026-04-12T09:09:09.284Z</time></trkpt><trkpt lat="45.7135416" lon="11.6826248"><ele>73.33333333333333</ele><time>2026-04-12T09:09:10.286Z</time></trkpt><trkpt lat="45.7136507" lon="11.6827086"><ele>73.66666666666666</ele><time>2026-04-12T09:09:12.291Z</time></trkpt><trkpt lat="45.7137417" lon="11.6827749"><ele>74.0</ele><time>2026-04-12T09:09:14.289Z</time></trkpt><trkpt lat="45.7137822" lon="11.6828648"><ele>74.33333333333333</ele><time>2026-04-12T09:09:17.291Z</time></trkpt><trkpt lat="45.7137225" lon="11.6829269"><ele>74.66666666666667</ele><time>2026-04-12T09:09:19.294Z</time></trkpt><trkpt lat="45.7136622" lon="11.6829576"><ele>75.0</ele><time>2026-04-12T09:09:20.285Z</time></trkpt><trkpt lat="45.713598" lon="11.6829892"><ele>74.6</ele><time>2026-04-12T09:09:21.292Z</time></trkpt><trkpt lat="45.7135153" lon="11.6830567"><ele>74.2</ele><time>2026-04-12T09:09:23.289Z</time></trkpt><trkpt lat="45.7134535" lon="11.6831411"><ele>73.8</ele><time>2026-04-12T09:09:25.281Z</time></trkpt><trkpt lat="45.7133714" lon="11.6831984"><ele>73.4</ele><time>2026-04-12T09:09:27.284Z</time></trkpt><trkpt lat="45.7132853" lon="11.6831553"><ele>73.0</ele><time>2026-04-12T09:09:29.282Z</time></trkpt><trkpt lat="45.7131807" lon="11.6830867"><ele>73.0</ele><time>2026-04-12T09:09:31.284Z</time></trkpt><trkpt lat="45.7130682" lon="11.6830457"><ele>73.0</ele><time>2026-04-12T09:09:33.282Z</time></trkpt><trkpt lat="45.7130042" lon="11.6830228"><ele>73.0</ele><time>2026-04-12T09:09:34.288Z</time></trkpt><trkpt lat="45.7129396" lon="11.6829888"><ele>73.0</ele><time>2026-04-12T09:09:35.289Z</time></trkpt><trkpt lat="45.7128286" lon="11.6829736"><ele>73.0</ele><time>2026-04-12T09:09:37.287Z</time></trkpt><trkpt lat="45.7127225" lon="11.6829619"><ele>73.2</ele><time>2026-04-12T09:09:39.282Z</time></trkpt><trkpt lat="45.7126112" lon="11.6829452"><ele>73.4</ele><time>2026-04-12T09:09:41.277Z</time></trkpt><trkpt lat="45.7125009" lon="11.682881"><ele>73.60000000000001</ele><time>2026-04-12T09:09:43.285Z</time></trkpt><trkpt lat="45.7124365" lon="11.6828447"><ele>73.8</ele><time>2026-04-12T09:09:44.291Z</time></trkpt><trkpt lat="45.7123735" lon="11.6828159"><ele>74.0</ele><time>2026-04-12T09:09:45.281Z</time></trkpt><trkpt lat="45.712271" lon="11.6827543"><ele>74.0</ele><time>2026-04-12T09:09:47.278Z</time></trkpt><trkpt lat="45.7121691" lon="11.6827435"><ele>74.0</ele><time>2026-04-12T09:09:49.279Z</time></trkpt><trkpt lat="45.7120532" lon="11.6827619"><ele>74.0</ele><time>2026-04-12T09:09:51.285Z</time></trkpt><trkpt lat="45.7119901" lon="11.6827642"><ele>74.0</ele><time>2026-04-12T09:09:52.286Z</time></trkpt><trkpt lat="45.7119234" lon="11.6827602"><ele>74.0</ele><time>2026-04-12T09:09:53.294Z</time></trkpt><trkpt lat="45.7118569" lon="11.6827394"><ele>74.0</ele><time>2026-04-12T09:09:54.286Z</time></trkpt><trkpt lat="45.7117439" lon="11.682717"><ele>74.0</ele><time>2026-04-12T09:09:56.286Z</time></trkpt><trkpt lat="45.711655" lon="11.6827528"><ele>74.0</ele><time>2026-04-12T09:09:58.284Z</time></trkpt><trkpt lat="45.7115772" lon="11.6827846"><ele>74.0</ele><time>2026-04-12T09:10:00.285Z</time></trkpt><trkpt lat="45.7114939" lon="11.6827562"><ele>74.0</ele><time>2026-04-12T09:10:02.286Z</time></trkpt><trkpt lat="45.7114197" lon="11.6827665"><ele>74.0</ele><time>2026-04-12T09:10:04.279Z</time></trkpt><trkpt lat="45.7113117" lon="11.6827945"><ele>74.0</ele><time>2026-04-12T09:10:06.277Z</time></trkpt><trkpt lat="45.7112006" lon="11.6828445"><ele>73.8</ele><time>2026-04-12T09:10:08.289Z</time></trkpt><trkpt lat="45.7110825" lon="11.6828922"><ele>73.60000000000001</ele><time>2026-04-12T09:10:10.284Z</time></trkpt><trkpt lat="45.710963" lon="11.6829007"><ele>73.4</ele><time>2026-04-12T09:10:12.278Z</time></trkpt><trkpt lat="45.7108912" lon="11.6828893"><ele>73.2</ele><time>2026-04-12T09:10:13.285Z</time></trkpt><trkpt lat="45.7108136" lon="11.6828848"><ele>73.0</ele><time>2026-04-12T09:10:14.275Z</time></trkpt><trkpt lat="45.710739" lon="11.6828978"><ele>72.83333333333333</ele><time>2026-04-12T09:10:15.285Z</time></trkpt><trkpt lat="45.7106576" lon="11.682896"><ele>72.66666666666666</ele><time>2026-04-12T09:10:16.281Z</time></trkpt><trkpt lat="45.7105731" lon="11.6828959"><ele>72.5</ele><time>2026-04-12T09:10:17.277Z</time></trkpt><trkpt lat="45.7104779" lon="11.6828887"><ele>72.33333333333333</ele><time>2026-04-12T09:10:18.285Z</time></trkpt><trkpt lat="45.7103901" lon="11.6828914"><ele>72.16666666666667</ele><time>2026-04-12T09:10:19.283Z</time></trkpt><trkpt lat="45.7103037" lon="11.682908"><ele>72.0</ele><time>2026-04-12T09:10:20.291Z</time></trkpt><trkpt lat="45.7102228" lon="11.6829222"><ele>72.33333333333333</ele><time>2026-04-12T09:10:21.278Z</time></trkpt><trkpt lat="45.7101418" lon="11.682913"><ele>72.66666666666667</ele><time>2026-04-12T09:10:22.291Z</time></trkpt><trkpt lat="45.7100616" lon="11.6828667"><ele>73.0</ele><time>2026-04-12T09:10:23.285Z</time></trkpt><trkpt lat="45.70998" lon="11.6828195"><ele>73.33333333333334</ele><time>2026-04-12T09:10:24.285Z</time></trkpt><trkpt lat="45.7098983" lon="11.6827945"><ele>73.66666666666667</ele><time>2026-04-12T09:10:25.28Z</time></trkpt><trkpt lat="45.7098125" lon="11.682778"><ele>74.0</ele><time>2026-04-12T09:10:26.294Z</time></trkpt><trkpt lat="45.7097251" lon="11.6827597"><ele>74.16666666666667</ele><time>2026-04-12T09:10:27.284Z</time></trkpt><trkpt lat="45.70964" lon="11.682735"><ele>74.33333333333334</ele><time>2026-04-12T09:10:28.287Z</time></trkpt><trkpt lat="45.7095598" lon="11.6827325"><ele>74.5</ele><time>2026-04-12T09:10:29.284Z</time></trkpt><trkpt lat="45.7094756" lon="11.6827543"><ele>74.66666666666667</ele><time>2026-04-12T09:10:30.287Z</time></trkpt><trkpt lat="45.7093945" lon="11.6827832"><ele>74.83333333333333</ele><time>2026-04-12T09:10:31.28Z</time></trkpt><trkpt lat="45.7093209" lon="11.6828197"><ele>75.0</ele><time>2026-04-12T09:10:32.288Z</time></trkpt><trkpt lat="45.7092601" lon="11.6828702"><ele>74.5</ele><time>2026-04-12T09:10:33.283Z</time></trkpt><trkpt lat="45.7092079" lon="11.6829294"><ele>74.0</ele><time>2026-04-12T09:10:34.279Z</time></trkpt><trkpt lat="45.7091634" lon="11.6829953"><ele>73.5</ele><time>2026-04-12T09:10:35.28Z</time></trkpt><trkpt lat="45.7090986" lon="11.6831133"><ele>73.0</ele><time>2026-04-12T09:10:37.273Z</time></trkpt><trkpt lat="45.7090224" lon="11.6831927"><ele>72.5</ele><time>2026-04-12T09:10:39.297Z</time></trkpt><trkpt lat="45.7089484" lon="11.6833062"><ele>72.0</ele><time>2026-04-12T09:10:41.282Z</time></trkpt><trkpt lat="45.7088435" lon="11.6833311"><ele>72.0</ele><time>2026-04-12T09:10:43.284Z</time></trkpt><trkpt lat="45.7087113" lon="11.6833237"><ele>72.0</ele><time>2026-04-12T09:10:45.275Z</time></trkpt><trkpt lat="45.7086485" lon="11.6833169"><ele>72.0</ele><time>2026-04-12T09:10:46.283Z</time></trkpt><trkpt lat="45.7085777" lon="11.6832943"><ele>72.0</ele><time>2026-04-12T09:10:47.283Z</time></trkpt><trkpt lat="45.7085107" lon="11.6832665"><ele>72.0</ele><time>2026-04-12T09:10:48.283Z</time></trkpt><trkpt lat="45.7084491" lon="11.6832475"><ele>72.0</ele><time>2026-04-12T09:10:49.274Z</time></trkpt><trkpt lat="45.7083848" lon="11.6832455"><ele>72.14285714285715</ele><time>2026-04-12T09:10:50.278Z</time></trkpt><trkpt lat="45.7083139" lon="11.6832527"><ele>72.28571428571429</ele><time>2026-04-12T09:10:51.274Z</time></trkpt><trkpt lat="45.7082436" lon="11.6832665"><ele>72.42857142857143</ele><time>2026-04-12T09:10:52.282Z</time></trkpt><trkpt lat="45.7081766" lon="11.6832781"><ele>72.57142857142858</ele><time>2026-04-12T09:10:53.283Z</time></trkpt><trkpt lat="45.7081155" lon="11.6833075"><ele>72.71428571428572</ele><time>2026-04-12T09:10:54.282Z</time></trkpt><trkpt lat="45.708053" lon="11.6833507"><ele>72.85714285714286</ele><time>2026-04-12T09:10:55.277Z</time></trkpt><trkpt lat="45.7079902" lon="11.6834025"><ele>73.0</ele><time>2026-04-12T09:10:56.283Z</time></trkpt><trkpt lat="45.7079371" lon="11.6834607"><ele>73.0</ele><time>2026-04-12T09:10:57.276Z</time></trkpt><trkpt lat="45.7078884" lon="11.6835274"><ele>73.0</ele><time>2026-04-12T09:10:58.282Z</time></trkpt><trkpt lat="45.707832" lon="11.6835956"><ele>73.0</ele><time>2026-04-12T09:10:59.274Z</time></trkpt><trkpt lat="45.7077784" lon="11.6836573"><ele>73.0</ele><time>2026-04-12T09:11:00.281Z</time></trkpt><trkpt lat="45.7076869" lon="11.6837405"><ele>73.0</ele><time>2026-04-12T09:11:02.285Z</time></trkpt><trkpt lat="45.707589" lon="11.6837725"><ele>73.0</ele><time>2026-04-12T09:11:04.284Z</time></trkpt><trkpt lat="45.7074979" lon="11.6837478"><ele>72.5</ele><time>2026-04-12T09:11:06.287Z</time></trkpt><trkpt lat="45.7073744" lon="11.6836985"><ele>72.0</ele><time>2026-04-12T09:11:08.285Z</time></trkpt><trkpt lat="45.7072952" lon="11.6836902"><ele>71.5</ele><time>2026-04-12T09:11:09.283Z</time></trkpt><trkpt lat="45.7072199" lon="11.6836884"><ele>71.0</ele><time>2026-04-12T09:11:10.287Z</time></trkpt><trkpt lat="45.7071465" lon="11.683689"><ele>70.5</ele><time>2026-04-12T09:11:11.288Z</time></trkpt><trkpt lat="45.7070806" lon="11.6836811"><ele>70.0</ele><time>2026-04-12T09:11:12.281Z</time></trkpt><trkpt lat="45.7070172" lon="11.6836612"><ele>70.0</ele><time>2026-04-12T09:11:13.289Z</time></trkpt><trkpt lat="45.706914" lon="11.6835882"><ele>70.0</ele><time>2026-04-12T09:11:15.291Z</time></trkpt><trkpt lat="45.7068496" lon="11.6835388"><ele>70.0</ele><time>2026-04-12T09:11:17.291Z</time></trkpt><trkpt lat="45.7068578" lon="11.6836331"><ele>70.0</ele><time>2026-04-12T09:11:34.287Z</time></trkpt><trkpt lat="45.7069205" lon="11.6836444"><ele>70.0</ele><time>2026-04-12T09:11:36.283Z</time></trkpt><trkpt lat="45.7069196" lon="11.6835541"><ele>70.0</ele><time>2026-04-12T09:11:40.299Z</time></trkpt><trkpt lat="45.7068854" lon="11.6834409"><ele>69.5</ele><time>2026-04-12T09:11:43.286Z</time></trkpt><trkpt lat="45.7068432" lon="11.6833449"><ele>69.0</ele><time>2026-04-12T09:11:45.282Z</time></trkpt><trkpt lat="45.7067871" lon="11.6832596"><ele>68.5</ele><time>2026-04-12T09:11:50.286Z</time></trkpt><trkpt lat="45.7067446" lon="11.6831801"><ele>68.0</ele><time>2026-04-12T09:11:53.283Z</time></trkpt><trkpt lat="45.7067207" lon="11.683084"><ele>67.5</ele><time>2026-04-12T09:29:34.293Z</time></trkpt><trkpt lat="45.7066954" lon="11.6829796"><ele>67.0</ele><time>2026-04-12T09:29:37.285Z</time></trkpt><trkpt lat="45.7066885" lon="11.6828721"><ele>67.0</ele><time>2026-04-12T09:29:40.292Z</time></trkpt><trkpt lat="45.7066967" lon="11.6827737"><ele>67.0</ele><time>2026-04-12T09:29:42.291Z</time></trkpt><trkpt lat="45.7066336" lon="11.6826946"><ele>67.0</ele><time>2026-04-12T09:29:49.281Z</time></trkpt><trkpt lat="45.7065788" lon="11.6828152"><ele>67.0</ele><time>2026-04-12T09:29:51.277Z</time></trkpt><trkpt lat="45.7064795" lon="11.6829624"><ele>67.0</ele><time>2026-04-12T09:29:53.279Z</time></trkpt><trkpt lat="45.7063974" lon="11.6830736"><ele>67.0</ele><time>2026-04-12T09:29:55.295Z</time></trkpt><trkpt lat="45.7063565" lon="11.6831629"><ele>67.0</ele><time>2026-04-12T09:29:57.286Z</time></trkpt><trkpt lat="45.7063055" lon="11.6832316"><ele>67.0</ele><time>2026-04-12T09:30:00.292Z</time></trkpt><trkpt lat="45.7062202" lon="11.6831764"><ele>67.0</ele><time>2026-04-12T09:30:03.288Z</time></trkpt><trkpt lat="45.7061682" lon="11.6830957"><ele>67.0</ele><time>2026-04-12T09:30:05.29Z</time></trkpt><trkpt lat="45.7060907" lon="11.6830702"><ele>67.0</ele><time>2026-04-12T09:30:08.286Z</time></trkpt><trkpt lat="45.7060136" lon="11.6830427"><ele>67.16666666666666</ele><time>2026-04-12T09:30:10.285Z</time></trkpt><trkpt lat="45.7059372" lon="11.6830157"><ele>67.33333333333333</ele><time>2026-04-12T09:30:13.292Z</time></trkpt><trkpt lat="45.7058758" lon="11.6829288"><ele>67.5</ele><time>2026-04-12T09:30:16.286Z</time></trkpt><trkpt lat="45.7058153" lon="11.6828586"><ele>67.66666666666667</ele><time>2026-04-12T09:30:18.286Z</time></trkpt><trkpt lat="45.7057715" lon="11.6827913"><ele>67.83333333333334</ele><time>2026-04-12T09:30:22.287Z</time></trkpt><trkpt lat="45.7056853" lon="11.682678"><ele>68.0</ele><time>2026-04-12T09:30:25.294Z</time></trkpt><trkpt lat="45.7056365" lon="11.6826134"><ele>68.33333333333334</ele><time>2026-04-12T09:30:26.293Z</time></trkpt><trkpt lat="45.7055832" lon="11.682549"><ele>68.66666666666667</ele><time>2026-04-12T09:30:27.289Z</time></trkpt><trkpt lat="45.7054899" lon="11.6824573"><ele>69.0</ele><time>2026-04-12T09:30:29.287Z</time></trkpt><trkpt lat="45.7054176" lon="11.6824015"><ele>69.33333333333333</ele><time>2026-04-12T09:30:32.296Z</time></trkpt><trkpt lat="45.7053588" lon="11.6823459"><ele>69.66666666666666</ele><time>2026-04-12T09:30:34.288Z</time></trkpt><trkpt lat="45.705296" lon="11.6822747"><ele>70.0</ele><time>2026-04-12T09:30:37.296Z</time></trkpt><trkpt lat="45.7052233" lon="11.6822242"><ele>70.0</ele><time>2026-04-12T09:30:40.289Z</time></trkpt><trkpt lat="45.7051244" lon="11.682183"><ele>70.0</ele><time>2026-04-12T09:30:43.303Z</time></trkpt><trkpt lat="45.7050642" lon="11.6821212"><ele>70.0</ele><time>2026-04-12T09:30:45.297Z</time></trkpt><trkpt lat="45.7050208" lon="11.6820391"><ele>70.0</ele><time>2026-04-12T09:30:47.297Z</time></trkpt><trkpt lat="45.704965" lon="11.6819808"><ele>70.0</ele><time>2026-04-12T09:30:49.296Z</time></trkpt><trkpt lat="45.7048726" lon="11.6820003"><ele>70.0</ele><time>2026-04-12T09:30:52.287Z</time></trkpt><trkpt lat="45.7048062" lon="11.6820899"><ele>70.0</ele><time>2026-04-12T09:30:54.294Z</time></trkpt><trkpt lat="45.70474" lon="11.6821655"><ele>70.0</ele><time>2026-04-12T09:30:56.287Z</time></trkpt><trkpt lat="45.7046651" lon="11.6822187"><ele>70.0</ele><time>2026-04-12T09:30:58.287Z</time></trkpt><trkpt lat="45.7045818" lon="11.6822378"><ele>70.0</ele><time>2026-04-12T09:31:00.29Z</time></trkpt><trkpt lat="45.7044991" lon="11.6821998"><ele>70.0</ele><time>2026-04-12T09:31:02.288Z</time></trkpt><trkpt lat="45.7044058" lon="11.682182"><ele>70.0</ele><time>2026-04-12T09:31:04.279Z</time></trkpt><trkpt lat="45.7043303" lon="11.6821594"><ele>70.0</ele><time>2026-04-12T09:31:06.288Z</time></trkpt><trkpt lat="45.7042732" lon="11.6820682"><ele>70.0</ele><time>2026-04-12T09:31:08.291Z</time></trkpt><trkpt lat="45.7042121" lon="11.6819727"><ele>70.0</ele><time>2026-04-12T09:31:10.293Z</time></trkpt><trkpt lat="45.7041839" lon="11.6818707"><ele>70.0</ele><time>2026-04-12T09:31:13.292Z</time></trkpt><trkpt lat="45.7041939" lon="11.6817519"><ele>70.0</ele><time>2026-04-12T09:31:16.288Z</time></trkpt><trkpt lat="45.7041561" lon="11.6816631"><ele>70.0</ele><time>2026-04-12T09:31:18.293Z</time></trkpt><trkpt lat="45.7040942" lon="11.6816155"><ele>70.0</ele><time>2026-04-12T09:31:20.297Z</time></trkpt><trkpt lat="45.7040071" lon="11.681619"><ele>70.0</ele><time>2026-04-12T09:31:22.29Z</time></trkpt><trkpt lat="45.7039115" lon="11.6816727"><ele>70.0</ele><time>2026-04-12T09:31:24.289Z</time></trkpt><trkpt lat="45.7038505" lon="11.6817821"><ele>70.0</ele><time>2026-04-12T09:31:26.288Z</time></trkpt><trkpt lat="45.7037917" lon="11.6818727"><ele>70.0</ele><time>2026-04-12T09:31:28.294Z</time></trkpt><trkpt lat="45.7037628" lon="11.6819579"><ele>70.0</ele><time>2026-04-12T09:31:32.284Z</time></trkpt><trkpt lat="45.7036931" lon="11.6820017"><ele>70.0</ele><time>2026-04-12T09:31:35.293Z</time></trkpt><trkpt lat="45.7036144" lon="11.6819477"><ele>70.0</ele><time>2026-04-12T09:31:37.281Z</time></trkpt><trkpt lat="45.7035116" lon="11.6818953"><ele>70.0</ele><time>2026-04-12T09:31:39.286Z</time></trkpt><trkpt lat="45.7034153" lon="11.6818149"><ele>70.0</ele><time>2026-04-12T09:31:41.285Z</time></trkpt><trkpt lat="45.7033474" lon="11.68172"><ele>70.0</ele><time>2026-04-12T09:31:43.287Z</time></trkpt><trkpt lat="45.7033024" lon="11.6816522"><ele>70.0</ele><time>2026-04-12T09:31:45.292Z</time></trkpt><trkpt lat="45.7032395" lon="11.6816385"><ele>70.0</ele><time>2026-04-12T09:31:50.29Z</time></trkpt><trkpt lat="45.7031531" lon="11.6815816"><ele>70.0</ele><time>2026-04-12T09:31:53.294Z</time></trkpt><trkpt lat="45.7030912" lon="11.6816102"><ele>70.0</ele><time>2026-04-12T09:32:22.279Z</time></trkpt><trkpt lat="45.7030474" lon="11.6816772"><ele>70.0</ele><time>2026-04-12T09:32:26.284Z</time></trkpt><trkpt lat="45.7029772" lon="11.6816672"><ele>70.0</ele><time>2026-04-12T09:32:31.291Z</time></trkpt><trkpt lat="45.7029505" lon="11.6815644"><ele>70.0</ele><time>2026-04-12T09:32:35.285Z</time></trkpt><trkpt lat="45.7029267" lon="11.6814463"><ele>70.0</ele><time>2026-04-12T09:32:38.291Z</time></trkpt><trkpt lat="45.7028846" lon="11.6813395"><ele>70.0</ele><time>2026-04-12T09:32:41.293Z</time></trkpt><trkpt lat="45.7028326" lon="11.6812605"><ele>70.0</ele><time>2026-04-12T09:32:43.291Z</time></trkpt><trkpt lat="45.7027638" lon="11.6812008"><ele>70.0</ele><time>2026-04-12T09:32:45.296Z</time></trkpt><trkpt lat="45.7027015" lon="11.6811574"><ele>70.0</ele><time>2026-04-12T09:32:47.296Z</time></trkpt><trkpt lat="45.7026579" lon="11.6810861"><ele>70.0</ele><time>2026-04-12T09:32:49.297Z</time></trkpt><trkpt lat="45.7025946" lon="11.6810558"><ele>70.0</ele><time>2026-04-12T09:32:52.289Z</time></trkpt><trkpt lat="45.7025184" lon="11.6810681"><ele>69.83333333333333</ele><time>2026-04-12T09:32:55.294Z</time></trkpt><trkpt lat="45.7024422" lon="11.6810568"><ele>69.66666666666666</ele><time>2026-04-12T09:32:59.294Z</time></trkpt><trkpt lat="45.7025154" lon="11.6809667"><ele>69.5</ele><time>2026-04-12T09:33:16.295Z</time></trkpt><trkpt lat="45.7025591" lon="11.6808632"><ele>69.33333333333333</ele><time>2026-04-12T09:33:18.302Z</time></trkpt><trkpt lat="45.7026142" lon="11.6807867"><ele>69.16666666666667</ele><time>2026-04-12T09:33:20.292Z</time></trkpt><trkpt lat="45.7026639" lon="11.6806714"><ele>69.0</ele><time>2026-04-12T09:33:42.294Z</time></trkpt><trkpt lat="45.7026874" lon="11.6805625"><ele>69.0</ele><time>2026-04-12T09:33:45.299Z</time></trkpt><trkpt lat="45.702665" lon="11.6804325"><ele>69.0</ele><time>2026-04-12T09:33:49.31Z</time></trkpt><trkpt lat="45.7026227" lon="11.6803541"><ele>69.0</ele><time>2026-04-12T09:33:51.296Z</time></trkpt><trkpt lat="45.7025558" lon="11.6803121"><ele>69.0</ele><time>2026-04-12T09:33:53.3Z</time></trkpt><trkpt lat="45.7024222" lon="11.6803744"><ele>69.0</ele><time>2026-04-12T09:33:55.289Z</time></trkpt><trkpt lat="45.702337" lon="11.6804311"><ele>69.0</ele><time>2026-04-12T09:33:56.288Z</time></trkpt><trkpt lat="45.7022487" lon="11.6804807"><ele>69.0</ele><time>2026-04-12T09:33:57.29Z</time></trkpt><trkpt lat="45.702153" lon="11.6805133"><ele>69.0</ele><time>2026-04-12T09:33:58.296Z</time></trkpt><trkpt lat="45.7020563" lon="11.6805409"><ele>69.0</ele><time>2026-04-12T09:33:59.288Z</time></trkpt><trkpt lat="45.7019582" lon="11.6805661"><ele>69.0</ele><time>2026-04-12T09:34:00.297Z</time></trkpt><trkpt lat="45.7018539" lon="11.6805885"><ele>69.0</ele><time>2026-04-12T09:34:01.291Z</time></trkpt><trkpt lat="45.7017516" lon="11.6806127"><ele>69.0</ele><time>2026-04-12T09:34:02.3Z</time></trkpt><trkpt lat="45.7016556" lon="11.6806242"><ele>69.0</ele><time>2026-04-12T09:34:03.287Z</time></trkpt><trkpt lat="45.7015706" lon="11.6806417"><ele>69.0</ele><time>2026-04-12T09:34:04.287Z</time></trkpt><trkpt lat="45.7014874" lon="11.6806525"><ele>69.0</ele><time>2026-04-12T09:34:05.283Z</time></trkpt><trkpt lat="45.7014051" lon="11.6806588"><ele>69.0</ele><time>2026-04-12T09:34:06.293Z</time></trkpt><trkpt lat="45.7013242" lon="11.6806505"><ele>69.0</ele><time>2026-04-12T09:34:07.287Z</time></trkpt><trkpt lat="45.7012472" lon="11.6806269"><ele>69.0</ele><time>2026-04-12T09:34:08.293Z</time></trkpt><trkpt lat="45.7011656" lon="11.6806056"><ele>69.0</ele><time>2026-04-12T09:34:09.289Z</time></trkpt><trkpt lat="45.7010816" lon="11.6805997"><ele>69.0</ele><time>2026-04-12T09:34:10.296Z</time></trkpt><trkpt lat="45.7010015" lon="11.680598"><ele>69.0</ele><time>2026-04-12T09:34:11.291Z</time></trkpt><trkpt lat="45.7009163" lon="11.6805877"><ele>69.14285714285714</ele><time>2026-04-12T09:34:12.296Z</time></trkpt><trkpt lat="45.7008391" lon="11.6805805"><ele>69.28571428571429</ele><time>2026-04-12T09:34:13.29Z</time></trkpt><trkpt lat="45.7007607" lon="11.6805745"><ele>69.42857142857143</ele><time>2026-04-12T09:34:14.294Z</time></trkpt><trkpt lat="45.7006807" lon="11.680569"><ele>69.57142857142857</ele><time>2026-04-12T09:34:15.284Z</time></trkpt><trkpt lat="45.7006092" lon="11.6805675"><ele>69.71428571428572</ele><time>2026-04-12T09:34:16.295Z</time></trkpt><trkpt lat="45.7005434" lon="11.6805893"><ele>69.85714285714286</ele><time>2026-04-12T09:34:17.282Z</time></trkpt><trkpt lat="45.7004815" lon="11.6806355"><ele>70.0</ele><time>2026-04-12T09:34:18.299Z</time></trkpt><trkpt lat="45.7004309" lon="11.6807206"><ele>70.0</ele><time>2026-04-12T09:34:19.287Z</time></trkpt><trkpt lat="45.7003627" lon="11.6807964"><ele>70.0</ele><time>2026-04-12T09:34:20.29Z</time></trkpt><trkpt lat="45.7002706" lon="11.6808479"><ele>70.0</ele><time>2026-04-12T09:34:21.291Z</time></trkpt><trkpt lat="45.7001623" lon="11.6808691"><ele>70.0</ele><time>2026-04-12T09:34:22.294Z</time></trkpt><trkpt lat="45.700046" lon="11.6808929"><ele>70.0</ele><time>2026-04-12T09:34:23.296Z</time></trkpt><trkpt lat="45.6999195" lon="11.6809355"><ele>69.6</ele><time>2026-04-12T09:34:24.292Z</time></trkpt><trkpt lat="45.6997774" lon="11.6810088"><ele>69.2</ele><time>2026-04-12T09:34:25.287Z</time></trkpt><trkpt lat="45.699659" lon="11.6810596"><ele>68.8</ele><time>2026-04-12T09:34:26.289Z</time></trkpt><trkpt lat="45.6995834" lon="11.6810876"><ele>68.4</ele><time>2026-04-12T09:34:27.286Z</time></trkpt><trkpt lat="45.6995015" lon="11.6811043"><ele>68.0</ele><time>2026-04-12T09:34:28.293Z</time></trkpt><trkpt lat="45.699398" lon="11.6811348"><ele>67.66666666666667</ele><time>2026-04-12T09:34:30.292Z</time></trkpt><trkpt lat="45.6993259" lon="11.6811662"><ele>67.33333333333334</ele><time>2026-04-12T09:34:32.288Z</time></trkpt><trkpt lat="45.6992535" lon="11.681185"><ele>67.0</ele><time>2026-04-12T09:34:34.288Z</time></trkpt><trkpt lat="45.6991816" lon="11.6811949"><ele>66.66666666666667</ele><time>2026-04-12T09:34:36.287Z</time></trkpt><trkpt lat="45.6990972" lon="11.6812109"><ele>66.33333333333333</ele><time>2026-04-12T09:34:38.29Z</time></trkpt><trkpt lat="45.699009" lon="11.6812256"><ele>66.0</ele><time>2026-04-12T09:34:40.293Z</time></trkpt><trkpt lat="45.6989279" lon="11.681234"><ele>66.0</ele><time>2026-04-12T09:34:42.287Z</time></trkpt><trkpt lat="45.6988568" lon="11.6812417"><ele>66.0</ele><time>2026-04-12T09:34:44.285Z</time></trkpt><trkpt lat="45.6987989" lon="11.6812038"><ele>66.0</ele><time>2026-04-12T09:34:46.286Z</time></trkpt><trkpt lat="45.6987331" lon="11.6811566"><ele>66.0</ele><time>2026-04-12T09:34:48.286Z</time></trkpt><trkpt lat="45.69867" lon="11.6811307"><ele>66.0</ele><time>2026-04-12T09:34:50.291Z</time></trkpt><trkpt lat="45.6985806" lon="11.6811704"><ele>66.0</ele><time>2026-04-12T09:34:53.282Z</time></trkpt><trkpt lat="45.6985166" lon="11.6812311"><ele>66.0</ele><time>2026-04-12T09:34:55.28Z</time></trkpt><trkpt lat="45.6984388" lon="11.6812884"><ele>65.83333333333333</ele><time>2026-04-12T09:34:57.287Z</time></trkpt><trkpt lat="45.6983422" lon="11.6813167"><ele>65.66666666666667</ele><time>2026-04-12T09:34:59.288Z</time></trkpt><trkpt lat="45.6982529" lon="11.6813517"><ele>65.5</ele><time>2026-04-12T09:35:01.286Z</time></trkpt><trkpt lat="45.6981763" lon="11.6814133"><ele>65.33333333333334</ele><time>2026-04-12T09:35:03.278Z</time></trkpt><trkpt lat="45.6981128" lon="11.6814113"><ele>65.16666666666667</ele><time>2026-04-12T09:35:05.28Z</time></trkpt><trkpt lat="45.698055" lon="11.681473"><ele>65.0</ele><time>2026-04-12T09:37:42.292Z</time></trkpt><trkpt lat="45.6980828" lon="11.6813911"><ele>65.00000000000001</ele><time>2026-04-12T09:43:24.329Z</time></trkpt><trkpt lat="45.6981504" lon="11.6814026"><ele>65.0</ele><time>2026-04-12T09:43:47.304Z</time></trkpt><trkpt lat="45.6982195" lon="11.6814031"><ele>65.0</ele><time>2026-04-12T09:43:50.304Z</time></trkpt><trkpt lat="45.6982772" lon="11.6813556"><ele>65.0</ele><time>2026-04-12T09:43:53.313Z</time></trkpt><trkpt lat="45.6983589" lon="11.6813234"><ele>65.0</ele><time>2026-04-12T09:43:56.306Z</time></trkpt><trkpt lat="45.6984387" lon="11.6812912"><ele>65.00000000000001</ele><time>2026-04-12T09:43:59.313Z</time></trkpt><trkpt lat="45.6984997" lon="11.681257"><ele>65.0</ele><time>2026-04-12T09:44:02.327Z</time></trkpt><trkpt lat="45.6985562" lon="11.6812165"><ele>65.14285714285715</ele><time>2026-04-12T09:44:04.325Z</time></trkpt><trkpt lat="45.6986204" lon="11.6811439"><ele>65.28571428571429</ele><time>2026-04-12T09:44:06.325Z</time></trkpt><trkpt lat="45.6986968" lon="11.6811026"><ele>65.42857142857143</ele><time>2026-04-12T09:44:09.317Z</time></trkpt><trkpt lat="45.6987607" lon="11.6810431"><ele>65.57142857142858</ele><time>2026-04-12T09:44:13.326Z</time></trkpt><trkpt lat="45.698804" lon="11.6809525"><ele>65.71428571428572</ele><time>2026-04-12T09:44:16.308Z</time></trkpt><trkpt lat="45.6988626" lon="11.6809132"><ele>65.85714285714286</ele><time>2026-04-12T09:44:18.318Z</time></trkpt><trkpt lat="45.6989221" lon="11.6808711"><ele>66.0</ele><time>2026-04-12T09:44:20.318Z</time></trkpt><trkpt lat="45.6989677" lon="11.6807942"><ele>66.0</ele><time>2026-04-12T09:44:22.32Z</time></trkpt><trkpt lat="45.6990115" lon="11.6807105"><ele>66.0</ele><time>2026-04-12T09:44:24.321Z</time></trkpt><trkpt lat="45.6990803" lon="11.6806453"><ele>66.0</ele><time>2026-04-12T09:44:26.324Z</time></trkpt><trkpt lat="45.6991225" lon="11.6805285"><ele>66.0</ele><time>2026-04-12T09:44:29.321Z</time></trkpt><trkpt lat="45.6991248" lon="11.6804037"><ele>66.0</ele><time>2026-04-12T09:44:31.317Z</time></trkpt><trkpt lat="45.6991466" lon="11.6802665"><ele>66.0</ele><time>2026-04-12T09:44:33.306Z</time></trkpt><trkpt lat="45.6991796" lon="11.6801523"><ele>66.0</ele><time>2026-04-12T09:44:35.311Z</time></trkpt><trkpt lat="45.6992182" lon="11.6800474"><ele>66.0</ele><time>2026-04-12T09:44:38.316Z</time></trkpt><trkpt lat="45.6991659" lon="11.6799336"><ele>66.0</ele><time>2026-04-12T09:44:41.308Z</time></trkpt><trkpt lat="45.6991284" lon="11.679827"><ele>66.0</ele><time>2026-04-12T09:44:43.307Z</time></trkpt><trkpt lat="45.6991817" lon="11.6797247"><ele>66.0</ele><time>2026-04-12T09:45:28.311Z</time></trkpt><trkpt lat="45.6992378" lon="11.6796441"><ele>66.0</ele><time>2026-04-12T09:45:30.313Z</time></trkpt><trkpt lat="45.6992878" lon="11.6795459"><ele>66.0</ele><time>2026-04-12T09:45:32.319Z</time></trkpt><trkpt lat="45.6993593" lon="11.6794767"><ele>66.0</ele><time>2026-04-12T09:45:34.312Z</time></trkpt><trkpt lat="45.6994602" lon="11.679496"><ele>66.0</ele><time>2026-04-12T09:45:36.306Z</time></trkpt><trkpt lat="45.6995234" lon="11.6794912"><ele>66.0</ele><time>2026-04-12T09:45:38.31Z</time></trkpt><trkpt lat="45.6995893" lon="11.6794725"><ele>66.0</ele><time>2026-04-12T09:45:41.31Z</time></trkpt><trkpt lat="45.6996883" lon="11.6794709"><ele>66.0</ele><time>2026-04-12T09:45:44.316Z</time></trkpt><trkpt lat="45.6997697" lon="11.6794581"><ele>66.2</ele><time>2026-04-12T09:45:46.32Z</time></trkpt><trkpt lat="45.6998537" lon="11.679432"><ele>66.39999999999999</ele><time>2026-04-12T09:45:48.32Z</time></trkpt><trkpt lat="45.6999287" lon="11.6794208"><ele>66.6</ele><time>2026-04-12T09:45:50.318Z</time></trkpt><trkpt lat="45.700016" lon="11.6794148"><ele>66.8</ele><time>2026-04-12T09:46:07.31Z</time></trkpt><trkpt lat="45.7001192" lon="11.6794207"><ele>67.0</ele><time>2026-04-12T09:46:09.315Z</time></trkpt><trkpt lat="45.7002272" lon="11.6794068"><ele>67.6</ele><time>2026-04-12T09:46:11.307Z</time></trkpt><trkpt lat="45.7003322" lon="11.6793787"><ele>68.2</ele><time>2026-04-12T09:46:13.32Z</time></trkpt><trkpt lat="45.7004271" lon="11.6793517"><ele>68.8</ele><time>2026-04-12T09:46:15.314Z</time></trkpt><trkpt lat="45.7005211" lon="11.6793383"><ele>69.4</ele><time>2026-04-12T09:46:17.313Z</time></trkpt><trkpt lat="45.7006118" lon="11.6793488"><ele>70.0</ele><time>2026-04-12T09:46:19.315Z</time></trkpt><trkpt lat="45.7006778" lon="11.679344"><ele>70.0</ele><time>2026-04-12T09:46:21.313Z</time></trkpt><trkpt lat="45.7007503" lon="11.6793599"><ele>70.0</ele><time>2026-04-12T09:46:24.318Z</time></trkpt><trkpt lat="45.7008211" lon="11.6793504"><ele>70.0</ele><time>2026-04-12T09:46:27.31Z</time></trkpt><trkpt lat="45.7008998" lon="11.6793188"><ele>70.0</ele><time>2026-04-12T09:46:29.313Z</time></trkpt><trkpt lat="45.7009824" lon="11.679308"><ele>70.0</ele><time>2026-04-12T09:46:31.317Z</time></trkpt><trkpt lat="45.701048" lon="11.6793117"><ele>70.0</ele><time>2026-04-12T09:46:33.315Z</time></trkpt><trkpt lat="45.7011335" lon="11.6793021"><ele>70.33333333333333</ele><time>2026-04-12T09:46:35.325Z</time></trkpt><trkpt lat="45.7012036" lon="11.6792868"><ele>70.66666666666666</ele><time>2026-04-12T09:46:37.326Z</time></trkpt><trkpt lat="45.7012884" lon="11.6792798"><ele>71.0</ele><time>2026-04-12T09:46:40.317Z</time></trkpt><trkpt lat="45.7013499" lon="11.6792401"><ele>71.33333333333333</ele><time>2026-04-12T09:47:08.313Z</time></trkpt><trkpt lat="45.7013065" lon="11.6791462"><ele>71.66666666666667</ele><time>2026-04-12T09:47:12.322Z</time></trkpt><trkpt lat="45.7011962" lon="11.6791581"><ele>72.0</ele><time>2026-04-12T09:47:14.318Z</time></trkpt><trkpt lat="45.7011101" lon="11.6791133"><ele>72.0</ele><time>2026-04-12T09:47:16.319Z</time></trkpt><trkpt lat="45.7011591" lon="11.6790066"><ele>72.0</ele><time>2026-04-12T09:47:18.316Z</time></trkpt><trkpt lat="45.7012328" lon="11.6789726"><ele>72.0</ele><time>2026-04-12T09:47:19.302Z</time></trkpt><trkpt lat="45.7013198" lon="11.6789637"><ele>72.0</ele><time>2026-04-12T09:47:20.308Z</time></trkpt><trkpt lat="45.7014265" lon="11.6789692"><ele>72.0</ele><time>2026-04-12T09:47:21.301Z</time></trkpt><trkpt lat="45.70154" lon="11.6789838"><ele>72.0</ele><time>2026-04-12T09:47:22.31Z</time></trkpt><trkpt lat="45.7016481" lon="11.678993"><ele>72.0</ele><time>2026-04-12T09:47:23.31Z</time></trkpt><trkpt lat="45.7017336" lon="11.6789907"><ele>72.0</ele><time>2026-04-12T09:47:24.314Z</time></trkpt><trkpt lat="45.70184" lon="11.678977"><ele>72.0</ele><time>2026-04-12T09:47:26.324Z</time></trkpt><trkpt lat="45.7019241" lon="11.6789693"><ele>72.0</ele><time>2026-04-12T09:47:28.317Z</time></trkpt><trkpt lat="45.7019853" lon="11.6790105"><ele>72.0</ele><time>2026-04-12T09:47:32.33Z</time></trkpt><trkpt lat="45.7018854" lon="11.6789796"><ele>72.0</ele><time>2026-04-12T09:47:36.315Z</time></trkpt><trkpt lat="45.7017641" lon="11.679002"><ele>72.0</ele><time>2026-04-12T09:47:38.316Z</time></trkpt><trkpt lat="45.7016619" lon="11.6790366"><ele>72.0</ele><time>2026-04-12T09:47:40.32Z</time></trkpt><trkpt lat="45.7016277" lon="11.6791206"><ele>72.0</ele><time>2026-04-12T09:47:42.313Z</time></trkpt><trkpt lat="45.7016906" lon="11.679142"><ele>72.0</ele><time>2026-04-12T09:47:44.308Z</time></trkpt><trkpt lat="45.7017699" lon="11.679126"><ele>72.0</ele><time>2026-04-12T09:47:46.306Z</time></trkpt><trkpt lat="45.7018659" lon="11.6791239"><ele>72.0</ele><time>2026-04-12T09:49:30.311Z</time></trkpt><trkpt lat="45.7019361" lon="11.6790997"><ele>72.0</ele><time>2026-04-12T09:49:32.313Z</time></trkpt><trkpt lat="45.701844" lon="11.6791291"><ele>72.0</ele><time>2026-04-12T09:49:43.314Z</time></trkpt><trkpt lat="45.7017669" lon="11.6791338"><ele>72.0</ele><time>2026-04-12T09:49:44.307Z</time></trkpt><trkpt lat="45.7016629" lon="11.6791254"><ele>72.0</ele><time>2026-04-12T09:49:45.309Z</time></trkpt><trkpt lat="45.7015558" lon="11.6791399"><ele>72.0</ele><time>2026-04-12T09:49:46.298Z</time></trkpt><trkpt lat="45.7014485" lon="11.6791701"><ele>72.0</ele><time>2026-04-12T09:49:47.313Z</time></trkpt><trkpt lat="45.7013539" lon="11.6791806"><ele>72.0</ele><time>2026-04-12T09:49:48.313Z</time></trkpt><trkpt lat="45.7012728" lon="11.6791929"><ele>72.0</ele><time>2026-04-12T09:49:49.311Z</time></trkpt><trkpt lat="45.7011565" lon="11.6791781"><ele>72.0</ele><time>2026-04-12T09:49:51.312Z</time></trkpt><trkpt lat="45.7010922" lon="11.6790819"><ele>72.0</ele><time>2026-04-12T09:49:53.314Z</time></trkpt><trkpt lat="45.7012077" lon="11.6790014"><ele>72.0</ele><time>2026-04-12T09:49:55.316Z</time></trkpt><trkpt lat="45.7013083" lon="11.6790154"><ele>72.0</ele><time>2026-04-12T09:49:56.322Z</time></trkpt><trkpt lat="45.7014346" lon="11.6790459"><ele>72.0</ele><time>2026-04-12T09:49:57.304Z</time></trkpt><trkpt lat="45.7015605" lon="11.6790619"><ele>72.0</ele><time>2026-04-12T09:49:58.315Z</time></trkpt><trkpt lat="45.7016887" lon="11.679048"><ele>72.0</ele><time>2026-04-12T09:49:59.307Z</time></trkpt><trkpt lat="45.7018052" lon="11.679026"><ele>72.0</ele><time>2026-04-12T09:50:00.315Z</time></trkpt><trkpt lat="45.7019066" lon="11.6789992"><ele>72.0</ele><time>2026-04-12T09:50:01.298Z</time></trkpt><trkpt lat="45.7019989" lon="11.6789761"><ele>72.0</ele><time>2026-04-12T09:50:02.314Z</time></trkpt><trkpt lat="45.7020686" lon="11.6789887"><ele>72.0</ele><time>2026-04-12T09:50:04.311Z</time></trkpt><trkpt lat="45.7019876" lon="11.6789675"><ele>72.0</ele><time>2026-04-12T09:50:10.321Z</time></trkpt><trkpt lat="45.701879" lon="11.6789617"><ele>72.0</ele><time>2026-04-12T09:50:12.313Z</time></trkpt><trkpt lat="45.701782" lon="11.6789629"><ele>72.0</ele><time>2026-04-12T09:50:14.319Z</time></trkpt><trkpt lat="45.7017054" lon="11.6789631"><ele>72.0</ele><time>2026-04-12T09:50:16.315Z</time></trkpt><trkpt lat="45.7016297" lon="11.6789696"><ele>72.0</ele><time>2026-04-12T09:50:19.31Z</time></trkpt><trkpt lat="45.70161" lon="11.6790836"><ele>72.0</ele><time>2026-04-12T09:50:23.311Z</time></trkpt><trkpt lat="45.7016905" lon="11.679153"><ele>72.0</ele><time>2026-04-12T09:50:26.316Z</time></trkpt><trkpt lat="45.7017692" lon="11.6791137"><ele>72.0</ele><time>2026-04-12T09:50:28.313Z</time></trkpt><trkpt lat="45.7018355" lon="11.6790756"><ele>72.0</ele><time>2026-04-12T09:50:54.311Z</time></trkpt><trkpt lat="45.701906" lon="11.6791372"><ele>72.0</ele><time>2026-04-12T09:50:57.312Z</time></trkpt><trkpt lat="45.7017829" lon="11.6791375"><ele>72.0</ele><time>2026-04-12T09:51:05.304Z</time></trkpt><trkpt lat="45.7016866" lon="11.6791452"><ele>72.0</ele><time>2026-04-12T09:51:06.305Z</time></trkpt><trkpt lat="45.7015736" lon="11.6791532"><ele>72.0</ele><time>2026-04-12T09:51:07.296Z</time></trkpt><trkpt lat="45.7014694" lon="11.6791661"><ele>72.0</ele><time>2026-04-12T09:51:08.301Z</time></trkpt><trkpt lat="45.7013833" lon="11.6791922"><ele>72.0</ele><time>2026-04-12T09:51:09.301Z</time></trkpt><trkpt lat="45.7012943" lon="11.6792164"><ele>72.0</ele><time>2026-04-12T09:51:10.311Z</time></trkpt><trkpt lat="45.7012237" lon="11.6792247"><ele>72.0</ele><time>2026-04-12T09:51:11.314Z</time></trkpt><trkpt lat="45.7011187" lon="11.6791703"><ele>72.0</ele><time>2026-04-12T09:51:13.315Z</time></trkpt><trkpt lat="45.7011063" lon="11.6790476"><ele>72.0</ele><time>2026-04-12T09:51:15.316Z</time></trkpt><trkpt lat="45.7012294" lon="11.679004"><ele>72.0</ele><time>2026-04-12T09:51:17.306Z</time></trkpt><trkpt lat="45.7013019" lon="11.6790095"><ele>72.0</ele><time>2026-04-12T09:51:18.306Z</time></trkpt><trkpt lat="45.7013773" lon="11.6790289"><ele>72.0</ele><time>2026-04-12T09:51:19.301Z</time></trkpt><trkpt lat="45.7014541" lon="11.6790356"><ele>72.0</ele><time>2026-04-12T09:51:20.31Z</time></trkpt><trkpt lat="45.7015736" lon="11.6790496"><ele>72.0</ele><time>2026-04-12T09:51:22.307Z</time></trkpt><trkpt lat="45.7016851" lon="11.6791232"><ele>72.0</ele><time>2026-04-12T09:51:24.3Z</time></trkpt><trkpt lat="45.7017889" lon="11.6791681"><ele>72.0</ele><time>2026-04-12T09:51:26.298Z</time></trkpt><trkpt lat="45.7018912" lon="11.6791561"><ele>72.0</ele><time>2026-04-12T09:51:28.295Z</time></trkpt><trkpt lat="45.7019565" lon="11.6791371"><ele>72.0</ele><time>2026-04-12T09:51:30.3Z</time></trkpt><trkpt lat="45.7018738" lon="11.6790959"><ele>72.0</ele><time>2026-04-12T09:51:35.304Z</time></trkpt><trkpt lat="45.701732" lon="11.6791116"><ele>72.0</ele><time>2026-04-12T09:51:37.309Z</time></trkpt><trkpt lat="45.7016022" lon="11.6791192"><ele>72.0</ele><time>2026-04-12T09:51:38.298Z</time></trkpt><trkpt lat="45.7014831" lon="11.6791405"><ele>72.0</ele><time>2026-04-12T09:51:39.308Z</time></trkpt><trkpt lat="45.7013744" lon="11.6791719"><ele>72.0</ele><time>2026-04-12T09:51:40.304Z</time></trkpt><trkpt lat="45.7012824" lon="11.6791936"><ele>72.0</ele><time>2026-04-12T09:51:41.308Z</time></trkpt><trkpt lat="45.7012073" lon="11.6792027"><ele>72.0</ele><time>2026-04-12T09:51:42.311Z</time></trkpt><trkpt lat="45.7010999" lon="11.679148"><ele>72.0</ele><time>2026-04-12T09:51:44.315Z</time></trkpt><trkpt lat="45.7010896" lon="11.6790329"><ele>72.0</ele><time>2026-04-12T09:51:46.314Z</time></trkpt><trkpt lat="45.7012126" lon="11.6789841"><ele>72.0</ele><time>2026-04-12T09:51:48.317Z</time></trkpt><trkpt lat="45.7013193" lon="11.6789997"><ele>72.0</ele><time>2026-04-12T09:51:49.299Z</time></trkpt><trkpt lat="45.7014318" lon="11.6790309"><ele>72.0</ele><time>2026-04-12T09:51:50.314Z</time></trkpt><trkpt lat="45.7015429" lon="11.6790712"><ele>72.0</ele><time>2026-04-12T09:51:51.304Z</time></trkpt><trkpt lat="45.7016498" lon="11.6791118"><ele>72.0</ele><time>2026-04-12T09:51:52.308Z</time></trkpt><trkpt lat="45.7017412" lon="11.6791423"><ele>72.0</ele><time>2026-04-12T09:51:53.311Z</time></trkpt><trkpt lat="45.7018198" lon="11.6791554"><ele>72.0</ele><time>2026-04-12T09:51:54.299Z</time></trkpt><trkpt lat="45.7018846" lon="11.6791547"><ele>72.0</ele><time>2026-04-12T09:51:55.306Z</time></trkpt><trkpt lat="45.7019603" lon="11.6791475"><ele>72.0</ele><time>2026-04-12T09:51:57.316Z</time></trkpt><trkpt lat="45.7019014" lon="11.6791075"><ele>72.0</ele><time>2026-04-12T09:52:02.308Z</time></trkpt><trkpt lat="45.7018124" lon="11.6790988"><ele>72.0</ele><time>2026-04-12T09:52:15.317Z</time></trkpt><trkpt lat="45.7016502" lon="11.679111"><ele>72.0</ele><time>2026-04-12T09:52:17.313Z</time></trkpt><trkpt lat="45.7015315" lon="11.67913"><ele>72.0</ele><time>2026-04-12T09:52:18.307Z</time></trkpt><trkpt lat="45.7014216" lon="11.6791718"><ele>72.0</ele><time>2026-04-12T09:52:19.307Z</time></trkpt><trkpt lat="45.701325" lon="11.6791977"><ele>72.0</ele><time>2026-04-12T09:52:20.303Z</time></trkpt><trkpt lat="45.7012546" lon="11.6792195"><ele>72.0</ele><time>2026-04-12T09:52:21.315Z</time></trkpt><trkpt lat="45.7011858" lon="11.6792288"><ele>72.0</ele><time>2026-04-12T09:52:22.305Z</time></trkpt><trkpt lat="45.7011206" lon="11.6792122"><ele>72.0</ele><time>2026-04-12T09:52:23.319Z</time></trkpt><trkpt lat="45.7010768" lon="11.6791276"><ele>72.0</ele><time>2026-04-12T09:52:25.312Z</time></trkpt><trkpt lat="45.701182" lon="11.6790194"><ele>72.0</ele><time>2026-04-12T09:52:27.306Z</time></trkpt><trkpt lat="45.7012776" lon="11.6790091"><ele>72.0</ele><time>2026-04-12T09:52:28.294Z</time></trkpt><trkpt lat="45.7013775" lon="11.6790182"><ele>72.0</ele><time>2026-04-12T09:52:29.312Z</time></trkpt><trkpt lat="45.7014811" lon="11.6790523"><ele>72.0</ele><time>2026-04-12T09:52:30.301Z</time></trkpt><trkpt lat="45.7015872" lon="11.6790849"><ele>72.0</ele><time>2026-04-12T09:52:31.308Z</time></trkpt><trkpt lat="45.701684" lon="11.6791148"><ele>72.0</ele><time>2026-04-12T09:52:32.303Z</time></trkpt><trkpt lat="45.7017694" lon="11.6791403"><ele>72.0</ele><time>2026-04-12T09:52:33.304Z</time></trkpt><trkpt lat="45.701878" lon="11.6791535"><ele>72.0</ele><time>2026-04-12T09:52:35.3Z</time></trkpt><trkpt lat="45.701957" lon="11.6791439"><ele>72.0</ele><time>2026-04-12T09:52:38.299Z</time></trkpt><trkpt lat="45.7018908" lon="11.6790895"><ele>72.0</ele><time>2026-04-12T09:52:43.308Z</time></trkpt><trkpt lat="45.7018218" lon="11.6791075"><ele>72.0</ele><time>2026-04-12T09:52:47.308Z</time></trkpt><trkpt lat="45.7016793" lon="11.67913"><ele>72.0</ele><time>2026-04-12T09:52:49.291Z</time></trkpt><trkpt lat="45.7015727" lon="11.6791445"><ele>72.0</ele><time>2026-04-12T09:52:50.303Z</time></trkpt><trkpt lat="45.7014616" lon="11.6791742"><ele>72.0</ele><time>2026-04-12T09:52:51.3Z</time></trkpt><trkpt lat="45.701357" lon="11.6792091"><ele>72.0</ele><time>2026-04-12T09:52:52.311Z</time></trkpt><trkpt lat="45.7012724" lon="11.6792301"><ele>72.0</ele><time>2026-04-12T09:52:53.31Z</time></trkpt><trkpt lat="45.701209" lon="11.6792393"><ele>72.0</ele><time>2026-04-12T09:52:54.321Z</time></trkpt><trkpt lat="45.7011312" lon="11.6792275"><ele>72.0</ele><time>2026-04-12T09:52:55.318Z</time></trkpt><trkpt lat="45.7010481" lon="11.6791596"><ele>72.0</ele><time>2026-04-12T09:52:57.306Z</time></trkpt><trkpt lat="45.7010695" lon="11.679069"><ele>72.0</ele><time>2026-04-12T09:52:59.304Z</time></trkpt><trkpt lat="45.7011303" lon="11.6790257"><ele>72.0</ele><time>2026-04-12T09:53:00.315Z</time></trkpt><trkpt lat="45.7012265" lon="11.6790114"><ele>72.0</ele><time>2026-04-12T09:53:01.306Z</time></trkpt><trkpt lat="45.701336" lon="11.6790116"><ele>72.0</ele><time>2026-04-12T09:53:02.319Z</time></trkpt><trkpt lat="45.7014739" lon="11.6790449"><ele>72.0</ele><time>2026-04-12T09:53:03.299Z</time></trkpt><trkpt lat="45.7015963" lon="11.6790813"><ele>72.0</ele><time>2026-04-12T09:53:04.306Z</time></trkpt><trkpt lat="45.7017032" lon="11.6791116"><ele>72.0</ele><time>2026-04-12T09:53:05.307Z</time></trkpt><trkpt lat="45.7017961" lon="11.6791382"><ele>72.0</ele><time>2026-04-12T09:53:06.305Z</time></trkpt><trkpt lat="45.7018696" lon="11.6791624"><ele>72.0</ele><time>2026-04-12T09:53:07.319Z</time></trkpt><trkpt lat="45.7019575" lon="11.679176"><ele>72.0</ele><time>2026-04-12T09:53:09.305Z</time></trkpt><trkpt lat="45.7018718" lon="11.6791093"><ele>72.0</ele><time>2026-04-12T09:53:16.311Z</time></trkpt><trkpt lat="45.7017727" lon="11.67912"><ele>72.0</ele><time>2026-04-12T09:53:17.315Z</time></trkpt><trkpt lat="45.7016552" lon="11.6791306"><ele>72.0</ele><time>2026-04-12T09:53:18.305Z</time></trkpt><trkpt lat="45.7015324" lon="11.6791493"><ele>72.0</ele><time>2026-04-12T09:53:19.31Z</time></trkpt><trkpt lat="45.7014215" lon="11.6791753"><ele>72.0</ele><time>2026-04-12T09:53:20.318Z</time></trkpt><trkpt lat="45.7013351" lon="11.6791956"><ele>72.0</ele><time>2026-04-12T09:53:21.303Z</time></trkpt><trkpt lat="45.7012592" lon="11.679216"><ele>72.0</ele><time>2026-04-12T09:53:22.312Z</time></trkpt><trkpt lat="45.7011441" lon="11.6792066"><ele>72.0</ele><time>2026-04-12T09:53:24.307Z</time></trkpt><trkpt lat="45.7010631" lon="11.6791312"><ele>72.0</ele><time>2026-04-12T09:53:26.322Z</time></trkpt><trkpt lat="45.7011085" lon="11.6790295"><ele>72.0</ele><time>2026-04-12T09:53:28.318Z</time></trkpt><trkpt lat="45.7011713" lon="11.6790071"><ele>72.0</ele><time>2026-04-12T09:53:29.312Z</time></trkpt><trkpt lat="45.7012624" lon="11.6790025"><ele>72.0</ele><time>2026-04-12T09:53:30.311Z</time></trkpt><trkpt lat="45.7013613" lon="11.6790146"><ele>72.0</ele><time>2026-04-12T09:53:31.302Z</time></trkpt><trkpt lat="45.7014548" lon="11.6790378"><ele>72.0</ele><time>2026-04-12T09:53:32.31Z</time></trkpt><trkpt lat="45.701549" lon="11.6790685"><ele>72.0</ele><time>2026-04-12T09:53:33.297Z</time></trkpt><trkpt lat="45.7016365" lon="11.6790975"><ele>72.0</ele><time>2026-04-12T09:53:34.309Z</time></trkpt><trkpt lat="45.7017157" lon="11.6791209"><ele>72.0</ele><time>2026-04-12T09:53:35.296Z</time></trkpt><trkpt lat="45.7017838" lon="11.6791407"><ele>72.0</ele><time>2026-04-12T09:53:36.303Z</time></trkpt><trkpt lat="45.7018906" lon="11.6791517"><ele>72.0</ele><time>2026-04-12T09:53:38.307Z</time></trkpt><trkpt lat="45.7019671" lon="11.679143"><ele>72.0</ele><time>2026-04-12T09:53:40.297Z</time></trkpt><trkpt lat="45.7019086" lon="11.679104"><ele>72.0</ele><time>2026-04-12T09:53:46.309Z</time></trkpt><trkpt lat="45.7018418" lon="11.6791209"><ele>72.0</ele><time>2026-04-12T09:53:56.313Z</time></trkpt><trkpt lat="45.7017673" lon="11.6791266"><ele>72.0</ele><time>2026-04-12T09:53:57.309Z</time></trkpt><trkpt lat="45.7016627" lon="11.6791171"><ele>72.0</ele><time>2026-04-12T09:53:58.308Z</time></trkpt><trkpt lat="45.7015452" lon="11.6791261"><ele>72.0</ele><time>2026-04-12T09:53:59.312Z</time></trkpt><trkpt lat="45.7014238" lon="11.6791659"><ele>72.0</ele><time>2026-04-12T09:54:00.311Z</time></trkpt><trkpt lat="45.7013261" lon="11.6791954"><ele>72.0</ele><time>2026-04-12T09:54:01.306Z</time></trkpt><trkpt lat="45.7012491" lon="11.6792105"><ele>72.0</ele><time>2026-04-12T09:54:02.327Z</time></trkpt><trkpt lat="45.7011414" lon="11.679202"><ele>72.0</ele><time>2026-04-12T09:54:04.317Z</time></trkpt><trkpt lat="45.7010637" lon="11.6791221"><ele>72.0</ele><time>2026-04-12T09:54:06.306Z</time></trkpt><trkpt lat="45.7010782" lon="11.6790319"><ele>72.0</ele><time>2026-04-12T09:54:08.308Z</time></trkpt><trkpt lat="45.7011452" lon="11.6789792"><ele>72.0</ele><time>2026-04-12T09:54:11.32Z</time></trkpt><trkpt lat="45.7012415" lon="11.6789832"><ele>72.0</ele><time>2026-04-12T09:54:13.31Z</time></trkpt><trkpt lat="45.7013701" lon="11.6790132"><ele>72.0</ele><time>2026-04-12T09:54:15.314Z</time></trkpt><trkpt lat="45.7014358" lon="11.6790286"><ele>72.0</ele><time>2026-04-12T09:54:16.305Z</time></trkpt><trkpt lat="45.7014984" lon="11.6790439"><ele>72.0</ele><time>2026-04-12T09:54:17.31Z</time></trkpt><trkpt lat="45.7015795" lon="11.6790791"><ele>72.0</ele><time>2026-04-12T09:54:19.308Z</time></trkpt><trkpt lat="45.7016489" lon="11.6791402"><ele>72.0</ele><time>2026-04-12T09:54:23.32Z</time></trkpt><trkpt lat="45.7017525" lon="11.6791632"><ele>72.00000000000001</ele><time>2026-04-12T09:54:25.314Z</time></trkpt><trkpt lat="45.7018216" lon="11.6791498"><ele>72.0</ele><time>2026-04-12T09:54:26.307Z</time></trkpt><trkpt lat="45.7018854" lon="11.6791449"><ele>72.0</ele><time>2026-04-12T09:54:27.313Z</time></trkpt><trkpt lat="45.7019846" lon="11.6791363"><ele>72.0</ele><time>2026-04-12T09:54:29.311Z</time></trkpt><trkpt lat="45.7019135" lon="11.6791204"><ele>72.0</ele><time>2026-04-12T09:54:36.318Z</time></trkpt><trkpt lat="45.7018437" lon="11.6791106"><ele>72.00000000000001</ele><time>2026-04-12T09:54:40.315Z</time></trkpt><trkpt lat="45.7017719" lon="11.6791022"><ele>72.0</ele><time>2026-04-12T09:54:41.302Z</time></trkpt><trkpt lat="45.7016589" lon="11.6791276"><ele>72.0</ele><time>2026-04-12T09:54:42.302Z</time></trkpt><trkpt lat="45.701533" lon="11.6791627"><ele>72.0</ele><time>2026-04-12T09:54:43.31Z</time></trkpt><trkpt lat="45.7014225" lon="11.6791973"><ele>72.0</ele><time>2026-04-12T09:54:44.302Z</time></trkpt><trkpt lat="45.7013444" lon="11.6792394"><ele>72.0</ele><time>2026-04-12T09:54:45.325Z</time></trkpt><trkpt lat="45.7013397" lon="11.6791486"><ele>72.0</ele><time>2026-04-12T10:06:42.316Z</time></trkpt><trkpt lat="45.7012739" lon="11.6791528"><ele>72.0</ele><time>2026-04-12T10:06:44.315Z</time></trkpt><trkpt lat="45.701185" lon="11.6791214"><ele>72.0</ele><time>2026-04-12T10:06:46.309Z</time></trkpt><trkpt lat="45.7011309" lon="11.6790217"><ele>72.0</ele><time>2026-04-12T10:06:48.32Z</time></trkpt><trkpt lat="45.7011435" lon="11.6789"><ele>72.0</ele><time>2026-04-12T10:06:50.317Z</time></trkpt><trkpt lat="45.7011697" lon="11.6787972"><ele>72.0</ele><time>2026-04-12T10:06:52.315Z</time></trkpt><trkpt lat="45.7011927" lon="11.6787035"><ele>72.0</ele><time>2026-04-12T10:06:54.32Z</time></trkpt><trkpt lat="45.7012149" lon="11.6786057"><ele>72.0</ele><time>2026-04-12T10:06:56.319Z</time></trkpt><trkpt lat="45.7012361" lon="11.6785158"><ele>72.0</ele><time>2026-04-12T10:06:58.308Z</time></trkpt><trkpt lat="45.7012713" lon="11.6784302"><ele>72.0</ele><time>2026-04-12T10:07:00.315Z</time></trkpt><trkpt lat="45.7012523" lon="11.6785519"><ele>72.0</ele><time>2026-04-12T10:07:56.308Z</time></trkpt><trkpt lat="45.7012029" lon="11.6787044"><ele>72.0</ele><time>2026-04-12T10:07:58.307Z</time></trkpt><trkpt lat="45.7011784" lon="11.6787965"><ele>72.0</ele><time>2026-04-12T10:07:59.32Z</time></trkpt><trkpt lat="45.7011701" lon="11.6788984"><ele>72.00000000000001</ele><time>2026-04-12T10:08:00.298Z</time></trkpt><trkpt lat="45.7011644" lon="11.678994"><ele>72.0</ele><time>2026-04-12T10:08:01.314Z</time></trkpt><trkpt lat="45.7011411" lon="11.6788642"><ele>72.0</ele><time>2026-04-12T10:08:09.313Z</time></trkpt><trkpt lat="45.701157" lon="11.6787657"><ele>72.0</ele><time>2026-04-12T10:08:10.314Z</time></trkpt><trkpt lat="45.7011741" lon="11.6786704"><ele>72.0</ele><time>2026-04-12T10:08:11.312Z</time></trkpt><trkpt lat="45.7011901" lon="11.6785779"><ele>72.00000000000001</ele><time>2026-04-12T10:08:12.316Z</time></trkpt><trkpt lat="45.7012062" lon="11.6784868"><ele>72.0</ele><time>2026-04-12T10:08:13.311Z</time></trkpt><trkpt lat="45.7012188" lon="11.6783967"><ele>72.16666666666667</ele><time>2026-04-12T10:08:14.313Z</time></trkpt><trkpt lat="45.7012329" lon="11.6783029"><ele>72.33333333333333</ele><time>2026-04-12T10:08:15.3Z</time></trkpt><trkpt lat="45.7012465" lon="11.678207"><ele>72.5</ele><time>2026-04-12T10:08:16.31Z</time></trkpt><trkpt lat="45.701264" lon="11.6781111"><ele>72.66666666666666</ele><time>2026-04-12T10:08:17.31Z</time></trkpt><trkpt lat="45.7012977" lon="11.6779588"><ele>72.83333333333333</ele><time>2026-04-12T10:08:19.313Z</time></trkpt><trkpt lat="45.7013189" lon="11.677835"><ele>73.0</ele><time>2026-04-12T10:08:21.32Z</time></trkpt><trkpt lat="45.7013407" lon="11.6777201"><ele>73.0</ele><time>2026-04-12T10:08:23.313Z</time></trkpt><trkpt lat="45.7013261" lon="11.6776095"><ele>73.0</ele><time>2026-04-12T10:08:25.321Z</time></trkpt><trkpt lat="45.7012629" lon="11.677536"><ele>73.0</ele><time>2026-04-12T10:08:27.315Z</time></trkpt><trkpt lat="45.7011592" lon="11.6774448"><ele>73.0</ele><time>2026-04-12T10:08:29.309Z</time></trkpt><trkpt lat="45.7010569" lon="11.6774142"><ele>73.0</ele><time>2026-04-12T10:08:31.302Z</time></trkpt><trkpt lat="45.7009485" lon="11.6774439"><ele>73.0</ele><time>2026-04-12T10:08:33.306Z</time></trkpt><trkpt lat="45.7008472" lon="11.6775058"><ele>73.0</ele><time>2026-04-12T10:08:35.318Z</time></trkpt><trkpt lat="45.7007716" lon="11.6775587"><ele>73.0</ele><time>2026-04-12T10:08:38.325Z</time></trkpt><trkpt lat="45.7008425" lon="11.6775971"><ele>73.0</ele><time>2026-04-12T10:09:31.31Z</time></trkpt><trkpt lat="45.7009111" lon="11.677539"><ele>73.0</ele><time>2026-04-12T10:09:33.311Z</time></trkpt><trkpt lat="45.7009999" lon="11.6774843"><ele>73.0</ele><time>2026-04-12T10:09:35.308Z</time></trkpt><trkpt lat="45.7011163" lon="11.6774758"><ele>73.0</ele><time>2026-04-12T10:09:37.312Z</time></trkpt><trkpt lat="45.7012258" lon="11.677556"><ele>73.0</ele><time>2026-04-12T10:09:39.314Z</time></trkpt><trkpt lat="45.7012751" lon="11.6776241"><ele>73.0</ele><time>2026-04-12T10:09:40.319Z</time></trkpt><trkpt lat="45.7013202" lon="11.6776981"><ele>73.0</ele><time>2026-04-12T10:09:41.311Z</time></trkpt><trkpt lat="45.7013619" lon="11.6778531"><ele>73.0</ele><time>2026-04-12T10:09:43.323Z</time></trkpt><trkpt lat="45.7013309" lon="11.6780419"><ele>73.0</ele><time>2026-04-12T10:09:45.318Z</time></trkpt><trkpt lat="45.7012973" lon="11.6781809"><ele>73.0</ele><time>2026-04-12T10:09:46.307Z</time></trkpt><trkpt lat="45.7012727" lon="11.678311"><ele>73.0</ele><time>2026-04-12T10:09:47.313Z</time></trkpt><trkpt lat="45.7012445" lon="11.6784529"><ele>73.0</ele><time>2026-04-12T10:09:48.301Z</time></trkpt><trkpt lat="45.701209" lon="11.678592"><ele>73.0</ele><time>2026-04-12T10:09:49.315Z</time></trkpt><trkpt lat="45.7011809" lon="11.678714"><ele>72.83333333333333</ele><time>2026-04-12T10:09:50.307Z</time></trkpt><trkpt lat="45.7011534" lon="11.6788199"><ele>72.66666666666666</ele><time>2026-04-12T10:09:51.315Z</time></trkpt><trkpt lat="45.7011327" lon="11.6789058"><ele>72.5</ele><time>2026-04-12T10:09:52.315Z</time></trkpt><trkpt lat="45.7010972" lon="11.6790497"><ele>72.33333333333333</ele><time>2026-04-12T10:09:54.32Z</time></trkpt><trkpt lat="45.7010885" lon="11.6791535"><ele>72.16666666666667</ele><time>2026-04-12T10:09:56.32Z</time></trkpt><trkpt lat="45.7011237" lon="11.6792427"><ele>72.0</ele><time>2026-04-12T10:09:58.317Z</time></trkpt><trkpt lat="45.7011982" lon="11.6792622"><ele>72.0</ele><time>2026-04-12T10:09:59.304Z</time></trkpt><trkpt lat="45.7012663" lon="11.6792649"><ele>72.0</ele><time>2026-04-12T10:10:00.318Z</time></trkpt><trkpt lat="45.7013898" lon="11.6792795"><ele>72.0</ele><time>2026-04-12T10:10:02.323Z</time></trkpt><trkpt lat="45.7015106" lon="11.6792924"><ele>72.0</ele><time>2026-04-12T10:10:04.304Z</time></trkpt><trkpt lat="45.7015894" lon="11.6792829"><ele>72.0</ele><time>2026-04-12T10:10:05.303Z</time></trkpt><trkpt lat="45.7016727" lon="11.6792745"><ele>72.0</ele><time>2026-04-12T10:10:06.31Z</time></trkpt><trkpt lat="45.7017539" lon="11.6792591"><ele>72.0</ele><time>2026-04-12T10:10:07.312Z</time></trkpt><trkpt lat="45.701825" lon="11.6792442"><ele>72.0</ele><time>2026-04-12T10:10:08.317Z</time></trkpt><trkpt lat="45.7019411" lon="11.6792317"><ele>72.0</ele><time>2026-04-12T10:10:10.316Z</time></trkpt><trkpt lat="45.7020552" lon="11.6792256"><ele>72.0</ele><time>2026-04-12T10:10:12.313Z</time></trkpt><trkpt lat="45.7021203" lon="11.6792058"><ele>71.8</ele><time>2026-04-12T10:10:13.302Z</time></trkpt><trkpt lat="45.7022364" lon="11.6791799"><ele>71.6</ele><time>2026-04-12T10:10:15.304Z</time></trkpt><trkpt lat="45.7023126" lon="11.679172"><ele>71.39999999999999</ele><time>2026-04-12T10:10:16.318Z</time></trkpt><trkpt lat="45.7023943" lon="11.6791583"><ele>71.2</ele><time>2026-04-12T10:10:17.309Z</time></trkpt><trkpt lat="45.7024814" lon="11.6791551"><ele>71.0</ele><time>2026-04-12T10:10:18.316Z</time></trkpt><trkpt lat="45.7025707" lon="11.6791541"><ele>71.0</ele><time>2026-04-12T10:10:19.31Z</time></trkpt><trkpt lat="45.7026589" lon="11.6791462"><ele>71.0</ele><time>2026-04-12T10:10:20.317Z</time></trkpt><trkpt lat="45.7027534" lon="11.6791328"><ele>71.0</ele><time>2026-04-12T10:10:21.312Z</time></trkpt><trkpt lat="45.7028346" lon="11.6791225"><ele>71.0</ele><time>2026-04-12T10:10:22.321Z</time></trkpt><trkpt lat="45.7029427" lon="11.6791184"><ele>71.0</ele><time>2026-04-12T10:10:23.303Z</time></trkpt><trkpt lat="45.7030452" lon="11.6791141"><ele>71.0</ele><time>2026-04-12T10:10:24.31Z</time></trkpt><trkpt lat="45.7031442" lon="11.6791038"><ele>71.0</ele><time>2026-04-12T10:10:25.312Z</time></trkpt><trkpt lat="45.7032431" lon="11.6790931"><ele>71.0</ele><time>2026-04-12T10:10:26.306Z</time></trkpt><trkpt lat="45.7033424" lon="11.6790854"><ele>71.0</ele><time>2026-04-12T10:10:27.323Z</time></trkpt><trkpt lat="45.7034475" lon="11.6790763"><ele>71.0</ele><time>2026-04-12T10:10:28.315Z</time></trkpt><trkpt lat="45.7035409" lon="11.6790625"><ele>71.0</ele><time>2026-04-12T10:10:29.326Z</time></trkpt><trkpt lat="45.7036341" lon="11.679052"><ele>71.0</ele><time>2026-04-12T10:10:30.321Z</time></trkpt><trkpt lat="45.7037279" lon="11.6790419"><ele>71.0</ele><time>2026-04-12T10:10:31.327Z</time></trkpt><trkpt lat="45.7038112" lon="11.6790306"><ele>71.0</ele><time>2026-04-12T10:10:32.321Z</time></trkpt><trkpt lat="45.7038901" lon="11.6790139"><ele>71.0</ele><time>2026-04-12T10:10:33.322Z</time></trkpt><trkpt lat="45.7039637" lon="11.6790049"><ele>71.0</ele><time>2026-04-12T10:10:34.318Z</time></trkpt><trkpt lat="45.7040407" lon="11.6789978"><ele>71.0</ele><time>2026-04-12T10:10:35.318Z</time></trkpt><trkpt lat="45.7041549" lon="11.6789813"><ele>71.0</ele><time>2026-04-12T10:10:37.318Z</time></trkpt><trkpt lat="45.7042517" lon="11.6789561"><ele>71.0</ele><time>2026-04-12T10:10:39.329Z</time></trkpt><trkpt lat="45.7043622" lon="11.678928"><ele>71.0</ele><time>2026-04-12T10:10:41.326Z</time></trkpt><trkpt lat="45.7044301" lon="11.6789189"><ele>71.0</ele><time>2026-04-12T10:10:42.333Z</time></trkpt><trkpt lat="45.7045013" lon="11.6789132"><ele>71.6</ele><time>2026-04-12T10:10:43.327Z</time></trkpt><trkpt lat="45.7045682" lon="11.6789092"><ele>72.19999999999999</ele><time>2026-04-12T10:10:44.33Z</time></trkpt><trkpt lat="45.7047011" lon="11.6789107"><ele>72.80000000000001</ele><time>2026-04-12T10:10:46.327Z</time></trkpt><trkpt lat="45.704767" lon="11.678911"><ele>73.4</ele><time>2026-04-12T10:10:47.325Z</time></trkpt><trkpt lat="45.7048982" lon="11.6788984"><ele>74.0</ele><time>2026-04-12T10:10:49.316Z</time></trkpt><trkpt lat="45.7049719" lon="11.6788884"><ele>74.0</ele><time>2026-04-12T10:10:50.332Z</time></trkpt><trkpt lat="45.7050554" lon="11.6788712"><ele>74.0</ele><time>2026-04-12T10:10:51.324Z</time></trkpt><trkpt lat="45.7051407" lon="11.6788541"><ele>74.0</ele><time>2026-04-12T10:10:52.325Z</time></trkpt><trkpt lat="45.7052214" lon="11.678843"><ele>74.0</ele><time>2026-04-12T10:10:53.327Z</time></trkpt><trkpt lat="45.7052911" lon="11.6788387"><ele>74.0</ele><time>2026-04-12T10:10:54.317Z</time></trkpt><trkpt lat="45.7053899" lon="11.678904"><ele>74.0</ele><time>2026-04-12T10:10:56.329Z</time></trkpt><trkpt lat="45.7053983" lon="11.6790368"><ele>74.16666666666667</ele><time>2026-04-12T10:10:58.313Z</time></trkpt><trkpt lat="45.7054044" lon="11.679178"><ele>74.33333333333334</ele><time>2026-04-12T10:11:00.315Z</time></trkpt><trkpt lat="45.7054543" lon="11.6792424"><ele>74.5</ele><time>2026-04-12T10:11:02.331Z</time></trkpt><trkpt lat="45.7055413" lon="11.6792551"><ele>74.66666666666667</ele><time>2026-04-12T10:11:04.331Z</time></trkpt><trkpt lat="45.7056397" lon="11.6792498"><ele>74.83333333333333</ele><time>2026-04-12T10:11:05.322Z</time></trkpt><trkpt lat="45.7057294" lon="11.6792486"><ele>75.0</ele><time>2026-04-12T10:11:06.318Z</time></trkpt><trkpt lat="45.7058056" lon="11.6792367"><ele>75.0</ele><time>2026-04-12T10:11:07.311Z</time></trkpt><trkpt lat="45.7058923" lon="11.6792172"><ele>75.0</ele><time>2026-04-12T10:11:08.323Z</time></trkpt><trkpt lat="45.7059662" lon="11.6792024"><ele>75.0</ele><time>2026-04-12T10:11:09.321Z</time></trkpt><trkpt lat="45.7060433" lon="11.6791861"><ele>75.0</ele><time>2026-04-12T10:11:10.323Z</time></trkpt><trkpt lat="45.70612" lon="11.6791889"><ele>75.0</ele><time>2026-04-12T10:11:11.326Z</time></trkpt><trkpt lat="45.7061986" lon="11.6792048"><ele>75.0</ele><time>2026-04-12T10:11:12.318Z</time></trkpt><trkpt lat="45.7062669" lon="11.6792248"><ele>74.66666666666667</ele><time>2026-04-12T10:11:13.33Z</time></trkpt><trkpt lat="45.7063503" lon="11.6792306"><ele>74.33333333333333</ele><time>2026-04-12T10:11:14.324Z</time></trkpt><trkpt lat="45.7064412" lon="11.679231"><ele>74.0</ele><time>2026-04-12T10:11:15.332Z</time></trkpt><trkpt lat="45.7065243" lon="11.6792326"><ele>73.66666666666666</ele><time>2026-04-12T10:11:16.325Z</time></trkpt><trkpt lat="45.7066035" lon="11.6792317"><ele>73.33333333333333</ele><time>2026-04-12T10:11:17.33Z</time></trkpt><trkpt lat="45.706681" lon="11.679222"><ele>73.0</ele><time>2026-04-12T10:11:18.319Z</time></trkpt><trkpt lat="45.7067567" lon="11.6792172"><ele>73.0</ele><time>2026-04-12T10:11:19.318Z</time></trkpt><trkpt lat="45.7068218" lon="11.6792121"><ele>73.0</ele><time>2026-04-12T10:11:20.325Z</time></trkpt><trkpt lat="45.70689" lon="11.6792105"><ele>73.0</ele><time>2026-04-12T10:11:21.322Z</time></trkpt><trkpt lat="45.7069658" lon="11.6792308"><ele>73.0</ele><time>2026-04-12T10:11:22.33Z</time></trkpt><trkpt lat="45.707018" lon="11.6792947"><ele>73.0</ele><time>2026-04-12T10:11:23.328Z</time></trkpt><trkpt lat="45.7070598" lon="11.6793747"><ele>73.0</ele><time>2026-04-12T10:11:24.317Z</time></trkpt><trkpt lat="45.707115" lon="11.6794515"><ele>73.0</ele><time>2026-04-12T10:11:25.33Z</time></trkpt><trkpt lat="45.7071673" lon="11.6795403"><ele>73.5</ele><time>2026-04-12T10:11:26.325Z</time></trkpt><trkpt lat="45.7072226" lon="11.6796279"><ele>74.0</ele><time>2026-04-12T10:11:27.322Z</time></trkpt><trkpt lat="45.7072686" lon="11.6797118"><ele>74.5</ele><time>2026-04-12T10:11:28.318Z</time></trkpt><trkpt lat="45.7073132" lon="11.6797848"><ele>75.0</ele><time>2026-04-12T10:11:29.324Z</time></trkpt><trkpt lat="45.7073817" lon="11.6799075"><ele>75.5</ele><time>2026-04-12T10:11:31.326Z</time></trkpt><trkpt lat="45.7074058" lon="11.6799911"><ele>76.0</ele><time>2026-04-12T10:11:33.319Z</time></trkpt><trkpt lat="45.7074673" lon="11.6800489"><ele>76.0</ele><time>2026-04-12T10:11:36.311Z</time></trkpt><trkpt lat="45.7075442" lon="11.6800898"><ele>76.0</ele><time>2026-04-12T10:13:59.33Z</time></trkpt><trkpt lat="45.7076523" lon="11.6800902"><ele>76.0</ele><time>2026-04-12T10:14:01.322Z</time></trkpt><trkpt lat="45.707722" lon="11.6800771"><ele>76.0</ele><time>2026-04-12T10:14:02.331Z</time></trkpt><trkpt lat="45.7078058" lon="11.6800556"><ele>76.0</ele><time>2026-04-12T10:14:03.326Z</time></trkpt><trkpt lat="45.7078915" lon="11.680023"><ele>76.0</ele><time>2026-04-12T10:14:04.329Z</time></trkpt><trkpt lat="45.7079721" lon="11.679989"><ele>76.0</ele><time>2026-04-12T10:14:05.317Z</time></trkpt><trkpt lat="45.708042" lon="11.6799491"><ele>76.0</ele><time>2026-04-12T10:14:06.332Z</time></trkpt><trkpt lat="45.7081049" lon="11.6799126"><ele>76.0</ele><time>2026-04-12T10:14:07.317Z</time></trkpt><trkpt lat="45.7081652" lon="11.6798776"><ele>76.0</ele><time>2026-04-12T10:14:08.321Z</time></trkpt><trkpt lat="45.7082677" lon="11.679817"><ele>76.0</ele><time>2026-04-12T10:14:10.331Z</time></trkpt><trkpt lat="45.708359" lon="11.6797753"><ele>76.0</ele><time>2026-04-12T10:14:12.323Z</time></trkpt><trkpt lat="45.7084584" lon="11.6797533"><ele>76.0</ele><time>2026-04-12T10:14:14.325Z</time></trkpt><trkpt lat="45.7085514" lon="11.6797123"><ele>76.0</ele><time>2026-04-12T10:14:16.326Z</time></trkpt><trkpt lat="45.70864" lon="11.6796558"><ele>76.0</ele><time>2026-04-12T10:14:18.32Z</time></trkpt><trkpt lat="45.7087247" lon="11.6796048"><ele>76.0</ele><time>2026-04-12T10:14:20.323Z</time></trkpt><trkpt lat="45.7088284" lon="11.6795615"><ele>76.0</ele><time>2026-04-12T10:14:22.319Z</time></trkpt><trkpt lat="45.708894" lon="11.6795469"><ele>75.8</ele><time>2026-04-12T10:14:23.33Z</time></trkpt><trkpt lat="45.7089581" lon="11.6795269"><ele>75.6</ele><time>2026-04-12T10:14:24.316Z</time></trkpt><trkpt lat="45.7090685" lon="11.6794908"><ele>75.4</ele><time>2026-04-12T10:14:26.321Z</time></trkpt><trkpt lat="45.7091744" lon="11.6794447"><ele>75.2</ele><time>2026-04-12T10:14:28.322Z</time></trkpt><trkpt lat="45.7092356" lon="11.6794191"><ele>75.0</ele><time>2026-04-12T10:14:29.326Z</time></trkpt><trkpt lat="45.7093451" lon="11.679379"><ele>75.16666666666667</ele><time>2026-04-12T10:14:31.323Z</time></trkpt><trkpt lat="45.7094119" lon="11.6793606"><ele>75.33333333333333</ele><time>2026-04-12T10:14:32.324Z</time></trkpt><trkpt lat="45.7094928" lon="11.6793323"><ele>75.5</ele><time>2026-04-12T10:14:33.318Z</time></trkpt><trkpt lat="45.7095743" lon="11.6792963"><ele>75.66666666666666</ele><time>2026-04-12T10:14:34.318Z</time></trkpt><trkpt lat="45.7096539" lon="11.6792515"><ele>75.83333333333333</ele><time>2026-04-12T10:14:35.32Z</time></trkpt><trkpt lat="45.7097373" lon="11.6792018"><ele>76.0</ele><time>2026-04-12T10:14:36.32Z</time></trkpt><trkpt lat="45.7098261" lon="11.6791508"><ele>76.0</ele><time>2026-04-12T10:14:37.321Z</time></trkpt><trkpt lat="45.7099118" lon="11.6791091"><ele>76.0</ele><time>2026-04-12T10:14:38.318Z</time></trkpt><trkpt lat="45.7099943" lon="11.679071"><ele>76.0</ele><time>2026-04-12T10:14:39.327Z</time></trkpt><trkpt lat="45.7100694" lon="11.6790302"><ele>76.0</ele><time>2026-04-12T10:14:40.323Z</time></trkpt><trkpt lat="45.7101401" lon="11.6789913"><ele>76.0</ele><time>2026-04-12T10:14:41.314Z</time></trkpt><trkpt lat="45.7102009" lon="11.6789541"><ele>76.0</ele><time>2026-04-12T10:14:42.325Z</time></trkpt><trkpt lat="45.7102959" lon="11.6788869"><ele>76.0</ele><time>2026-04-12T10:14:44.325Z</time></trkpt><trkpt lat="45.7103588" lon="11.6787997"><ele>76.0</ele><time>2026-04-12T10:14:46.327Z</time></trkpt><trkpt lat="45.7103161" lon="11.6786508"><ele>76.0</ele><time>2026-04-12T10:14:48.327Z</time></trkpt><trkpt lat="45.7102802" lon="11.6785351"><ele>76.0</ele><time>2026-04-12T10:14:49.322Z</time></trkpt><trkpt lat="45.7102264" lon="11.6784086"><ele>76.0</ele><time>2026-04-12T10:14:50.322Z</time></trkpt><trkpt lat="45.7101671" lon="11.6782713"><ele>76.0</ele><time>2026-04-12T10:14:51.313Z</time></trkpt><trkpt lat="45.7101001" lon="11.6781339"><ele>76.0</ele><time>2026-04-12T10:14:52.318Z</time></trkpt><trkpt lat="45.7100264" lon="11.6779873"><ele>76.0</ele><time>2026-04-12T10:14:53.31Z</time></trkpt><trkpt lat="45.7099546" lon="11.6778378"><ele>76.0</ele><time>2026-04-12T10:14:54.315Z</time></trkpt><trkpt lat="45.7098876" lon="11.6777047"><ele>76.0</ele><time>2026-04-12T10:14:55.317Z</time></trkpt><trkpt lat="45.7098142" lon="11.677584"><ele>76.0</ele><time>2026-04-12T10:14:56.325Z</time></trkpt><trkpt lat="45.7097418" lon="11.6774633"><ele>76.0</ele><time>2026-04-12T10:14:57.312Z</time></trkpt><trkpt lat="45.7096628" lon="11.6773554"><ele>76.0</ele><time>2026-04-12T10:14:58.319Z</time></trkpt><trkpt lat="45.7095844" lon="11.6772621"><ele>76.0</ele><time>2026-04-12T10:14:59.315Z</time></trkpt><trkpt lat="45.7095067" lon="11.677186"><ele>76.0</ele><time>2026-04-12T10:15:00.321Z</time></trkpt><trkpt lat="45.7094415" lon="11.677112"><ele>76.0</ele><time>2026-04-12T10:15:01.28Z</time></trkpt><trkpt lat="45.7093742" lon="11.6770462"><ele>76.0</ele><time>2026-04-12T10:15:02.291Z</time></trkpt><trkpt lat="45.7093409" lon="11.6769513"><ele>76.0</ele><time>2026-04-12T10:15:03.293Z</time></trkpt><trkpt lat="45.7093189" lon="11.6768578"><ele>76.0</ele><time>2026-04-12T10:15:04.282Z</time></trkpt><trkpt lat="45.7092963" lon="11.6767286"><ele>76.0</ele><time>2026-04-12T10:15:05.281Z</time></trkpt><trkpt lat="45.7092821" lon="11.6765902"><ele>76.2</ele><time>2026-04-12T10:15:06.282Z</time></trkpt><trkpt lat="45.7092698" lon="11.6764401"><ele>76.39999999999999</ele><time>2026-04-12T10:15:07.29Z</time></trkpt><trkpt lat="45.7092452" lon="11.6762865"><ele>76.6</ele><time>2026-04-12T10:15:08.286Z</time></trkpt><trkpt lat="45.709229" lon="11.6761303"><ele>76.8</ele><time>2026-04-12T10:15:09.295Z</time></trkpt><trkpt lat="45.7092226" lon="11.6759825"><ele>77.0</ele><time>2026-04-12T10:15:10.292Z</time></trkpt><trkpt lat="45.7092042" lon="11.6758271"><ele>77.0</ele><time>2026-04-12T10:15:11.3Z</time></trkpt><trkpt lat="45.7091905" lon="11.6756706"><ele>77.0</ele><time>2026-04-12T10:15:12.299Z</time></trkpt><trkpt lat="45.7091844" lon="11.6755222"><ele>77.0</ele><time>2026-04-12T10:15:13.305Z</time></trkpt><trkpt lat="45.7091748" lon="11.675379"><ele>77.0</ele><time>2026-04-12T10:15:14.303Z</time></trkpt><trkpt lat="45.7091632" lon="11.675241"><ele>77.0</ele><time>2026-04-12T10:15:15.304Z</time></trkpt><trkpt lat="45.7091546" lon="11.6751108"><ele>77.16666666666667</ele><time>2026-04-12T10:15:16.301Z</time></trkpt><trkpt lat="45.7091494" lon="11.6749879"><ele>77.33333333333334</ele><time>2026-04-12T10:15:17.306Z</time></trkpt><trkpt lat="45.7091456" lon="11.6748786"><ele>77.5</ele><time>2026-04-12T10:15:18.294Z</time></trkpt><trkpt lat="45.7091454" lon="11.6747729"><ele>77.66666666666667</ele><time>2026-04-12T10:15:19.301Z</time></trkpt><trkpt lat="45.7091605" lon="11.6746398"><ele>77.83333333333333</ele><time>2026-04-12T10:15:21.301Z</time></trkpt><trkpt lat="45.7091378" lon="11.6745461"><ele>78.0</ele><time>2026-04-12T10:15:29.299Z</time></trkpt><trkpt lat="45.7090865" lon="11.6744591"><ele>77.75</ele><time>2026-04-12T10:15:30.298Z</time></trkpt><trkpt lat="45.7089903" lon="11.6744068"><ele>77.5</ele><time>2026-04-12T10:15:31.298Z</time></trkpt><trkpt lat="45.7088824" lon="11.674388"><ele>77.25</ele><time>2026-04-12T10:15:32.299Z</time></trkpt><trkpt lat="45.7087581" lon="11.6743868"><ele>77.0</ele><time>2026-04-12T10:15:33.291Z</time></trkpt><trkpt lat="45.7086351" lon="11.6743804"><ele>76.75</ele><time>2026-04-12T10:15:34.292Z</time></trkpt><trkpt lat="45.7085134" lon="11.674372"><ele>76.5</ele><time>2026-04-12T10:15:35.292Z</time></trkpt><trkpt lat="45.7083933" lon="11.6743717"><ele>76.25</ele><time>2026-04-12T10:15:36.293Z</time></trkpt><trkpt lat="45.7082746" lon="11.6743747"><ele>76.0</ele><time>2026-04-12T10:15:37.293Z</time></trkpt><trkpt lat="45.7081493" lon="11.6743784"><ele>76.0</ele><time>2026-04-12T10:15:38.295Z</time></trkpt><trkpt lat="45.7080243" lon="11.6743792"><ele>76.0</ele><time>2026-04-12T10:15:39.298Z</time></trkpt><trkpt lat="45.7079045" lon="11.6743759"><ele>76.0</ele><time>2026-04-12T10:15:40.289Z</time></trkpt><trkpt lat="45.7077773" lon="11.6743731"><ele>76.0</ele><time>2026-04-12T10:15:41.289Z</time></trkpt><trkpt lat="45.7076405" lon="11.6743569"><ele>76.25</ele><time>2026-04-12T10:15:42.29Z</time></trkpt><trkpt lat="45.7075037" lon="11.6743492"><ele>76.5</ele><time>2026-04-12T10:15:43.294Z</time></trkpt><trkpt lat="45.7073677" lon="11.6743449"><ele>76.75</ele><time>2026-04-12T10:15:44.299Z</time></trkpt><trkpt lat="45.7072285" lon="11.6743433"><ele>77.0</ele><time>2026-04-12T10:15:45.299Z</time></trkpt><trkpt lat="45.7070879" lon="11.6743392"><ele>77.0</ele><time>2026-04-12T10:15:46.295Z</time></trkpt><trkpt lat="45.7069448" lon="11.6743404"><ele>77.0</ele><time>2026-04-12T10:15:47.3Z</time></trkpt><trkpt lat="45.7068039" lon="11.6743341"><ele>77.0</ele><time>2026-04-12T10:15:48.29Z</time></trkpt><trkpt lat="45.7065036" lon="11.6743301"><ele>76.66666666666667</ele><time>2026-04-12T10:15:50.292Z</time></trkpt><trkpt lat="45.7063467" lon="11.6743113"><ele>76.33333333333333</ele><time>2026-04-12T10:15:51.3Z</time></trkpt><trkpt lat="45.7061999" lon="11.674258"><ele>76.0</ele><time>2026-04-12T10:15:52.299Z</time></trkpt><trkpt lat="45.7060662" lon="11.6741652"><ele>75.66666666666666</ele><time>2026-04-12T10:15:53.297Z</time></trkpt><trkpt lat="45.7059024" lon="11.6740722"><ele>75.33333333333333</ele><time>2026-04-12T10:15:54.302Z</time></trkpt><trkpt lat="45.7057755" lon="11.6739465"><ele>75.0</ele><time>2026-04-12T10:15:55.289Z</time></trkpt><trkpt lat="45.7056321" lon="11.6738155"><ele>75.0</ele><time>2026-04-12T10:15:56.293Z</time></trkpt><trkpt lat="45.7054871" lon="11.6736984"><ele>75.0</ele><time>2026-04-12T10:15:57.3Z</time></trkpt><trkpt lat="45.7053557" lon="11.6735918"><ele>75.0</ele><time>2026-04-12T10:15:58.297Z</time></trkpt><trkpt lat="45.7052189" lon="11.6734877"><ele>75.25</ele><time>2026-04-12T10:15:59.303Z</time></trkpt><trkpt lat="45.7050914" lon="11.6733948"><ele>75.5</ele><time>2026-04-12T10:16:00.301Z</time></trkpt><trkpt lat="45.7049773" lon="11.6733077"><ele>75.75</ele><time>2026-04-12T10:16:01.303Z</time></trkpt><trkpt lat="45.7048557" lon="11.6732248"><ele>76.0</ele><time>2026-04-12T10:16:02.3Z</time></trkpt><trkpt lat="45.7047331" lon="11.6731485"><ele>76.0</ele><time>2026-04-12T10:16:03.303Z</time></trkpt><trkpt lat="45.7046213" lon="11.6730611"><ele>76.0</ele><time>2026-04-12T10:16:04.293Z</time></trkpt><trkpt lat="45.7045078" lon="11.6729727"><ele>76.0</ele><time>2026-04-12T10:16:05.305Z</time></trkpt><trkpt lat="45.7043918" lon="11.6729006"><ele>76.0</ele><time>2026-04-12T10:16:06.295Z</time></trkpt><trkpt lat="45.7042786" lon="11.6728569"><ele>75.8</ele><time>2026-04-12T10:16:07.299Z</time></trkpt><trkpt lat="45.7041685" lon="11.6728291"><ele>75.6</ele><time>2026-04-12T10:16:08.293Z</time></trkpt><trkpt lat="45.704048" lon="11.6728235"><ele>75.4</ele><time>2026-04-12T10:16:09.301Z</time></trkpt><trkpt lat="45.7039547" lon="11.6728072"><ele>75.2</ele><time>2026-04-12T10:16:10.292Z</time></trkpt><trkpt lat="45.7038779" lon="11.6727827"><ele>75.0</ele><time>2026-04-12T10:16:11.303Z</time></trkpt><trkpt lat="45.7038097" lon="11.6727457"><ele>74.99999999999999</ele><time>2026-04-12T10:16:12.303Z</time></trkpt><trkpt lat="45.7037433" lon="11.6727296"><ele>75.0</ele><time>2026-04-12T10:16:13.309Z</time></trkpt><trkpt lat="45.7036693" lon="11.6727178"><ele>75.0</ele><time>2026-04-12T10:16:15.29Z</time></trkpt><trkpt lat="45.7035998" lon="11.6727795"><ele>75.0</ele><time>2026-04-12T10:16:18.299Z</time></trkpt><trkpt lat="45.7035979" lon="11.6728706"><ele>75.0</ele><time>2026-04-12T10:16:19.302Z</time></trkpt><trkpt lat="45.7036032" lon="11.6729606"><ele>74.99999999999999</ele><time>2026-04-12T10:16:20.285Z</time></trkpt><trkpt lat="45.7036056" lon="11.6730527"><ele>75.0</ele><time>2026-04-12T10:16:21.299Z</time></trkpt><trkpt lat="45.703617" lon="11.6731547"><ele>74.99999999999999</ele><time>2026-04-12T10:16:22.29Z</time></trkpt><trkpt lat="45.7036365" lon="11.6732515"><ele>75.0</ele><time>2026-04-12T10:16:23.291Z</time></trkpt><trkpt lat="45.7036585" lon="11.6733404"><ele>75.0</ele><time>2026-04-12T10:16:24.284Z</time></trkpt><trkpt lat="45.7036845" lon="11.673429"><ele>75.0</ele><time>2026-04-12T10:16:25.299Z</time></trkpt><trkpt lat="45.7037068" lon="11.6735146"><ele>75.0</ele><time>2026-04-12T10:16:26.285Z</time></trkpt><trkpt lat="45.70372" lon="11.6736042"><ele>74.99999999999999</ele><time>2026-04-12T10:16:27.298Z</time></trkpt><trkpt lat="45.7037374" lon="11.6737025"><ele>75.0</ele><time>2026-04-12T10:16:28.288Z</time></trkpt><trkpt lat="45.7037413" lon="11.6738066"><ele>75.0</ele><time>2026-04-12T10:16:29.305Z</time></trkpt><trkpt lat="45.7037452" lon="11.6739222"><ele>75.0</ele><time>2026-04-12T10:16:30.303Z</time></trkpt><trkpt lat="45.7037484" lon="11.6740498"><ele>75.0</ele><time>2026-04-12T10:16:31.305Z</time></trkpt><trkpt lat="45.7037539" lon="11.6741831"><ele>75.0</ele><time>2026-04-12T10:16:32.31Z</time></trkpt><trkpt lat="45.7037664" lon="11.6743277"><ele>75.0</ele><time>2026-04-12T10:16:33.306Z</time></trkpt><trkpt lat="45.7037642" lon="11.6744885"><ele>74.75</ele><time>2026-04-12T10:16:34.295Z</time></trkpt><trkpt lat="45.7037452" lon="11.6746666"><ele>74.5</ele><time>2026-04-12T10:16:35.294Z</time></trkpt><trkpt lat="45.7037179" lon="11.6748388"><ele>74.25</ele><time>2026-04-12T10:16:36.296Z</time></trkpt><trkpt lat="45.7036929" lon="11.6750224"><ele>74.0</ele><time>2026-04-12T10:16:37.3Z</time></trkpt><trkpt lat="45.7036697" lon="11.6752232"><ele>74.25</ele><time>2026-04-12T10:16:38.294Z</time></trkpt><trkpt lat="45.7036471" lon="11.6754135"><ele>74.5</ele><time>2026-04-12T10:16:39.305Z</time></trkpt><trkpt lat="45.7036306" lon="11.6755903"><ele>74.75</ele><time>2026-04-12T10:16:40.289Z</time></trkpt><trkpt lat="45.7036066" lon="11.6757569"><ele>75.0</ele><time>2026-04-12T10:16:41.299Z</time></trkpt><trkpt lat="45.7035862" lon="11.6758956"><ele>74.83333333333333</ele><time>2026-04-12T10:16:42.295Z</time></trkpt><trkpt lat="45.7035522" lon="11.676023"><ele>74.66666666666667</ele><time>2026-04-12T10:16:43.302Z</time></trkpt><trkpt lat="45.7035237" lon="11.6761362"><ele>74.5</ele><time>2026-04-12T10:16:44.295Z</time></trkpt><trkpt lat="45.7034994" lon="11.6762389"><ele>74.33333333333334</ele><time>2026-04-12T10:16:45.306Z</time></trkpt><trkpt lat="45.7034734" lon="11.6763346"><ele>74.16666666666667</ele><time>2026-04-12T10:16:46.293Z</time></trkpt><trkpt lat="45.7034527" lon="11.6764244"><ele>74.0</ele><time>2026-04-12T10:16:47.304Z</time></trkpt><trkpt lat="45.7034128" lon="11.6765867"><ele>74.0</ele><time>2026-04-12T10:16:49.293Z</time></trkpt><trkpt lat="45.7033161" lon="11.6766318"><ele>74.0</ele><time>2026-04-12T10:16:52.294Z</time></trkpt><trkpt lat="45.7031908" lon="11.6765808"><ele>74.0</ele><time>2026-04-12T10:16:54.291Z</time></trkpt><trkpt lat="45.7031252" lon="11.6765584"><ele>74.0</ele><time>2026-04-12T10:16:55.298Z</time></trkpt><trkpt lat="45.7030569" lon="11.6765284"><ele>74.0</ele><time>2026-04-12T10:16:56.303Z</time></trkpt><trkpt lat="45.7029704" lon="11.6764966"><ele>74.0</ele><time>2026-04-12T10:16:57.302Z</time></trkpt><trkpt lat="45.702872" lon="11.6764327"><ele>74.0</ele><time>2026-04-12T10:16:58.292Z</time></trkpt><trkpt lat="45.7027805" lon="11.6763788"><ele>74.0</ele><time>2026-04-12T10:16:59.295Z</time></trkpt><trkpt lat="45.7026968" lon="11.6763212"><ele>74.0</ele><time>2026-04-12T10:17:00.286Z</time></trkpt><trkpt lat="45.702616" lon="11.6762891"><ele>74.0</ele><time>2026-04-12T10:17:01.301Z</time></trkpt><trkpt lat="45.7025242" lon="11.6762805"><ele>74.0</ele><time>2026-04-12T10:17:02.303Z</time></trkpt><trkpt lat="45.7024233" lon="11.6762864"><ele>74.0</ele><time>2026-04-12T10:17:03.291Z</time></trkpt><trkpt lat="45.7023229" lon="11.6763043"><ele>74.0</ele><time>2026-04-12T10:17:04.295Z</time></trkpt><trkpt lat="45.7022193" lon="11.6763475"><ele>74.0</ele><time>2026-04-12T10:17:05.29Z</time></trkpt><trkpt lat="45.7021143" lon="11.6764025"><ele>74.0</ele><time>2026-04-12T10:17:06.296Z</time></trkpt><trkpt lat="45.7020085" lon="11.6764797"><ele>74.0</ele><time>2026-04-12T10:17:07.297Z</time></trkpt><trkpt lat="45.7019019" lon="11.6765621"><ele>74.0</ele><time>2026-04-12T10:17:08.307Z</time></trkpt><trkpt lat="45.7017946" lon="11.6766336"><ele>74.0</ele><time>2026-04-12T10:17:09.299Z</time></trkpt><trkpt lat="45.7016811" lon="11.6767176"><ele>74.0</ele><time>2026-04-12T10:17:10.292Z</time></trkpt><trkpt lat="45.7015761" lon="11.6767854"><ele>74.0</ele><time>2026-04-12T10:17:11.293Z</time></trkpt><trkpt lat="45.7014655" lon="11.6768541"><ele>74.0</ele><time>2026-04-12T10:17:12.298Z</time></trkpt><trkpt lat="45.7013714" lon="11.6769152"><ele>74.0</ele><time>2026-04-12T10:17:13.293Z</time></trkpt><trkpt lat="45.701278" lon="11.6769727"><ele>74.0</ele><time>2026-04-12T10:17:14.304Z</time></trkpt><trkpt lat="45.7012023" lon="11.6770288"><ele>74.0</ele><time>2026-04-12T10:17:15.303Z</time></trkpt><trkpt lat="45.701127" lon="11.6770695"><ele>73.4</ele><time>2026-04-12T10:17:16.299Z</time></trkpt><trkpt lat="45.7010627" lon="11.6771053"><ele>72.80000000000001</ele><time>2026-04-12T10:17:17.298Z</time></trkpt><trkpt lat="45.7009365" lon="11.6771774"><ele>72.19999999999999</ele><time>2026-04-12T10:17:19.301Z</time></trkpt><trkpt lat="45.7008689" lon="11.677194"><ele>71.6</ele><time>2026-04-12T10:17:20.3Z</time></trkpt><trkpt lat="45.7007735" lon="11.6771962"><ele>71.0</ele><time>2026-04-12T10:17:22.293Z</time></trkpt><trkpt lat="45.7006963" lon="11.6772488"><ele>71.0</ele><time>2026-04-12T10:17:25.306Z</time></trkpt><trkpt lat="45.7006575" lon="11.6771601"><ele>71.0</ele><time>2026-04-12T10:18:45.294Z</time></trkpt><trkpt lat="45.700606" lon="11.6770888"><ele>71.0</ele><time>2026-04-12T10:18:48.289Z</time></trkpt><trkpt lat="45.7005274" lon="11.6770371"><ele>71.0</ele><time>2026-04-12T10:18:51.306Z</time></trkpt><trkpt lat="45.7004416" lon="11.6770101"><ele>71.0</ele><time>2026-04-12T10:18:53.306Z</time></trkpt><trkpt lat="45.7003347" lon="11.6769975"><ele>71.0</ele><time>2026-04-12T10:18:55.311Z</time></trkpt><trkpt lat="45.7001898" lon="11.6769578"><ele>71.0</ele><time>2026-04-12T10:18:57.293Z</time></trkpt><trkpt lat="45.7001084" lon="11.6769408"><ele>71.0</ele><time>2026-04-12T10:18:58.297Z</time></trkpt><trkpt lat="45.7000431" lon="11.6769178"><ele>71.0</ele><time>2026-04-12T10:18:59.305Z</time></trkpt><trkpt lat="45.6999701" lon="11.6768982"><ele>71.0</ele><time>2026-04-12T10:19:00.309Z</time></trkpt><trkpt lat="45.6998695" lon="11.6768641"><ele>71.0</ele><time>2026-04-12T10:19:01.294Z</time></trkpt><trkpt lat="45.6997616" lon="11.676822"><ele>71.0</ele><time>2026-04-12T10:19:02.307Z</time></trkpt><trkpt lat="45.6996599" lon="11.676775"><ele>71.0</ele><time>2026-04-12T10:19:03.301Z</time></trkpt><trkpt lat="45.6995666" lon="11.6767295"><ele>71.0</ele><time>2026-04-12T10:19:04.303Z</time></trkpt><trkpt lat="45.6994747" lon="11.6766858"><ele>71.0</ele><time>2026-04-12T10:19:05.299Z</time></trkpt><trkpt lat="45.699382" lon="11.6766307"><ele>71.0</ele><time>2026-04-12T10:19:06.301Z</time></trkpt><trkpt lat="45.6992901" lon="11.6765705"><ele>71.0</ele><time>2026-04-12T10:19:07.305Z</time></trkpt><trkpt lat="45.6991925" lon="11.6765048"><ele>71.0</ele><time>2026-04-12T10:19:08.297Z</time></trkpt><trkpt lat="45.6990993" lon="11.6764389"><ele>71.0</ele><time>2026-04-12T10:19:09.299Z</time></trkpt><trkpt lat="45.6990094" lon="11.6763738"><ele>71.0</ele><time>2026-04-12T10:19:10.304Z</time></trkpt><trkpt lat="45.6989278" lon="11.6763164"><ele>71.0</ele><time>2026-04-12T10:19:11.294Z</time></trkpt><trkpt lat="45.6988515" lon="11.6762674"><ele>71.0</ele><time>2026-04-12T10:19:12.303Z</time></trkpt><trkpt lat="45.698785" lon="11.676215"><ele>71.0</ele><time>2026-04-12T10:19:13.294Z</time></trkpt><trkpt lat="45.6987236" lon="11.6761633"><ele>71.0</ele><time>2026-04-12T10:19:14.295Z</time></trkpt><trkpt lat="45.6986682" lon="11.6761094"><ele>71.0</ele><time>2026-04-12T10:19:15.3Z</time></trkpt><trkpt lat="45.6986152" lon="11.6760561"><ele>71.0</ele><time>2026-04-12T10:19:16.3Z</time></trkpt><trkpt lat="45.6985276" lon="11.6759778"><ele>71.0</ele><time>2026-04-12T10:19:18.3Z</time></trkpt><trkpt lat="45.6984191" lon="11.6759127"><ele>71.0</ele><time>2026-04-12T10:19:20.305Z</time></trkpt><trkpt lat="45.6983076" lon="11.6758447"><ele>71.0</ele><time>2026-04-12T10:19:22.307Z</time></trkpt><trkpt lat="45.6984146" lon="11.6759066"><ele>71.0</ele><time>2026-04-12T10:20:19.303Z</time></trkpt><trkpt lat="45.6984989" lon="11.6759466"><ele>71.0</ele><time>2026-04-12T10:20:20.298Z</time></trkpt><trkpt lat="45.6985787" lon="11.6759991"><ele>71.0</ele><time>2026-04-12T10:20:21.296Z</time></trkpt><trkpt lat="45.6986521" lon="11.6760568"><ele>71.0</ele><time>2026-04-12T10:20:22.3Z</time></trkpt><trkpt lat="45.6987156" lon="11.6761008"><ele>71.0</ele><time>2026-04-12T10:20:23.293Z</time></trkpt><trkpt lat="45.6987793" lon="11.6761454"><ele>71.0</ele><time>2026-04-12T10:20:24.299Z</time></trkpt><trkpt lat="45.69882" lon="11.6762414"><ele>71.0</ele><time>2026-04-12T10:20:26.303Z</time></trkpt><trkpt lat="45.6987864" lon="11.6763226"><ele>71.0</ele><time>2026-04-12T10:20:27.303Z</time></trkpt><trkpt lat="45.6987603" lon="11.6764098"><ele>71.0</ele><time>2026-04-12T10:20:28.297Z</time></trkpt><trkpt lat="45.6987277" lon="11.6764956"><ele>71.0</ele><time>2026-04-12T10:20:29.299Z</time></trkpt><trkpt lat="45.6986884" lon="11.6766197"><ele>71.0</ele><time>2026-04-12T10:20:31.303Z</time></trkpt><trkpt lat="45.698625" lon="11.6766982"><ele>71.0</ele><time>2026-04-12T10:20:37.299Z</time></trkpt><trkpt lat="45.6985565" lon="11.6767034"><ele>71.0</ele><time>2026-04-12T10:20:39.295Z</time></trkpt><trkpt lat="45.6986187" lon="11.6766713"><ele>71.0</ele><time>2026-04-12T10:21:00.302Z</time></trkpt><trkpt lat="45.6985553" lon="11.676674"><ele>71.0</ele><time>2026-04-12T10:21:19.304Z</time></trkpt><trkpt lat="45.69846" lon="11.6765909"><ele>71.0</ele><time>2026-04-12T10:21:21.299Z</time></trkpt><trkpt lat="45.698373" lon="11.6765423"><ele>71.0</ele><time>2026-04-12T10:21:22.298Z</time></trkpt><trkpt lat="45.6982741" lon="11.6765081"><ele>70.6</ele><time>2026-04-12T10:21:23.294Z</time></trkpt><trkpt lat="45.6981639" lon="11.6764767"><ele>70.19999999999999</ele><time>2026-04-12T10:21:24.298Z</time></trkpt><trkpt lat="45.6980697" lon="11.6764561"><ele>69.80000000000001</ele><time>2026-04-12T10:21:25.292Z</time></trkpt><trkpt lat="45.6979812" lon="11.6764445"><ele>69.4</ele><time>2026-04-12T10:21:26.3Z</time></trkpt><trkpt lat="45.6978798" lon="11.6764383"><ele>69.0</ele><time>2026-04-12T10:21:27.294Z</time></trkpt><trkpt lat="45.6977851" lon="11.6764218"><ele>69.0</ele><time>2026-04-12T10:21:28.308Z</time></trkpt><trkpt lat="45.6976817" lon="11.6764016"><ele>69.0</ele><time>2026-04-12T10:21:29.293Z</time></trkpt><trkpt lat="45.6975713" lon="11.6763834"><ele>69.0</ele><time>2026-04-12T10:21:30.305Z</time></trkpt><trkpt lat="45.6974679" lon="11.6763725"><ele>69.0</ele><time>2026-04-12T10:21:31.293Z</time></trkpt><trkpt lat="45.6973706" lon="11.6763675"><ele>69.0</ele><time>2026-04-12T10:21:32.308Z</time></trkpt><trkpt lat="45.6972929" lon="11.6763639"><ele>69.0</ele><time>2026-04-12T10:21:33.293Z</time></trkpt><trkpt lat="45.6972226" lon="11.6763561"><ele>69.0</ele><time>2026-04-12T10:21:34.306Z</time></trkpt><trkpt lat="45.6971116" lon="11.6763467"><ele>69.0</ele><time>2026-04-12T10:21:36.306Z</time></trkpt><trkpt lat="45.6970632" lon="11.6764399"><ele>69.0</ele><time>2026-04-12T10:21:42.294Z</time></trkpt><trkpt lat="45.6970292" lon="11.6765778"><ele>69.0</ele><time>2026-04-12T10:21:44.303Z</time></trkpt><trkpt lat="45.6970232" lon="11.6766811"><ele>69.0</ele><time>2026-04-12T10:21:45.309Z</time></trkpt><trkpt lat="45.6970055" lon="11.6767977"><ele>69.0</ele><time>2026-04-12T10:21:46.292Z</time></trkpt><trkpt lat="45.6969811" lon="11.6769203"><ele>69.0</ele><time>2026-04-12T10:21:47.299Z</time></trkpt><trkpt lat="45.6969536" lon="11.6770273"><ele>69.0</ele><time>2026-04-12T10:21:48.298Z</time></trkpt><trkpt lat="45.6969332" lon="11.6771282"><ele>69.0</ele><time>2026-04-12T10:21:49.297Z</time></trkpt><trkpt lat="45.6969115" lon="11.6772311"><ele>69.0</ele><time>2026-04-12T10:21:50.297Z</time></trkpt><trkpt lat="45.696891" lon="11.6773361"><ele>69.0</ele><time>2026-04-12T10:21:51.3Z</time></trkpt><trkpt lat="45.6968718" lon="11.6774334"><ele>68.85714285714286</ele><time>2026-04-12T10:21:52.302Z</time></trkpt><trkpt lat="45.6968519" lon="11.6775335"><ele>68.71428571428572</ele><time>2026-04-12T10:21:53.307Z</time></trkpt><trkpt lat="45.6968337" lon="11.6776367"><ele>68.57142857142857</ele><time>2026-04-12T10:21:54.291Z</time></trkpt><trkpt lat="45.6968084" lon="11.6777367"><ele>68.42857142857143</ele><time>2026-04-12T10:21:55.307Z</time></trkpt><trkpt lat="45.696782" lon="11.6778361"><ele>68.28571428571428</ele><time>2026-04-12T10:21:56.294Z</time></trkpt><trkpt lat="45.6967573" lon="11.6779348"><ele>68.14285714285714</ele><time>2026-04-12T10:21:57.302Z</time></trkpt><trkpt lat="45.6967332" lon="11.6780357"><ele>68.0</ele><time>2026-04-12T10:21:58.291Z</time></trkpt><trkpt lat="45.6967111" lon="11.6781287"><ele>68.0</ele><time>2026-04-12T10:21:59.306Z</time></trkpt><trkpt lat="45.696692" lon="11.6782149"><ele>68.0</ele><time>2026-04-12T10:22:00.294Z</time></trkpt><trkpt lat="45.6966648" lon="11.6783498"><ele>68.0</ele><time>2026-04-12T10:22:02.303Z</time></trkpt><trkpt lat="45.6967434" lon="11.6783257"><ele>68.0</ele><time>2026-04-12T10:23:06.295Z</time></trkpt><trkpt lat="45.696831" lon="11.6783331"><ele>68.0</ele><time>2026-04-12T10:23:08.294Z</time></trkpt><trkpt lat="45.6969433" lon="11.6783344"><ele>68.0</ele><time>2026-04-12T10:23:10.303Z</time></trkpt><trkpt lat="45.6970575" lon="11.6783664"><ele>68.0</ele><time>2026-04-12T10:23:12.302Z</time></trkpt><trkpt lat="45.6971394" lon="11.678427"><ele>68.0</ele><time>2026-04-12T10:23:14.302Z</time></trkpt><trkpt lat="45.6972053" lon="11.6784754"><ele>68.0</ele><time>2026-04-12T10:23:16.304Z</time></trkpt><trkpt lat="45.6971872" lon="11.6785903"><ele>68.0</ele><time>2026-04-12T10:23:19.295Z</time></trkpt><trkpt lat="45.697123" lon="11.6786486"><ele>68.0</ele><time>2026-04-12T10:23:21.289Z</time></trkpt><trkpt lat="45.6970141" lon="11.678664"><ele>68.0</ele><time>2026-04-12T10:23:23.287Z</time></trkpt><trkpt lat="45.6969442" lon="11.6786503"><ele>68.0</ele><time>2026-04-12T10:23:24.294Z</time></trkpt><trkpt lat="45.6968783" lon="11.6786124"><ele>68.0</ele><time>2026-04-12T10:23:25.292Z</time></trkpt><trkpt lat="45.6968175" lon="11.6785778"><ele>68.0</ele><time>2026-04-12T10:23:26.294Z</time></trkpt><trkpt lat="45.6967572" lon="11.6785352"><ele>68.0</ele><time>2026-04-12T10:23:27.297Z</time></trkpt><trkpt lat="45.6966564" lon="11.6785061"><ele>68.0</ele><time>2026-04-12T10:23:29.293Z</time></trkpt><trkpt lat="45.6966129" lon="11.6785731"><ele>68.0</ele><time>2026-04-12T10:23:31.301Z</time></trkpt><trkpt lat="45.6966121" lon="11.6787382"><ele>68.16666666666667</ele><time>2026-04-12T10:23:33.295Z</time></trkpt><trkpt lat="45.6966008" lon="11.6788271"><ele>68.33333333333334</ele><time>2026-04-12T10:23:34.305Z</time></trkpt><trkpt lat="45.6965762" lon="11.6789125"><ele>68.5</ele><time>2026-04-12T10:23:35.296Z</time></trkpt><trkpt lat="45.6965417" lon="11.6790481"><ele>68.66666666666667</ele><time>2026-04-12T10:23:37.303Z</time></trkpt><trkpt lat="45.6965185" lon="11.6791579"><ele>68.83333333333333</ele><time>2026-04-12T10:23:39.294Z</time></trkpt><trkpt lat="45.6965476" lon="11.6792816"><ele>69.0</ele><time>2026-04-12T10:23:42.304Z</time></trkpt><trkpt lat="45.6966162" lon="11.679322"><ele>69.0</ele><time>2026-04-12T10:23:44.305Z</time></trkpt><trkpt lat="45.6967197" lon="11.6793519"><ele>69.0</ele><time>2026-04-12T10:23:46.297Z</time></trkpt><trkpt lat="45.6967695" lon="11.6794511"><ele>69.0</ele><time>2026-04-12T10:23:48.31Z</time></trkpt><trkpt lat="45.6967405" lon="11.6795513"><ele>69.0</ele><time>2026-04-12T10:23:50.3Z</time></trkpt><trkpt lat="45.6966738" lon="11.6796393"><ele>69.0</ele><time>2026-04-12T10:23:52.299Z</time></trkpt><trkpt lat="45.6965908" lon="11.6796941"><ele>69.0</ele><time>2026-04-12T10:23:54.297Z</time></trkpt><trkpt lat="45.6965215" lon="11.6797409"><ele>69.0</ele><time>2026-04-12T10:23:56.302Z</time></trkpt><trkpt lat="45.6964418" lon="11.6797841"><ele>69.0</ele><time>2026-04-12T10:23:58.298Z</time></trkpt><trkpt lat="45.6963562" lon="11.6798549"><ele>69.0</ele><time>2026-04-12T10:24:00.301Z</time></trkpt><trkpt lat="45.6962513" lon="11.6799561"><ele>69.0</ele><time>2026-04-12T10:24:02.295Z</time></trkpt><trkpt lat="45.6961741" lon="11.6800294"><ele>69.0</ele><time>2026-04-12T10:24:04.306Z</time></trkpt><trkpt lat="45.6961031" lon="11.6800741"><ele>68.83333333333333</ele><time>2026-04-12T10:24:06.297Z</time></trkpt><trkpt lat="45.6960413" lon="11.6801457"><ele>68.66666666666667</ele><time>2026-04-12T10:24:09.297Z</time></trkpt><trkpt lat="45.6959768" lon="11.6802231"><ele>68.5</ele><time>2026-04-12T10:24:16.306Z</time></trkpt><trkpt lat="45.6958869" lon="11.6803092"><ele>68.33333333333334</ele><time>2026-04-12T10:24:18.3Z</time></trkpt><trkpt lat="45.6958394" lon="11.6804261"><ele>68.16666666666667</ele><time>2026-04-12T10:24:20.296Z</time></trkpt><trkpt lat="45.6957873" lon="11.6803436"><ele>68.0</ele><time>2026-04-12T10:24:25.296Z</time></trkpt><trkpt lat="45.6957558" lon="11.680241"><ele>67.99999999999999</ele><time>2026-04-12T10:24:27.296Z</time></trkpt><trkpt lat="45.6957042" lon="11.6801625"><ele>68.0</ele><time>2026-04-12T10:24:29.295Z</time></trkpt><trkpt lat="45.6956305" lon="11.6801741"><ele>68.0</ele><time>2026-04-12T10:37:19.29Z</time></trkpt><trkpt lat="45.6956336" lon="11.6802686"><ele>68.0</ele><time>2026-04-12T10:37:22.293Z</time></trkpt><trkpt lat="45.6956088" lon="11.6803748"><ele>68.0</ele><time>2026-04-12T10:37:25.298Z</time></trkpt><trkpt lat="45.6955616" lon="11.6804514"><ele>67.99999999999999</ele><time>2026-04-12T10:37:28.291Z</time></trkpt><trkpt lat="45.6955254" lon="11.6805262"><ele>68.0</ele><time>2026-04-12T10:37:32.299Z</time></trkpt><trkpt lat="45.6954627" lon="11.6805614"><ele>68.0</ele><time>2026-04-12T10:37:38.293Z</time></trkpt><trkpt lat="45.6954163" lon="11.6806398"><ele>68.0</ele><time>2026-04-12T10:37:43.29Z</time></trkpt><trkpt lat="45.6953571" lon="11.6806941"><ele>68.0</ele><time>2026-04-12T10:37:46.286Z</time></trkpt><trkpt lat="45.6953006" lon="11.6808143"><ele>68.0</ele><time>2026-04-12T10:37:49.283Z</time></trkpt><trkpt lat="45.6952394" lon="11.6809002"><ele>68.0</ele><time>2026-04-12T10:37:51.28Z</time></trkpt><trkpt lat="45.6951811" lon="11.6810075"><ele>68.0</ele><time>2026-04-12T10:37:53.29Z</time></trkpt><trkpt lat="45.695109" lon="11.6810682"><ele>68.0</ele><time>2026-04-12T10:37:55.292Z</time></trkpt><trkpt lat="45.6950515" lon="11.6811294"><ele>68.0</ele><time>2026-04-12T10:37:57.289Z</time></trkpt><trkpt lat="45.69513" lon="11.6811351"><ele>68.0</ele><time>2026-04-12T10:38:01.283Z</time></trkpt><trkpt lat="45.6952486" lon="11.6811099"><ele>68.0</ele><time>2026-04-12T10:38:03.277Z</time></trkpt><trkpt lat="45.6953182" lon="11.6810753"><ele>68.0</ele><time>2026-04-12T10:38:04.282Z</time></trkpt><trkpt lat="45.6953801" lon="11.6810357"><ele>68.0</ele><time>2026-04-12T10:38:05.279Z</time></trkpt><trkpt lat="45.6954569" lon="11.6809757"><ele>68.0</ele><time>2026-04-12T10:38:07.279Z</time></trkpt><trkpt lat="45.6955445" lon="11.6809224"><ele>68.0</ele><time>2026-04-12T10:38:09.282Z</time></trkpt><trkpt lat="45.6956108" lon="11.6809432"><ele>68.0</ele><time>2026-04-12T10:38:11.299Z</time></trkpt><trkpt lat="45.6956393" lon="11.6810514"><ele>68.0</ele><time>2026-04-12T10:38:13.289Z</time></trkpt><trkpt lat="45.6956898" lon="11.6811432"><ele>68.0</ele><time>2026-04-12T10:38:16.287Z</time></trkpt><trkpt lat="45.6957539" lon="11.6811562"><ele>68.0</ele><time>2026-04-12T10:38:18.293Z</time></trkpt><trkpt lat="45.695805" lon="11.6810176"><ele>68.0</ele><time>2026-04-12T10:38:21.29Z</time></trkpt><trkpt lat="45.6958741" lon="11.6808919"><ele>68.0</ele><time>2026-04-12T10:38:23.289Z</time></trkpt><trkpt lat="45.6959798" lon="11.6808408"><ele>68.0</ele><time>2026-04-12T10:38:25.288Z</time></trkpt><trkpt lat="45.696096" lon="11.6808016"><ele>68.0</ele><time>2026-04-12T10:38:27.294Z</time></trkpt><trkpt lat="45.6961529" lon="11.6807589"><ele>68.0</ele><time>2026-04-12T10:38:28.301Z</time></trkpt><trkpt lat="45.6962121" lon="11.6806844"><ele>67.85714285714285</ele><time>2026-04-12T10:38:30.294Z</time></trkpt><trkpt lat="45.6962684" lon="11.6806199"><ele>67.71428571428571</ele><time>2026-04-12T10:38:32.301Z</time></trkpt><trkpt lat="45.6963049" lon="11.680524"><ele>67.57142857142857</ele><time>2026-04-12T10:38:35.295Z</time></trkpt><trkpt lat="45.6963044" lon="11.6804024"><ele>67.42857142857142</ele><time>2026-04-12T10:39:55.296Z</time></trkpt><trkpt lat="45.6962356" lon="11.6804014"><ele>67.28571428571428</ele><time>2026-04-12T10:39:59.3Z</time></trkpt><trkpt lat="45.6962319" lon="11.6805068"><ele>67.14285714285714</ele><time>2026-04-12T10:40:01.288Z</time></trkpt><trkpt lat="45.6962402" lon="11.6805974"><ele>67.0</ele><time>2026-04-12T10:40:03.287Z</time></trkpt><trkpt lat="45.6963115" lon="11.6806041"><ele>67.0</ele><time>2026-04-12T10:40:07.293Z</time></trkpt><trkpt lat="45.6963858" lon="11.6805659"><ele>67.0</ele><time>2026-04-12T10:40:12.29Z</time></trkpt><trkpt lat="45.6964753" lon="11.6805845"><ele>67.0</ele><time>2026-04-12T10:40:14.287Z</time></trkpt><trkpt lat="45.6965827" lon="11.6806137"><ele>67.0</ele><time>2026-04-12T10:40:16.292Z</time></trkpt><trkpt lat="45.6967038" lon="11.6805665"><ele>67.0</ele><time>2026-04-12T10:40:18.295Z</time></trkpt><trkpt lat="45.6967486" lon="11.6805007"><ele>67.0</ele><time>2026-04-12T10:40:19.303Z</time></trkpt><trkpt lat="45.6968003" lon="11.6804427"><ele>67.0</ele><time>2026-04-12T10:40:20.286Z</time></trkpt><trkpt lat="45.6969206" lon="11.6803482"><ele>67.0</ele><time>2026-04-12T10:40:22.3Z</time></trkpt><trkpt lat="45.6970362" lon="11.6803742"><ele>67.0</ele><time>2026-04-12T10:40:24.291Z</time></trkpt><trkpt lat="45.6971744" lon="11.6804491"><ele>67.0</ele><time>2026-04-12T10:40:26.288Z</time></trkpt><trkpt lat="45.697257" lon="11.680511"><ele>67.0</ele><time>2026-04-12T10:40:27.291Z</time></trkpt><trkpt lat="45.6973337" lon="11.6805584"><ele>67.0</ele><time>2026-04-12T10:40:28.295Z</time></trkpt><trkpt lat="45.6973955" lon="11.6806033"><ele>67.0</ele><time>2026-04-12T10:40:29.302Z</time></trkpt><trkpt lat="45.6975132" lon="11.6805791"><ele>67.0</ele><time>2026-04-12T10:40:31.297Z</time></trkpt><trkpt lat="45.6975691" lon="11.6805274"><ele>67.0</ele><time>2026-04-12T10:40:32.304Z</time></trkpt><trkpt lat="45.6976253" lon="11.6804788"><ele>67.0</ele><time>2026-04-12T10:40:33.287Z</time></trkpt><trkpt lat="45.6977041" lon="11.6803688"><ele>67.0</ele><time>2026-04-12T10:40:35.296Z</time></trkpt><trkpt lat="45.6976933" lon="11.6801601"><ele>67.0</ele><time>2026-04-12T10:40:37.297Z</time></trkpt><trkpt lat="45.6976929" lon="11.6800464"><ele>67.0</ele><time>2026-04-12T10:40:38.287Z</time></trkpt><trkpt lat="45.6977062" lon="11.6799581"><ele>67.0</ele><time>2026-04-12T10:40:39.294Z</time></trkpt><trkpt lat="45.6977226" lon="11.6798448"><ele>67.66666666666666</ele><time>2026-04-12T10:40:41.294Z</time></trkpt><trkpt lat="45.6976338" lon="11.6798416"><ele>68.33333333333333</ele><time>2026-04-12T10:40:45.305Z</time></trkpt><trkpt lat="45.6975765" lon="11.6798885"><ele>69.0</ele><time>2026-04-12T10:40:46.292Z</time></trkpt><trkpt lat="45.6975151" lon="11.6799344"><ele>69.66666666666667</ele><time>2026-04-12T10:40:47.299Z</time></trkpt><trkpt lat="45.6974484" lon="11.6799751"><ele>70.33333333333334</ele><time>2026-04-12T10:40:48.291Z</time></trkpt><trkpt lat="45.6973834" lon="11.6800229"><ele>71.0</ele><time>2026-04-12T10:40:49.297Z</time></trkpt><trkpt lat="45.6973387" lon="11.6801227"><ele>71.0</ele><time>2026-04-12T10:40:51.298Z</time></trkpt><trkpt lat="45.6974279" lon="11.6802055"><ele>71.0</ele><time>2026-04-12T10:40:53.294Z</time></trkpt><trkpt lat="45.6975004" lon="11.6802287"><ele>71.0</ele><time>2026-04-12T10:40:54.292Z</time></trkpt><trkpt lat="45.6975587" lon="11.6802868"><ele>71.0</ele><time>2026-04-12T10:40:55.308Z</time></trkpt><trkpt lat="45.6975996" lon="11.6803672"><ele>71.0</ele><time>2026-04-12T10:40:56.293Z</time></trkpt><trkpt lat="45.6975323" lon="11.6804704"><ele>71.0</ele><time>2026-04-12T10:40:58.291Z</time></trkpt><trkpt lat="45.6974693" lon="11.6804471"><ele>71.0</ele><time>2026-04-12T10:40:59.299Z</time></trkpt><trkpt lat="45.6973863" lon="11.6803447"><ele>71.0</ele><time>2026-04-12T10:41:01.289Z</time></trkpt><trkpt lat="45.6972789" lon="11.6802588"><ele>71.0</ele><time>2026-04-12T10:41:03.292Z</time></trkpt><trkpt lat="45.6972168" lon="11.6802139"><ele>71.0</ele><time>2026-04-12T10:41:04.293Z</time></trkpt><trkpt lat="45.697108" lon="11.6801327"><ele>71.0</ele><time>2026-04-12T10:41:06.297Z</time></trkpt><trkpt lat="45.6970621" lon="11.6800164"><ele>71.0</ele><time>2026-04-12T10:41:08.316Z</time></trkpt><trkpt lat="45.6971164" lon="11.6799275"><ele>71.0</ele><time>2026-04-12T10:41:10.3Z</time></trkpt><trkpt lat="45.6971996" lon="11.6798818"><ele>71.0</ele><time>2026-04-12T10:41:11.288Z</time></trkpt><trkpt lat="45.6972834" lon="11.6798256"><ele>71.0</ele><time>2026-04-12T10:41:12.285Z</time></trkpt><trkpt lat="45.6973486" lon="11.6797914"><ele>71.0</ele><time>2026-04-12T10:41:13.281Z</time></trkpt><trkpt lat="45.6974048" lon="11.6797427"><ele>71.0</ele><time>2026-04-12T10:41:14.29Z</time></trkpt><trkpt lat="45.6974653" lon="11.6797111"><ele>71.0</ele><time>2026-04-12T10:41:15.282Z</time></trkpt><trkpt lat="45.6975266" lon="11.6796869"><ele>71.0</ele><time>2026-04-12T10:41:16.291Z</time></trkpt><trkpt lat="45.6975929" lon="11.6796808"><ele>71.0</ele><time>2026-04-12T10:41:17.29Z</time></trkpt><trkpt lat="45.6976861" lon="11.6796818"><ele>71.0</ele><time>2026-04-12T10:41:19.289Z</time></trkpt><trkpt lat="45.6977694" lon="11.6797358"><ele>71.0</ele><time>2026-04-12T10:41:21.29Z</time></trkpt><trkpt lat="45.6978323" lon="11.6796936"><ele>71.0</ele><time>2026-04-12T10:41:23.296Z</time></trkpt><trkpt lat="45.6978514" lon="11.6795704"><ele>71.0</ele><time>2026-04-12T10:41:25.288Z</time></trkpt><trkpt lat="45.697805" lon="11.6795094"><ele>71.0</ele><time>2026-04-12T10:41:27.294Z</time></trkpt><trkpt lat="45.6976838" lon="11.6795001"><ele>71.0</ele><time>2026-04-12T10:41:29.289Z</time></trkpt><trkpt lat="45.6976148" lon="11.6795159"><ele>71.0</ele><time>2026-04-12T10:41:30.307Z</time></trkpt><trkpt lat="45.6975468" lon="11.6795522"><ele>71.0</ele><time>2026-04-12T10:41:31.289Z</time></trkpt><trkpt lat="45.697489" lon="11.6796113"><ele>71.0</ele><time>2026-04-12T10:41:32.308Z</time></trkpt><trkpt lat="45.6974283" lon="11.6796484"><ele>71.0</ele><time>2026-04-12T10:41:33.287Z</time></trkpt><trkpt lat="45.6973658" lon="11.6796736"><ele>71.0</ele><time>2026-04-12T10:41:34.3Z</time></trkpt><trkpt lat="45.6972803" lon="11.679686"><ele>71.0</ele><time>2026-04-12T10:41:36.295Z</time></trkpt><trkpt lat="45.6971766" lon="11.6797267"><ele>71.0</ele><time>2026-04-12T10:41:38.303Z</time></trkpt><trkpt lat="45.6970962" lon="11.679802"><ele>71.0</ele><time>2026-04-12T10:41:40.292Z</time></trkpt><trkpt lat="45.69702" lon="11.6798825"><ele>71.0</ele><time>2026-04-12T10:41:42.297Z</time></trkpt><trkpt lat="45.6969372" lon="11.6799712"><ele>70.6</ele><time>2026-04-12T10:41:44.295Z</time></trkpt><trkpt lat="45.6968479" lon="11.6800755"><ele>70.19999999999999</ele><time>2026-04-12T10:41:46.299Z</time></trkpt><trkpt lat="45.6967819" lon="11.6801814"><ele>69.80000000000001</ele><time>2026-04-12T10:41:48.297Z</time></trkpt><trkpt lat="45.696707" lon="11.6802455"><ele>69.4</ele><time>2026-04-12T10:41:50.296Z</time></trkpt><trkpt lat="45.6966073" lon="11.6801936"><ele>69.0</ele><time>2026-04-12T10:41:52.296Z</time></trkpt><trkpt lat="45.6964739" lon="11.6802185"><ele>68.8</ele><time>2026-04-12T10:41:54.293Z</time></trkpt><trkpt lat="45.6963927" lon="11.6802719"><ele>68.60000000000001</ele><time>2026-04-12T10:41:55.304Z</time></trkpt><trkpt lat="45.6963012" lon="11.6803402"><ele>68.4</ele><time>2026-04-12T10:41:56.298Z</time></trkpt><trkpt lat="45.6962105" lon="11.6804038"><ele>68.2</ele><time>2026-04-12T10:41:57.301Z</time></trkpt><trkpt lat="45.696125" lon="11.680457"><ele>68.0</ele><time>2026-04-12T10:41:58.289Z</time></trkpt><trkpt lat="45.6960484" lon="11.6805081"><ele>68.0</ele><time>2026-04-12T10:41:59.302Z</time></trkpt><trkpt lat="45.6959824" lon="11.6805555"><ele>68.0</ele><time>2026-04-12T10:42:00.296Z</time></trkpt><trkpt lat="45.6959198" lon="11.680596"><ele>68.0</ele><time>2026-04-12T10:42:01.296Z</time></trkpt><trkpt lat="45.6958613" lon="11.6806485"><ele>68.0</ele><time>2026-04-12T10:42:02.301Z</time></trkpt><trkpt lat="45.6957603" lon="11.6807165"><ele>68.0</ele><time>2026-04-12T10:42:04.299Z</time></trkpt><trkpt lat="45.6956946" lon="11.6806304"><ele>68.0</ele><time>2026-04-12T10:42:07.286Z</time></trkpt><trkpt lat="45.6956598" lon="11.6805235"><ele>67.99999999999999</ele><time>2026-04-12T10:42:09.295Z</time></trkpt><trkpt lat="45.6955792" lon="11.680483"><ele>68.0</ele><time>2026-04-12T10:42:11.297Z</time></trkpt><trkpt lat="45.6955092" lon="11.680476"><ele>68.0</ele><time>2026-04-12T10:42:14.297Z</time></trkpt><trkpt lat="45.6954454" lon="11.6805234"><ele>68.0</ele><time>2026-04-12T10:42:18.296Z</time></trkpt><trkpt lat="45.6953931" lon="11.6805876"><ele>68.0</ele><time>2026-04-12T10:42:21.286Z</time></trkpt><trkpt lat="45.6953456" lon="11.6806552"><ele>67.99999999999999</ele><time>2026-04-12T10:42:23.3Z</time></trkpt><trkpt lat="45.6952962" lon="11.680723"><ele>68.0</ele><time>2026-04-12T10:42:25.292Z</time></trkpt><trkpt lat="45.6952447" lon="11.6808103"><ele>68.16666666666667</ele><time>2026-04-12T10:42:27.298Z</time></trkpt><trkpt lat="45.6951805" lon="11.6809271"><ele>68.33333333333334</ele><time>2026-04-12T10:42:29.293Z</time></trkpt><trkpt lat="45.6950901" lon="11.6809945"><ele>68.5</ele><time>2026-04-12T10:42:32.305Z</time></trkpt><trkpt lat="45.6950709" lon="11.6811118"><ele>68.66666666666667</ele><time>2026-04-12T10:42:35.295Z</time></trkpt><trkpt lat="45.6951574" lon="11.6811471"><ele>68.83333333333333</ele><time>2026-04-12T10:42:37.296Z</time></trkpt><trkpt lat="45.6952259" lon="11.6811398"><ele>69.0</ele><time>2026-04-12T10:42:38.292Z</time></trkpt><trkpt lat="45.695293" lon="11.6811222"><ele>68.8</ele><time>2026-04-12T10:42:39.299Z</time></trkpt><trkpt lat="45.6953936" lon="11.6810418"><ele>68.60000000000001</ele><time>2026-04-12T10:42:41.286Z</time></trkpt><trkpt lat="45.6954985" lon="11.6809587"><ele>68.4</ele><time>2026-04-12T10:42:43.285Z</time></trkpt><trkpt lat="45.6956039" lon="11.6809043"><ele>68.2</ele><time>2026-04-12T10:42:45.291Z</time></trkpt><trkpt lat="45.6956942" lon="11.6809382"><ele>68.0</ele><time>2026-04-12T10:42:47.289Z</time></trkpt><trkpt lat="45.69572" lon="11.6810337"><ele>67.99999999999999</ele><time>2026-04-12T10:42:49.296Z</time></trkpt><trkpt lat="45.6957505" lon="11.6811185"><ele>68.0</ele><time>2026-04-12T10:42:51.295Z</time></trkpt><trkpt lat="45.6958279" lon="11.6810606"><ele>68.0</ele><time>2026-04-12T10:42:54.278Z</time></trkpt><trkpt lat="45.6958566" lon="11.6809594"><ele>68.0</ele><time>2026-04-12T10:42:55.286Z</time></trkpt><trkpt lat="45.6958987" lon="11.6808705"><ele>68.0</ele><time>2026-04-12T10:42:57.287Z</time></trkpt><trkpt lat="45.6959692" lon="11.6808429"><ele>67.99999999999999</ele><time>2026-04-12T10:42:58.283Z</time></trkpt><trkpt lat="45.6960357" lon="11.6808139"><ele>68.0</ele><time>2026-04-12T10:42:59.288Z</time></trkpt><trkpt lat="45.6961383" lon="11.6807409"><ele>67.66666666666667</ele><time>2026-04-12T10:43:01.297Z</time></trkpt><trkpt lat="45.6961993" lon="11.680659"><ele>67.33333333333333</ele><time>2026-04-12T10:43:03.293Z</time></trkpt><trkpt lat="45.6962561" lon="11.680556"><ele>67.0</ele><time>2026-04-12T10:43:05.288Z</time></trkpt><trkpt lat="45.6965885" lon="11.6805899"><ele>67.0</ele><time>2026-04-12T10:43:24.296Z</time></trkpt><trkpt lat="45.697804" lon="11.6797324"><ele>69.0</ele><time>2026-04-12T10:44:27.287Z</time></trkpt><trkpt lat="45.6964829" lon="11.6802462"><ele>69.0</ele><time>2026-04-12T10:44:58.295Z</time></trkpt><trkpt lat="45.6952071" lon="11.6809102"><ele>67.0</ele><time>2026-04-12T10:45:30.286Z</time></trkpt><trkpt lat="45.6965664" lon="11.6806101"><ele>67.0</ele><time>2026-04-12T10:48:28.283Z</time></trkpt><trkpt lat="45.6977841" lon="11.6797113"><ele>67.0</ele><time>2026-04-12T10:49:45.274Z</time></trkpt><trkpt lat="45.696423" lon="11.6802669"><ele>69.0</ele><time>2026-04-12T10:50:19.278Z</time></trkpt><trkpt lat="45.6951569" lon="11.6810153"><ele>67.0</ele><time>2026-04-12T10:50:58.286Z</time></trkpt><trkpt lat="45.6964552" lon="11.6804794"><ele>68.0</ele><time>2026-04-12T11:13:36.29Z</time></trkpt><trkpt lat="45.6957858" lon="11.6807131"><ele>66.0</ele><time>2026-04-12T11:25:13.285Z</time></trkpt><trkpt lat="45.6944512" lon="11.6811612"><ele>65.0</ele><time>2026-04-12T11:26:07.281Z</time></trkpt><trkpt lat="45.6932746" lon="11.6822326"><ele>62.0</ele><time>2026-04-12T11:26:55.29Z</time></trkpt><trkpt lat="45.6912886" lon="11.6830332"><ele>64.0</ele><time>2026-04-12T11:27:18.28Z</time></trkpt><trkpt lat="45.6892436" lon="11.6835541"><ele>63.0</ele><time>2026-04-12T11:27:45.284Z</time></trkpt><trkpt lat="45.6872056" lon="11.6832762"><ele>60.0</ele><time>2026-04-12T11:28:03.285Z</time></trkpt><trkpt lat="45.6844337" lon="11.6836175"><ele>57.0</ele><time>2026-04-12T11:28:44.276Z</time></trkpt><trkpt lat="45.6817419" lon="11.6845019"><ele>59.0</ele><time>2026-04-12T11:29:06.275Z</time></trkpt><trkpt lat="45.6791605" lon="11.6857357"><ele>64.0</ele><time>2026-04-12T11:29:30.288Z</time></trkpt><trkpt lat="45.6772232" lon="11.6846764"><ele>62.0</ele><time>2026-04-12T11:33:11.285Z</time></trkpt><trkpt lat="45.6758573" lon="11.6824859"><ele>63.0</ele><time>2026-04-12T11:33:45.292Z</time></trkpt><trkpt lat="45.6761471" lon="11.6845375"><ele>57.0</ele><time>2026-04-12T11:34:39.29Z</time></trkpt><trkpt lat="45.6770742" lon="11.689359"><ele>57.0</ele><time>2026-04-12T11:34:59.29Z</time></trkpt></trkseg></trk></gpx>